Date StartTime U_cm/s V_cm/s W_cm/s Ustd_cm/s Vstd_cm/s Wstd_cm/s Uvar_(cm/s)^2 Vvar_(cm/s)^2 Wvar_(cm/s)^2 KE_(m/s)^2 TurbulentKE_(m/s)^2 HorizWindSpeed_cm/s FrictionSpeec_cm/s DragCoef SpeedOfSound_m/s SonicTemperature_C Pressure_mb 
12/08/2014  00:00:00        6.428       -7.378        4.961       21.237       14.270        8.929      451.023      203.621       79.724        0.043        0.037        9.786        8.346        0.727      334.650        4.762      866.270
12/08/2014  00:01:00       16.040      -26.867        3.244       21.491       37.239       16.358      461.847     1386.754      267.588        0.155        0.106       31.291       17.951        0.329      334.613        4.700      866.267
12/08/2014  00:02:00      -54.432      -16.872       -1.262       43.912       27.223       10.300     1928.300      741.112      106.088        0.301        0.139       56.987       12.075        0.045      334.554        4.603      866.269
12/08/2014  00:03:00     -140.763      -57.604      -17.537       49.221       40.535       15.662     2422.702     1643.058      245.300        1.387        0.216      152.093       17.247        0.013      334.193        4.004      866.258
12/08/2014  00:04:00     -118.269     -113.418       -6.843       48.583       47.928       35.317     2360.307     2297.120     1247.294        1.640        0.295      163.863       30.834        0.035      334.137        3.910      866.243
12/08/2014  00:05:00      -86.419      -48.492       -3.777       28.345       26.641       15.880      803.447      709.759      252.174        0.580        0.088       99.094       13.087        0.017      334.116        3.877      866.227
12/08/2014  00:06:00      -27.338      -31.300       -1.707       23.018        7.270        5.674      529.811       52.848       32.194        0.117        0.031       41.558        5.783        0.019      334.181        3.985      866.213
12/08/2014  00:07:00      -14.192      -46.665       -3.889       16.605       12.787       13.202      275.725      163.512      174.297        0.150        0.031       48.776        9.187        0.035      334.422        4.384      866.216
12/08/2014  00:08:00      -30.889      -26.205        2.931       25.290       21.453       11.084      639.562      460.212      122.847        0.144        0.061       40.507       10.815        0.071      334.383        4.320      866.217
12/08/2014  00:09:00     -115.216      -71.096        1.557       64.675       43.151       24.438     4182.851     1861.980      597.202        1.249        0.332      135.386       23.259        0.030      334.302        4.184      866.204
12/08/2014  00:10:00     -113.903      -53.991        0.231       46.515       34.959       19.849     2163.682     1222.158      393.972        0.983        0.189      126.051       22.056        0.031      334.194        4.005      866.179
12/08/2014  00:11:00      -98.384      -22.824       -2.635       40.757       32.371       20.973     1661.130     1047.908      439.869        0.668        0.157      100.996       17.904        0.031      334.093        3.837      866.159
12/08/2014  00:12:00     -118.310      -35.624       -2.346       48.853       33.481       22.157     2386.604     1120.977      490.927        0.963        0.200      123.557       25.125        0.041      333.995        3.676      866.166
12/08/2014  00:13:00     -156.441      -41.837      -16.325       48.888       40.523       23.876     2390.017     1642.154      570.058        1.555        0.230      161.939       18.792        0.013      333.941        3.585      866.180
12/08/2014  00:14:00     -133.148      -20.039      -15.011       39.707       29.318       25.652     1576.650      859.529      658.038        1.072        0.155      134.647       22.331        0.028      333.926        3.561      866.193
12/08/2014  00:15:00      -94.508       -5.265       -1.419       33.710       26.999       20.947     1136.377      728.972      438.797        0.563        0.115       94.655       18.189        0.037      334.103        3.855      866.188
12/08/2014  00:16:00     -103.925      -24.530       -5.876       18.659       24.872       15.189      348.176      618.638      230.713        0.632        0.060      106.780       13.577        0.016      334.139        3.914      866.195
12/08/2014  00:17:00     -101.479      -91.664        5.169       42.772       40.160       27.023     1829.483     1612.834      730.251        1.145        0.209      136.749       26.700        0.038      334.116        3.877      866.236
12/08/2014  00:18:00     -152.025     -116.496       -2.289       51.549       46.922       29.516     2657.321     2201.697      871.208        2.121        0.287      191.528       28.837        0.023      334.080        3.816      866.265
12/08/2014  00:19:00     -150.850      -95.919       -4.763       39.245       45.067       24.466     1540.175     2031.064      598.573        1.807        0.208      178.763       24.473        0.019      334.087        3.826      866.268
12/08/2014  00:20:00     -143.048      -19.228      -15.976       24.357       24.255       17.436      593.262      588.318      304.026        1.129        0.074      144.335       14.589        0.010      334.098        3.845      866.244
12/08/2014  00:21:00     -141.447       -0.978      -10.682       47.061       32.262       30.136     2214.711     1040.852      908.153        1.214        0.208      141.450       30.010        0.045      333.912        3.538      866.220
12/08/2014  00:22:00     -165.138      -42.317        5.112       60.123       47.289       29.039     3614.782     2236.293      843.245        1.789        0.335      170.473       24.702        0.021      333.882        3.487      866.202
12/08/2014  00:23:00     -205.077      -83.123       -3.364       75.745       55.306       31.692     5737.289     3058.708     1004.353        2.939        0.490      221.283       32.346        0.021      333.920        3.547      866.184
12/08/2014  00:24:00     -156.169        9.970       -6.446       58.186       54.662       30.031     3385.623     2987.892      901.846        1.590        0.364      156.487       28.740        0.034      333.983        3.656      866.175
12/08/2014  00:25:00     -186.167       -1.516      -20.266       37.896       53.515       16.596     1436.138     2863.857      275.414        1.982        0.229      186.173       16.458        0.008      333.989        3.664      866.182
12/08/2014  00:26:00     -125.916      -80.148        0.257       45.201       36.524       27.031     2043.173     1333.985      730.672        1.319        0.205      149.260       26.447        0.031      333.881        3.486      866.193
12/08/2014  00:27:00     -109.593      -59.050      -10.513       44.651       35.580       18.186     1993.727     1265.947      330.743        0.960        0.180      124.489       16.681        0.018      333.879        3.484      866.199
12/08/2014  00:28:00     -110.539      -28.214       -7.895       24.714       25.735       15.124      610.778      662.313      228.728        0.729        0.075      114.083        7.277        0.004      334.073        3.805      866.174
12/08/2014  00:29:00      -75.370       -1.936       -3.071       34.695       24.808       18.862     1203.771      615.423      355.767        0.393        0.109       75.395       20.265        0.072      334.021        3.719      866.139
12/08/2014  00:30:00      -80.026      -34.398        0.550       26.073       19.488       14.967      679.790      379.766      224.005        0.444        0.064       87.106       14.368        0.027      333.961        3.620      866.128
12/08/2014  00:31:00     -116.968      -35.164       -3.739       22.775       24.027       15.136      518.696      577.292      229.095        0.813        0.066      122.139       13.256        0.012      333.975        3.642      866.120
12/08/2014  00:32:00      -95.164      -17.455        1.490       41.577       24.936       22.048     1728.629      621.790      486.125        0.610        0.142       96.751       24.687        0.065      333.885        3.493      866.084
12/08/2014  00:33:00      -72.903      -34.740       -0.969       25.326       16.376       14.772      641.416      268.169      218.200        0.382        0.056       80.757       11.726        0.021      333.903        3.524      866.035
12/08/2014  00:34:00      -57.188      -26.236       -0.562       26.028       15.460       14.040      677.442      239.013      197.124        0.254        0.056       62.919       13.196        0.044      333.944        3.592      865.988
12/08/2014  00:35:00      -33.390      -27.830       -0.255       15.292       15.411       14.455      233.859      237.494      208.960        0.128        0.034       43.467       10.263        0.056      334.016        3.713      865.975
12/08/2014  00:36:00      -65.574      -44.635       -6.950       24.116       15.704        9.607      581.592      246.629       92.289        0.363        0.046       79.323        6.514        0.007      334.083        3.822      865.974
12/08/2014  00:37:00      -96.447      -37.981       -6.459       17.907       15.924       10.947      320.666      253.562      119.826        0.574        0.035      103.656       10.631        0.011      333.878        3.481      865.971
12/08/2014  00:38:00     -110.615       -1.517       -9.093       33.021       36.245       22.522     1090.388     1313.696      507.255        0.762        0.146      110.626       19.854        0.032      333.734        3.243      865.949
12/08/2014  00:39:00     -129.279       45.351      -14.902       52.541       36.765       27.020     2760.557     1351.633      730.093        1.192        0.242      137.003       22.566        0.027      333.848        3.431      865.913
12/08/2014  00:40:00      -96.477      -10.066      -17.616       36.000       35.667       22.659     1295.983     1272.134      513.415        0.640        0.154       97.001       17.927        0.034      333.783        3.324      865.864
12/08/2014  00:41:00      -66.401       -2.045        2.034       39.560       30.286       22.084     1565.024      917.264      487.721        0.369        0.149       66.432       20.558        0.096      333.828        3.400      865.836
12/08/2014  00:42:00      -16.159      -10.444       -0.517       36.153       21.427       19.361     1307.003      459.111      374.849        0.126        0.107       19.240       21.498        1.248      333.825        3.393      865.848
12/08/2014  00:43:00       -2.811      -17.068       15.368       20.336       23.880       15.851      413.550      570.266      251.251        0.088        0.062       17.298       11.362        0.431      333.932        3.571      865.892
12/08/2014  00:44:00      -70.016      -42.637       -5.093       31.838       15.550       15.790     1013.646      241.799      249.323        0.413        0.075       81.977       18.884        0.053      333.718        3.216      865.924
12/08/2014  00:45:00      -40.383      -34.355       -1.537       22.084       16.076       16.467      487.696      258.442      271.169        0.192        0.051       53.020       11.123        0.044      333.637        3.080      865.920
12/08/2014  00:46:00      -34.107      -27.314       -6.621       10.624       10.030        8.778      112.869      100.596       77.046        0.112        0.015       43.696        2.045        0.002      333.731        3.239      865.877
12/08/2014  00:47:00      -36.143      -17.859       -6.348       10.953        7.857        6.058      119.966       61.734       36.702        0.094        0.011       40.314        4.889        0.015      333.716        3.211      865.822
12/08/2014  00:48:00      -70.924      -19.572       -8.225       17.085       10.935        9.004      291.909      119.572       81.065        0.299        0.025       73.575        8.567        0.014      333.693        3.175      865.806
12/08/2014  00:49:00     -132.906      -46.206      -12.106       21.884       17.655       15.652      478.929      311.697      244.994        1.049        0.052      140.709        7.173        0.003      333.602        3.024      865.840
12/08/2014  00:50:00     -131.213      -54.523       -3.216       31.980       32.919       18.157     1022.704     1083.666      329.682        1.132        0.122      142.090       18.051        0.016      333.658        3.116      865.887
12/08/2014  00:51:00      -82.734      -19.023       -3.221       34.415       23.413       15.751     1184.427      548.187      248.100        0.460        0.099       84.893       15.433        0.033      333.729        3.234      865.939
12/08/2014  00:52:00      -40.068      -25.755       -7.663       21.303       18.179        9.224      453.823      330.478       85.075        0.160        0.043       47.631        5.670        0.014      333.791        3.338      865.975
12/08/2014  00:53:00       -6.017      -55.726       -1.383       18.826       16.845       13.919      354.421      283.749      193.741        0.199        0.042       56.050        7.168        0.016      334.247        4.094      866.010
12/08/2014  00:54:00      -49.703      -35.504       -5.763       24.710       27.406       10.419      610.590      751.087      108.561        0.262        0.074       61.081        9.097        0.022      334.204        4.022      866.027
12/08/2014  00:55:00      -83.003      -19.638       -5.287       31.402       18.818       13.232      986.097      354.113      175.080        0.441        0.076       85.295       13.746        0.026      333.767        3.297      866.030
12/08/2014  00:56:00     -139.129      -68.437        0.120       35.813       39.519       20.651     1282.581     1561.731      426.472        1.365        0.164      155.050       14.364        0.009      333.683        3.159      866.040
12/08/2014  00:57:00     -141.862      -68.510       -3.610       38.819       37.497       22.196     1506.881     1406.059      492.670        1.412        0.170      157.539       18.305        0.014      333.732        3.240      866.041
12/08/2014  00:58:00     -142.212      -56.715        3.303       37.986       32.692       22.484     1442.917     1068.750      505.542        1.323        0.151      153.103       19.693        0.017      333.703        3.189      866.026
12/08/2014  00:59:00     -137.053      -10.272      -14.704       42.353       34.425       23.956     1793.770     1185.110      573.906        1.133        0.178      137.437       26.102        0.036      333.640        3.089      866.024
12/08/2014  01:00:00     -174.945       -1.725      -19.872       32.387       35.647       22.580     1048.927     1270.724      509.877        1.692        0.141      174.953       21.224        0.015      333.560        2.956      866.043
12/08/2014  01:01:00     -104.439      -57.837        1.642       68.243       47.496       26.411     4657.080     2255.847      697.546        1.093        0.381      119.384       37.051        0.096      333.518        2.884      866.058
12/08/2014  01:02:00      -96.647      -20.429       -6.204       36.558       29.490       20.536     1336.456      869.676      421.737        0.621        0.131       98.782       21.265        0.046      333.450        2.772      866.082
12/08/2014  01:03:00     -136.200        8.575      -17.376       26.041       20.434       14.812      678.133      417.563      219.384        1.012        0.066      136.469       13.452        0.010      333.562        2.958      866.094
12/08/2014  01:04:00     -149.723      -18.878      -14.239       31.599       23.623       17.621      998.468      558.065      310.504        1.242        0.093      150.908       13.085        0.008      333.654        3.110      866.092
12/08/2014  01:05:00     -154.555      -16.161       -5.543       64.274       35.119       32.015     4131.171     1233.313     1024.930        1.528        0.319      155.397       36.002        0.054      333.528        2.900      866.086
12/08/2014  01:06:00     -217.627       10.866      -16.874       58.363       46.003       28.001     3406.273     2116.279      784.069        2.703        0.315      217.898       29.007        0.018      333.467        2.796      866.095
12/08/2014  01:07:00     -185.498      -17.377      -14.474       60.114       52.715       30.807     3613.641     2778.884      949.092        2.113        0.367      186.311       34.222        0.034      333.392        2.674      866.130
12/08/2014  01:08:00     -168.315       11.895      -18.770       57.272       42.020       26.331     3280.061     1765.696      693.309        1.728        0.287      168.735       30.248        0.032      333.392        2.676      866.175
12/08/2014  01:09:00     -134.830      -17.432      -20.642       29.021       21.037       17.675      842.219      442.536      312.416        1.025        0.080      135.953       11.760        0.007      333.445        2.763      866.201
12/08/2014  01:10:00     -108.682      -17.637      -11.081       23.760       18.792       14.893      564.521      353.152      221.809        0.669        0.057      110.104       13.833        0.016      333.499        2.853      866.214
12/08/2014  01:11:00      -83.751      -34.402       -4.387       25.795       19.240       13.300      665.402      370.185      176.898        0.471        0.061       90.542       12.184        0.018      333.553        2.943      866.226
12/08/2014  01:12:00     -184.330      -54.080       -7.181       36.974       24.861       15.999     1367.049      618.056      255.954        1.960        0.112      192.100       11.672        0.004      333.530        2.904      866.241
12/08/2014  01:13:00     -167.607      -76.383       -7.133       25.381       22.976       16.891      644.175      527.913      285.299        1.772        0.073      184.191       10.954        0.004      333.525        2.896      866.257
12/08/2014  01:14:00     -147.913       -8.947       -8.324       35.518       24.310       23.130     1261.559      590.981      534.980        1.221        0.119      148.183       18.808        0.016      333.578        2.985      866.247
12/08/2014  01:15:00     -141.960        0.287      -17.523       17.516       21.444       16.878      306.822      459.845      284.865        1.076        0.053      141.961        7.670        0.003      333.599        3.018      866.232
12/08/2014  01:16:00     -145.730      -11.655      -18.531       42.228       28.949       24.095     1783.190      838.050      580.571        1.246        0.160      146.196       18.985        0.017      333.463        2.794      866.230
12/08/2014  01:17:00      -72.790       16.600       -1.107       60.944       47.386       32.339     3714.114     2245.448     1045.819        0.629        0.350       74.659       35.282        0.223      333.476        2.816      866.229
12/08/2014  01:18:00     -178.999       60.523      -15.242       65.072       44.046       37.646     4234.327     1940.043     1417.194        2.176        0.380      188.954       25.007        0.018      333.620        3.050      866.230
12/08/2014  01:19:00     -231.889       79.229      -22.372       66.464       48.359       37.937     4417.466     2338.626     1439.204        3.437        0.410      245.050       33.363        0.019      333.721        3.216      866.230
12/08/2014  01:20:00     -167.693       32.399      -21.661       40.544       46.434       31.876     1643.777     2156.134     1016.097        1.723        0.241      170.794       26.325        0.024      333.654        3.109      866.248
12/08/2014  01:21:00     -169.740      -29.480      -16.059       50.523       66.886       32.947     2552.540     4473.734     1085.528        1.902        0.406      172.281       29.045        0.028      333.547        2.930      866.299
12/08/2014  01:22:00     -170.757      -27.368      -22.743       51.640       42.018       30.970     2666.721     1765.541      959.160        1.791        0.270      172.936       30.611        0.031      333.453        2.776      866.352
12/08/2014  01:23:00     -103.426        0.587       -5.433       35.870       28.537       16.739     1286.687      814.340      280.200        0.655        0.119      103.428       14.412        0.019      333.488        2.834      866.380
12/08/2014  01:24:00     -111.065        4.027      -11.582       32.880       25.757       16.775     1081.102      663.407      281.405        0.726        0.101      111.138       14.528        0.017      333.552        2.939      866.402
12/08/2014  01:25:00     -140.469       22.389      -18.287       30.351       23.317       14.239      921.179      543.697      202.738        1.112        0.083      142.242       11.310        0.006      333.611        3.039      866.420
12/08/2014  01:26:00     -157.907       51.536      -21.831       29.909       21.541       19.618      894.539      463.995      384.850        1.490        0.087      166.104        7.280        0.002      333.599        3.019      866.407
12/08/2014  01:27:00     -123.003       27.531      -17.963       31.645       31.403       20.323     1001.431      986.118      413.036        0.931        0.120      126.047       16.953        0.018      333.623        3.058      866.383
12/08/2014  01:28:00     -177.683       14.165      -21.572       40.342       29.123       22.756     1627.477      848.161      517.847        1.761        0.150      178.247       21.340        0.014      333.580        2.987      866.397
12/08/2014  01:29:00     -199.243      -16.467      -27.154       52.404       48.573       27.544     2746.214     2359.333      758.685        2.328        0.293      199.922       28.047        0.020      333.553        2.941      866.447
12/08/2014  01:30:00     -168.915        8.227      -21.234       51.494       50.189       31.332     2651.649     2518.949      981.675        1.760        0.308      169.115       28.760        0.029      333.563        2.958      866.511
12/08/2014  01:31:00      -99.686       16.683      -10.887       52.073       18.598       19.028     2711.590      345.894      362.066        0.688        0.171      101.072       23.368        0.053      333.634        3.077      866.507
12/08/2014  01:32:00      -69.925       26.806       -4.976       22.970       16.823       13.055      527.607      283.003      170.433        0.331        0.049       74.887        9.257        0.015      333.831        3.405      866.470
12/08/2014  01:33:00      -58.498       18.618       -7.798       17.014       11.803       13.157      289.468      139.305      173.115        0.222        0.030       61.390       10.426        0.029      333.842        3.423      866.453
12/08/2014  01:34:00       -5.787        7.624        1.539       30.782       12.880       10.191      947.518      165.896      103.861        0.066        0.061        9.572       13.110        1.876      333.810        3.368      866.444
12/08/2014  01:35:00       46.974        8.528        3.693       12.629       14.516       12.826      159.501      210.725      164.515        0.141        0.027       47.742        9.117        0.036      333.926        3.562      866.450
12/08/2014  01:36:00       40.027       10.291        9.823       17.532        7.543       18.720      307.371       56.899      350.427        0.126        0.036       41.329       15.234        0.136      333.799        3.351      866.462
12/08/2014  01:37:00       19.788      -16.265        6.831       10.589       15.862       12.842      112.124      251.604      164.923        0.062        0.026       25.615       11.376        0.197      333.858        3.450      866.479
12/08/2014  01:38:00       19.343       43.583       37.435       20.646       42.019       33.721      426.261     1765.563     1137.079        0.350        0.166       47.682       34.963        0.538      333.900        3.518      866.496
12/08/2014  01:39:00       59.462       56.832       43.147       42.424       42.192       32.843     1799.806     1780.185     1078.633        0.664        0.233       82.254       27.774        0.114      333.564        2.962      866.525
12/08/2014  01:40:00       41.948       38.832       26.947       21.797       18.923       30.454      475.095      358.071      927.438        0.288        0.088       57.162       16.885        0.087      333.527        2.900      866.545
12/08/2014  01:41:00       45.934       41.892       12.050       10.848       14.355       17.132      117.676      206.079      293.518        0.231        0.031       62.168       12.303        0.039      333.458        2.786      866.557
12/08/2014  01:42:00       52.521       48.974        2.468       16.611       12.636       14.083      275.918      159.675      198.327        0.290        0.032       71.812       10.636        0.022      333.360        2.624      866.558
12/08/2014  01:43:00       59.881       48.173        4.693       16.992       13.150        9.759      288.711      172.924       95.232        0.324        0.028       76.852        4.937        0.004      333.393        2.677      866.565
12/08/2014  01:44:00       76.958       55.513        0.685       16.435       18.712       10.944      270.123      350.124      119.781        0.487        0.037       94.891       10.776        0.013      333.387        2.669      866.607
12/08/2014  01:45:00       22.850        8.451        8.832       31.435       21.182       13.509      988.133      448.688      182.491        0.115        0.081       24.362        8.784        0.130      333.437        2.752      866.657
12/08/2014  01:46:00       14.130       -6.827        1.480       18.805       23.664       16.270      353.646      560.006      264.727        0.071        0.059       15.693       19.070        1.477      333.454        2.780      866.688
12/08/2014  01:47:00       71.886       40.659       25.896       19.238       19.090       20.887      370.117      364.427      436.285        0.433        0.059       82.587       15.682        0.036      333.382        2.660      866.695
12/08/2014  01:48:00       31.150       33.647       38.029       33.377       18.267       16.309     1113.991      333.686      265.978        0.263        0.086       45.853        8.538        0.035      333.317        2.554      866.717
12/08/2014  01:49:00        7.224       18.063       40.276       19.187       25.389       14.906      368.135      644.599      222.175        0.162        0.062       19.454       10.253        0.278      333.429        2.737      866.735
12/08/2014  01:50:00       37.640      -41.409        7.264       34.648       47.781       27.377     1200.512     2282.982      749.501        0.371        0.212       55.960       30.321        0.294      333.510        2.870      866.726
12/08/2014  01:51:00       26.729      -28.450        8.048       27.535       28.885       20.969      758.174      834.320      439.704        0.181        0.102       39.037       21.591        0.306      333.680        3.154      866.731
12/08/2014  01:52:00      -18.585      -39.853       -3.832       41.245       21.553       12.429     1701.116      464.549      154.472        0.213        0.116       43.974       15.816        0.129      333.764        3.292      866.765
12/08/2014  01:53:00      -39.885      -21.979        3.903       24.521        9.361        9.606      601.258       87.635       92.268        0.143        0.039       45.539       12.401        0.074      333.530        2.904      866.813
12/08/2014  01:54:00      -75.782      -26.738       -5.968        8.763       13.081        6.916       76.789      171.120       47.836        0.339        0.015       80.361        6.447        0.006      333.565        2.963      866.850
12/08/2014  01:55:00      -97.492      -28.403       -8.245       20.560       14.376       10.986      422.698      206.670      120.689        0.556        0.038      101.545        8.755        0.007      333.486        2.831      866.876
12/08/2014  01:56:00      -41.927        2.081       -5.271       26.986       22.175        9.029      728.265      491.725       81.518        0.155        0.065       41.978        8.946        0.045      333.563        2.959      866.880
12/08/2014  01:57:00       63.428       34.154       16.004       26.011       15.710       15.907      676.552      246.812      253.033        0.331        0.059       72.039        8.566        0.014      333.749        3.269      866.869
12/08/2014  01:58:00       13.936        0.912       15.428       19.994       23.390       12.845      399.780      547.076      164.992        0.077        0.056       13.966        6.324        0.205      333.721        3.221      866.880
12/08/2014  01:59:00       44.779      -31.341        7.424       35.334       30.065       14.263     1248.493      903.882      203.432        0.270        0.118       54.657       17.870        0.107      333.868        3.466      866.909
12/08/2014  02:00:00       94.106      -53.338       -2.502       27.144       30.859       14.862      736.774      952.302      220.891        0.681        0.095      108.171       17.107        0.025      333.988        3.664      866.902
12/08/2014  02:01:00      -14.200      -42.018        9.373       41.413       31.014       25.719     1715.016      961.895      661.488        0.270        0.167       44.353       17.283        0.152      333.869        3.468      866.905
12/08/2014  02:02:00      -34.052      -18.085       -1.794       16.670       18.444       10.216      277.883      340.181      104.371        0.111        0.036       38.557       12.361        0.103      333.699        3.184      866.911
12/08/2014  02:03:00       19.403        3.662       10.494       26.888       20.897       15.679      722.986      436.703      245.841        0.095        0.070       19.745       16.593        0.706      333.861        3.454      866.923
12/08/2014  02:04:00       16.208       27.689       28.766       21.920       18.726       18.764      480.471      350.672      352.079        0.152        0.059       32.084       13.018        0.165      333.814        3.376      866.922
12/08/2014  02:05:00       84.917       60.936       12.423       20.672       17.199       18.794      427.347      295.822      353.220        0.608        0.054      104.519        9.908        0.009      333.882        3.488      866.912
12/08/2014  02:06:00       58.077       33.022        7.149       21.504       24.809       20.412      462.415      615.472      416.665        0.300        0.075       66.809       16.339        0.060      333.753        3.274      866.902
12/08/2014  02:07:00       61.886       28.027        1.388       35.192       23.364       22.918     1238.454      545.860      525.217        0.346        0.115       67.936       13.339        0.039      333.721        3.219      866.901
12/08/2014  02:08:00       54.000       17.907        6.824       20.133       14.539       13.366      405.336      211.373      178.660        0.204        0.040       56.891        6.257        0.012      333.596        3.015      866.914
12/08/2014  02:09:00       93.248       49.027       13.399       27.131       17.061       20.776      736.068      291.086      431.623        0.637        0.073      105.351       14.936        0.020      333.507        2.867      866.898
12/08/2014  02:10:00       65.621       28.583        7.711       25.979       16.063       16.960      674.895      258.017      287.643        0.320        0.061       71.576       10.697        0.022      333.367        2.636      866.918
12/08/2014  02:11:00       40.117       30.111        6.474       17.051       20.263       11.419      290.725      410.579      130.395        0.169        0.042       50.160        8.990        0.032      333.330        2.574      866.942
12/08/2014  02:12:00       50.281       25.394        2.438       14.131       10.721       10.236      199.693      114.948      104.769        0.180        0.021       56.330        4.496        0.006      333.419        2.722      866.942
12/08/2014  02:13:00       80.386       33.722        3.377       16.734       14.966       12.405      280.030      223.967      153.875        0.413        0.033       87.173        9.615        0.012      333.428        2.734      866.919
12/08/2014  02:14:00       47.824       21.419       12.885       37.930       22.614       17.893     1438.666      511.372      320.173        0.259        0.114       52.402        6.532        0.016      333.473        2.810      866.887
12/08/2014  02:15:00       49.126       20.082       20.230       28.366       26.949       21.130      804.626      726.248      446.479        0.260        0.099       53.072       16.288        0.094      333.526        2.899      866.860
12/08/2014  02:16:00      -12.075      -43.470       -6.223       38.994       20.433       11.983     1520.531      417.505      143.592        0.208        0.104       45.116        9.178        0.041      333.612        3.041      866.868
12/08/2014  02:17:00       17.024      -29.042       -0.740       37.016       26.285       18.434     1370.160      690.879      339.813        0.177        0.120       33.664       16.076        0.228      333.548        2.935      866.890
12/08/2014  02:18:00       21.690        5.572       33.881       22.463       39.676       29.743      504.595     1574.151      884.676        0.231        0.148       22.394       31.491        1.977      333.551        2.940      866.886
12/08/2014  02:19:00       23.156       42.096       53.874       37.547       33.853       27.439     1409.785     1146.058      752.875        0.426        0.165       48.044       24.854        0.268      333.587        3.000      866.890
12/08/2014  02:20:00       15.325       41.992       31.637       40.466       36.241       34.976     1637.474     1313.404     1223.314        0.359        0.209       44.701       22.188        0.246      333.555        2.946      866.913
12/08/2014  02:21:00      -57.234      -21.551       -7.148       41.065       31.135       17.165     1686.345      969.375      294.648        0.337        0.148       61.157       12.755        0.043      333.528        2.900      866.950
12/08/2014  02:22:00      -81.142      -45.036       -2.711       23.935       28.858       14.007      572.864      832.780      196.190        0.511        0.080       92.802       10.214        0.012      333.349        2.605      866.948
12/08/2014  02:23:00      -32.909       21.455       -4.714       31.382       13.003       10.615      984.835      169.091      112.670        0.142        0.063       39.285       10.376        0.070      333.422        2.726      866.920
12/08/2014  02:24:00       48.996       24.012       11.466       31.859       23.589       20.871     1014.993      556.435      435.615        0.256        0.100       54.563       18.962        0.121      333.696        3.180      866.887
12/08/2014  02:25:00       14.467       -1.894       10.358       14.302       16.268        8.646      204.534      264.645       74.757        0.043        0.027       14.590        6.027        0.171      333.689        3.170      866.898
12/08/2014  02:26:00      -63.603      -30.656        0.593       48.790       30.941       21.563     2380.501      957.349      464.949        0.439        0.190       70.605       14.202        0.040      333.520        2.889      866.930
12/08/2014  02:27:00      -55.734      -47.798        5.002       37.157       30.724       17.246     1380.646      943.947      297.429        0.402        0.131       73.423       16.651        0.051      333.492        2.843      866.923
12/08/2014  02:28:00       15.468      -12.339        3.557       16.886       20.055       17.253      285.138      402.196      297.665        0.069        0.049       19.787        7.866        0.158      333.625        3.063      866.887
12/08/2014  02:29:00       15.680       31.302       12.696       22.797       16.697       13.194      519.685      278.806      174.080        0.118        0.049       35.010        9.430        0.073      333.549        2.936      866.864
12/08/2014  02:30:00      -40.437      -18.562       -5.574       12.050       12.989        7.855      145.197      168.711       61.708        0.119        0.019       44.494        2.885        0.004      333.602        3.025      866.880
12/08/2014  02:31:00      -21.196       23.501        2.275       22.874       23.998       13.126      523.235      575.893      172.282        0.114        0.064       31.648       11.177        0.125      333.576        2.981      866.898
12/08/2014  02:32:00       -0.979       36.889       60.391       22.331       26.676       24.297      498.681      711.602      590.357        0.340        0.090       36.902       20.143        0.298      333.570        2.971      866.893
12/08/2014  02:33:00        1.580       51.926       50.886       21.066       25.797       18.920      443.768      665.476      357.955        0.338        0.073       51.950       13.917        0.072      333.619        3.053      866.902
12/08/2014  02:34:00       13.922       -6.173        9.360       19.990       15.388       15.183      399.597      236.797      230.538        0.059        0.043       15.229       12.365        0.659      333.634        3.078      866.928
12/08/2014  02:35:00        3.138       -8.739       11.583       16.907       17.149       10.500      285.861      294.085      110.250        0.046        0.035        9.285        7.686        0.685      333.591        3.006      866.951
12/08/2014  02:36:00      -50.427       -2.021       -2.016       14.320        7.035        8.709      205.050       49.489       75.842        0.144        0.017       50.467        8.663        0.029      333.474        2.811      866.963
12/08/2014  02:37:00      -38.608      -12.376       -0.932       24.314       11.942        8.189      591.154      142.618       67.063        0.122        0.040       40.543       10.602        0.068      333.451        2.774      866.955
12/08/2014  02:38:00      -16.483      -27.075        7.469       24.919       14.665       13.529      620.941      215.055      183.025        0.104        0.051       31.698       15.107        0.227      333.441        2.756      866.941
12/08/2014  02:39:00      -16.328      -14.878       -1.779       19.087        9.945       11.372      364.305       98.899      129.326        0.054        0.030       22.090       13.073        0.350      333.488        2.836      866.942
12/08/2014  02:40:00      -35.006      -27.632        1.010       24.031       23.584       18.495      577.481      556.202      342.064        0.173        0.074       44.597        3.902        0.008      333.618        3.052      866.963
12/08/2014  02:41:00     -145.544      -56.550       -4.848       44.925       35.471       16.981     2018.222     1258.174      288.349        1.398        0.178      156.144       11.177        0.005      333.325        2.565      866.984
12/08/2014  02:42:00     -123.895      -48.238       -0.315       59.155       38.553       23.948     3499.343     1486.334      573.514        1.162        0.278      132.955       19.750        0.022      333.248        2.437      866.982
12/08/2014  02:43:00      -51.680      -16.236        9.490       32.403       28.964       17.241     1049.946      838.911      297.258        0.260        0.109       54.170       17.273        0.102      333.225        2.400      866.954
12/08/2014  02:44:00       11.541       39.297       26.740       56.649       22.020       17.708     3209.063      484.885      313.557        0.320        0.200       40.957        9.804        0.057      333.334        2.582      866.918
12/08/2014  02:45:00       70.857       50.649       23.382       20.010       17.320       13.176      400.389      299.994      173.616        0.450        0.044       87.098        8.438        0.009      333.355        2.616      866.902
12/08/2014  02:46:00       20.627      -15.178        2.441       17.040       36.931       13.473      290.359     1363.921      181.532        0.125        0.092       25.610       18.251        0.508      333.351        2.609      866.922
12/08/2014  02:47:00      -37.623      -38.320        4.982       45.573       24.726       21.394     2076.864      611.390      457.712        0.303        0.157       53.702       17.831        0.110      333.420        2.722      866.943
12/08/2014  02:48:00      -96.581      -73.026        4.567       60.383       39.482       31.748     3646.068     1558.842     1007.910        1.045        0.311      121.081       29.531        0.059      333.294        2.514      866.951
12/08/2014  02:49:00      -90.457      -62.121        5.374       51.382       39.236       26.320     2640.144     1539.448      692.732        0.847        0.244      109.734       20.553        0.035      333.303        2.529      866.962
12/08/2014  02:50:00      -89.234      -65.367       -0.385       31.439       23.211       20.792      988.437      538.737      432.307        0.710        0.098      110.614       18.152        0.027      333.463        2.794      866.936
12/08/2014  02:51:00      -44.039      -34.986       -0.031       18.206       21.321       11.616      331.453      454.577      134.925        0.204        0.046       56.244        8.087        0.021      333.516        2.881      866.879
12/08/2014  02:52:00       40.289       11.627        7.335       44.242       26.207       16.686     1957.365      686.809      278.434        0.237        0.146       41.933       12.218        0.085      333.600        3.020      866.829
12/08/2014  02:53:00       -6.602      -49.775       -5.994       52.750       36.207       21.625     2782.569     1310.929      467.638        0.356        0.228       50.211       20.285        0.163      333.781        3.320      866.797
12/08/2014  02:54:00      -81.070      -17.016        3.236       28.906       23.346       21.061      835.574      545.032      443.576        0.435        0.091       82.837       19.897        0.058      333.603        3.026      866.791
12/08/2014  02:55:00      -85.307      -29.842        3.546       34.946       36.119       18.948     1221.238     1304.581      359.042        0.553        0.144       90.376       17.387        0.037      333.351        2.608      866.786
12/08/2014  02:56:00      -62.792      -28.910       -3.603       24.999       23.591       14.212      624.974      556.551      201.989        0.309        0.069       69.128       10.987        0.025      333.233        2.411      866.768
12/08/2014  02:57:00       -2.130       -5.466       19.315       20.805       28.710       19.333      432.832      824.275      373.778        0.102        0.082        5.866       20.867       12.653      333.296        2.518      866.742
12/08/2014  02:58:00       -3.057       46.756       69.469       20.288       24.326       16.592      411.609      591.766      275.288        0.415        0.064       46.855       14.635        0.098      333.475        2.814      866.686
12/08/2014  02:59:00        1.722       42.258       60.955       19.235       22.288       13.129      369.993      496.775      172.375        0.327        0.052       42.293        9.993        0.056      333.375        2.649      866.657
12/08/2014  03:00:00       16.652       28.075       12.780       16.555       18.613       15.812      274.070      346.430      250.022        0.105        0.044       32.642       10.044        0.095      333.389        2.672      866.647
12/08/2014  03:01:00      -47.912       32.553       -7.706       38.467       24.748        9.696     1479.724      612.445       94.014        0.280        0.109       57.925        9.179        0.025      333.399        2.688      866.660
12/08/2014  03:02:00      -48.848       -4.231       -2.697       20.344       29.897       20.237      413.887      893.836      409.545        0.206        0.086       49.031       15.937        0.106      333.220        2.391      866.699
12/08/2014  03:03:00      -85.248       22.062      -12.888       60.716       37.516       24.112     3686.464     1407.427      581.383        0.680        0.284       88.057       25.110        0.081      333.158        2.289      866.714
12/08/2014  03:04:00     -146.719       32.623       -4.869       52.208       35.926       27.169     2725.644     1290.698      738.141        1.368        0.238      150.302       25.817        0.030      333.151        2.278      866.708
12/08/2014  03:05:00     -147.727       -8.942      -17.099       50.807       41.973       29.497     2581.391     1761.743      870.079        1.370        0.261      147.997       29.789        0.041      333.137        2.256      866.699
12/08/2014  03:06:00     -155.187       23.163      -12.846       56.656       38.256       29.700     3209.953     1463.532      882.072        1.517        0.278      156.906       32.135        0.042      333.120        2.225      866.696
12/08/2014  03:07:00     -116.714       25.893      -11.781       46.622       27.722       23.010     2173.616      768.517      529.448        0.895        0.174      119.551       21.510        0.032      333.127        2.239      866.693
12/08/2014  03:08:00     -102.070       -6.401      -11.581       23.829       27.754       11.809      567.835      770.263      139.454        0.604        0.074      102.270        6.481        0.004      333.224        2.396      866.703
12/08/2014  03:09:00     -171.488      -27.591      -19.241       51.526       52.525       23.290     2654.900     2758.910      542.425        1.825        0.298      173.693       28.258        0.026      333.203        2.363      866.735
12/08/2014  03:10:00     -216.818       23.972      -23.864       51.125       41.718       29.610     2613.734     1740.386      876.745        2.669        0.262      218.139       26.749        0.015      333.090        2.174      866.788
12/08/2014  03:11:00     -157.940      -18.723      -19.025       59.584       46.875       36.077     3550.244     2197.287     1301.534        1.635        0.352      159.046       33.810        0.045      333.155        2.283      866.808
12/08/2014  03:12:00      -90.503       -3.740       -2.158       58.526       48.368       33.553     3425.338     2339.434     1125.771        0.755        0.345       90.580       37.818        0.174      333.136        2.254      866.819
12/08/2014  03:13:00     -109.980       -5.037       -9.009       41.531       37.073       23.105     1724.822     1374.381      533.862        0.792        0.182      110.095       23.308        0.045      333.167        2.304      866.807
12/08/2014  03:14:00     -108.386      -39.408       -6.007       32.826       32.305       17.169     1077.543     1043.644      294.790        0.788        0.121      115.328        8.044        0.005      333.114        2.217      866.814
12/08/2014  03:15:00     -187.997       -2.749      -25.486       33.151       32.734       24.268     1098.991     1071.523      588.949        1.938        0.138      188.017       21.526        0.013      333.033        2.081      866.816
12/08/2014  03:16:00     -152.528       17.144      -16.882       55.466       32.294       23.124     3076.452     1042.910      534.730        1.425        0.233      153.488       28.983        0.036      332.949        1.945      866.811
12/08/2014  03:17:00     -128.617       42.270       -6.666       50.421       26.527       25.567     2542.294      703.658      653.690        1.114        0.195      135.384       20.949        0.024      333.156        2.287      866.793
12/08/2014  03:18:00     -102.481      -12.937       -7.502       40.048       22.915       23.258     1603.823      525.111      540.936        0.670        0.133      103.294       21.420        0.043      333.175        2.318      866.805
12/08/2014  03:19:00      -97.540      -18.284       -3.338       30.016       21.448       15.181      900.962      460.013      230.477        0.573        0.080       99.239       16.650        0.028      333.217        2.387      866.810
12/08/2014  03:20:00      -92.547      -30.019       -7.815       31.934       22.144       18.136     1019.786      490.364      328.908        0.568        0.092       97.294       14.367        0.022      333.262        2.461      866.803
12/08/2014  03:21:00     -119.125      -28.149      -19.835       15.788       20.124       13.695      249.274      404.972      187.546        0.811        0.042      122.406       11.336        0.009      333.167        2.305      866.791
12/08/2014  03:22:00      -79.407      -19.483       -9.514       13.857       12.808        7.650      192.010      164.056       58.529        0.360        0.021       81.762        5.819        0.005      333.169        2.308      866.785
12/08/2014  03:23:00      -52.507      -33.977       -5.474       11.940        9.285        8.298      142.556       86.219       68.850        0.212        0.015       62.542        7.605        0.015      333.260        2.456      866.773
12/08/2014  03:24:00      -22.935      -22.221        0.074       16.088        7.663        9.096      258.814       58.720       82.738        0.071        0.020       31.935        9.327        0.085      333.395        2.680      866.758
12/08/2014  03:25:00      -56.454      -46.562       -1.926       18.458       11.804        8.133      340.709      139.344       66.147        0.295        0.027       73.179        5.576        0.006      333.459        2.785      866.759
12/08/2014  03:26:00     -116.964      -58.969       -7.471       15.281       12.646       11.287      233.501      159.920      127.405        0.887        0.026      130.988        8.315        0.004      333.251        2.443      866.775
12/08/2014  03:27:00     -134.707      -35.736       -5.298       21.918       19.215       11.320      480.393      369.216      128.154        1.021        0.049      139.366        8.135        0.003      333.244        2.431      866.792
12/08/2014  03:28:00     -125.925       -8.283      -12.218       35.885       31.215       24.447     1287.761      974.363      597.657        0.947        0.143      126.197       19.120        0.023      333.117        2.223      866.793
12/08/2014  03:29:00      -94.848       30.357       -6.730       46.986       30.219       23.914     2207.692      913.200      571.880        0.683        0.185       99.587       23.887        0.058      333.197        2.354      866.785
12/08/2014  03:30:00     -124.023       53.302       -3.346       48.092       26.099       29.914     2312.823      681.176      894.862        1.106        0.194      134.992       25.396        0.035      333.400        2.688      866.771
12/08/2014  03:31:00     -107.776       -1.954       -6.981       42.679       44.715       24.888     1821.462     1999.404      619.396        0.805        0.222      107.794       23.210        0.046      333.296        2.518      866.774
12/08/2014  03:32:00     -111.589       -1.998       -6.243       43.891       46.227       27.239     1926.385     2136.981      741.960        0.865        0.240      111.607       14.625        0.017      333.075        2.153      866.778
12/08/2014  03:33:00     -116.332        1.761      -15.482       36.113       37.428       21.118     1304.138     1400.884      445.968        0.846        0.158      116.345       18.324        0.025      333.097        2.189      866.772
12/08/2014  03:34:00     -117.014      -32.708      -10.542       26.438       33.864       17.362      698.974     1146.769      301.445        0.851        0.107      121.499       11.208        0.009      333.097        2.190      866.757
12/08/2014  03:35:00     -182.336      -20.837      -20.601       40.622       45.310       18.077     1650.168     2052.959      326.768        1.907        0.201      183.523       16.700        0.008      332.979        1.994      866.757
12/08/2014  03:36:00     -203.560       57.528      -22.753       50.476       42.509       27.684     2547.779     1806.992      766.394        2.519        0.256      211.533       19.261        0.008      332.937        1.923      866.743
12/08/2014  03:37:00     -182.819       37.894      -17.495       48.018       42.045       27.691     2305.768     1767.743      766.813        2.000        0.242      186.705       20.632        0.012      333.032        2.081      866.737
12/08/2014  03:38:00     -185.238      -65.720      -28.994       29.769       38.475       23.024      886.178     1480.325      530.111        2.118        0.145      196.551       10.802        0.003      333.077        2.156      866.771
12/08/2014  03:39:00     -120.205      -25.617        0.311       38.168       45.056       24.593     1456.787     2030.055      604.799        0.960        0.205      122.904       21.574        0.031      333.018        2.059      866.797
12/08/2014  03:40:00     -116.369       23.958       -8.456       17.017       19.288       13.458      289.589      372.023      181.118        0.751        0.042      118.810        8.928        0.006      333.131        2.243      866.780
12/08/2014  03:41:00     -160.148       51.032      -14.435       58.102       43.555       24.392     3375.858     1897.045      594.950        1.716        0.293      168.083       18.810        0.013      333.255        2.450      866.760
12/08/2014  03:42:00     -173.750       24.915      -14.398       47.130       32.901       21.309     2221.273     1082.446      454.067        1.739        0.188      175.527       16.141        0.008      333.351        2.606      866.724
12/08/2014  03:43:00      -35.552      -35.066       -2.372       29.968       22.891       14.420      898.055      524.014      207.945        0.206        0.082       49.935       15.891        0.101      333.361        2.625      866.667
12/08/2014  03:44:00     -130.294      -51.965       -1.465       59.863       24.006       14.814     3583.551      576.274      219.459        1.203        0.219      140.274       20.900        0.022      333.398        2.686      866.664
12/08/2014  03:45:00     -167.548      -47.442      -13.230       39.225       22.020       24.686     1538.606      484.860      609.416        1.656        0.132      174.135       23.567        0.018      333.259        2.455      866.677
12/08/2014  03:46:00     -152.393      -33.197      -11.395       34.312       24.134       16.810     1177.306      582.445      282.563        1.325        0.102      155.967       17.499        0.013      333.175        2.317      866.673
12/08/2014  03:47:00     -196.386       13.226      -23.052       33.238       25.648       17.375     1104.764      657.799      301.885        2.067        0.103      196.831       15.870        0.007      333.263        2.462      866.651
12/08/2014  03:48:00     -149.351      -27.434      -17.773       29.282       33.702       18.772      857.463     1135.832      352.378        1.286        0.117      151.850       14.060        0.009      333.232        2.411      866.635
12/08/2014  03:49:00      -95.884      -33.720        4.422       56.743       44.542       23.740     3219.712     1983.955      563.594        0.806        0.288      101.641       29.079        0.082      333.212        2.378      866.648
12/08/2014  03:50:00     -114.094       15.259      -10.566       19.631       17.587       11.787      385.395      309.300      138.942        0.710        0.042      115.110        8.228        0.005      333.172        2.313      866.654
12/08/2014  03:51:00     -133.074       13.558      -18.503       23.011       19.859       13.195      529.492      394.360      174.100        0.967        0.055      133.763        5.102        0.001      333.130        2.244      866.633
12/08/2014  03:52:00     -149.640       32.570       -8.396       35.695       28.794       16.738     1274.159      829.101      280.173        1.295        0.119      153.143       14.285        0.009      333.272        2.478      866.589
12/08/2014  03:53:00     -151.642       24.456      -17.152       38.006       28.371       15.312     1444.448      804.916      234.466        1.319        0.124      153.602       11.115        0.005      333.488        2.836      866.592
12/08/2014  03:54:00      -79.709      -28.311       -6.016       33.144       30.844       16.743     1098.520      951.366      280.331        0.476        0.117       84.588       18.235        0.046      333.326        2.568      866.615
12/08/2014  03:55:00      -83.825      -33.160        5.143       30.090       20.220       14.239      905.414      408.841      202.754        0.483        0.076       90.145       15.013        0.028      333.311        2.544      866.634
12/08/2014  03:56:00     -109.002      -17.836      -11.293       21.029       14.524       13.839      442.233      210.957      191.529        0.659        0.042      110.452        8.804        0.006      333.340        2.589      866.644
12/08/2014  03:57:00     -114.040      -49.180       -8.574       11.733       17.024       10.513      137.675      289.814      110.527        0.802        0.027      124.192        5.651        0.002      333.321        2.559      866.643
12/08/2014  03:58:00     -118.824      -50.625      -15.506        9.639       11.932        8.954       92.908      142.374       80.168        0.862        0.016      129.159        3.587        0.001      333.295        2.517      866.623
12/08/2014  03:59:00     -117.732      -37.671       -4.469       23.584       20.201       15.570      556.203      408.081      242.430        0.825        0.060      123.612       13.913        0.013      333.369        2.637      866.619
12/08/2014  04:00:00     -133.646      -37.072       -4.785       27.649       15.695       14.803      764.455      246.330      219.128        1.024        0.061      138.693       14.459        0.011      333.365        2.632      866.615
12/08/2014  04:01:00     -113.291      -13.610       -7.007       56.265       24.132       17.374     3165.743      582.361      301.850        0.856        0.202      114.105       24.795        0.047      333.291        2.510      866.594
12/08/2014  04:02:00      -97.709       -3.855        1.215       46.649       26.291       24.288     2176.175      691.203      589.885        0.651        0.173       97.785       26.682        0.074      333.325        2.566      866.559
12/08/2014  04:03:00      -73.902      -14.141        0.543       35.254       22.412       15.399     1242.851      502.280      237.114        0.382        0.099       75.243       16.063        0.046      333.346        2.598      866.521
12/08/2014  04:04:00     -103.344      -33.613       -3.835       27.451       18.321       17.298      753.536      335.641      299.220        0.661        0.069      108.673       15.464        0.020      333.312        2.544      866.492
12/08/2014  04:05:00      -94.898      -32.413       -1.344       20.533       22.083       13.261      421.613      487.638      175.864        0.557        0.054      100.281        9.316        0.009      333.356        2.618      866.470
12/08/2014  04:06:00     -103.484      -29.489       -2.626       15.594       16.524       11.420      243.176      273.050      130.416        0.612        0.032      107.603        8.462        0.006      333.280        2.493      866.462
12/08/2014  04:07:00     -101.215      -39.820       -5.802       16.437       16.137       10.248      270.162      260.412      105.013        0.625        0.032      108.766        2.225        0.000      333.258        2.455      866.457
12/08/2014  04:08:00     -102.183      -57.376       -3.017       21.648       20.385       16.398      468.640      415.537      268.900        0.745        0.058      117.189       14.022        0.014      333.276        2.483      866.447
12/08/2014  04:09:00      -63.299      -36.164       -3.715       18.345       20.920       11.778      336.527      437.653      138.710        0.312        0.046       72.901        9.002        0.015      333.350        2.608      866.422
12/08/2014  04:10:00      -66.141      -31.174       -6.860       18.531        9.931        5.074      343.385       98.619       25.743        0.293        0.023       73.119        5.508        0.006      333.403        2.694      866.391
12/08/2014  04:11:00      -99.783      -33.346       -3.253       30.686       19.068       18.235      941.613      363.572      332.525        0.636        0.082      105.208       18.260        0.030      333.299        2.523      866.379
12/08/2014  04:12:00     -149.396      -67.258      -13.003       14.470       12.182       10.669      209.383      148.407      113.832        1.374        0.024      163.838        6.543        0.002      333.156        2.287      866.382
12/08/2014  04:13:00     -131.797      -55.873       -3.666       33.781       31.674       19.281     1141.147     1003.240      371.746        1.151        0.126      143.151       13.714        0.009      333.066        2.139      866.396
12/08/2014  04:14:00     -191.595      -16.320      -12.849       59.950       38.462       23.110     3594.000     1479.324      534.068        2.137        0.280      192.289       24.040        0.016      333.048        2.105      866.421
12/08/2014  04:15:00     -172.473       -3.476      -17.098       54.600       32.476       19.529     2981.117     1054.666      381.393        1.723        0.221      172.508       19.635        0.013      332.964        1.969      866.452
12/08/2014  04:16:00     -186.335        3.494      -21.259       53.653       28.464       23.057     2878.632      810.178      531.610        1.970        0.211      186.368       23.748        0.016      332.990        2.010      866.476
12/08/2014  04:17:00      -83.309      -26.291        2.926       34.278       33.762       21.364     1174.992     1139.845      456.440        0.521        0.139       87.359       15.332        0.031      332.953        1.951      866.469
12/08/2014  04:18:00     -107.469      -11.856      -10.860       28.174       29.315       16.062      793.746      859.397      257.978        0.686        0.096      108.121       14.515        0.018      333.015        2.053      866.450
12/08/2014  04:19:00      -84.001      -54.652       -0.791       20.057       23.244       17.857      402.264      540.279      318.884        0.565        0.063      100.215       14.206        0.020      333.078        2.158      866.432
12/08/2014  04:20:00      -47.144      -37.155        4.310       32.008       22.520       12.932     1024.480      507.151      167.249        0.266        0.085       60.026       15.796        0.069      333.147        2.270      866.415
12/08/2014  04:21:00      -25.847      -28.643       11.947       31.401       23.779       16.353      986.051      565.436      267.415        0.172        0.091       38.581       16.043        0.173      333.249        2.441      866.410
12/08/2014  04:22:00      -39.922      -21.701        3.598       37.938       23.040       18.351     1439.261      530.838      336.761        0.219        0.115       45.439       18.287        0.162      333.235        2.417      866.418
12/08/2014  04:23:00      -11.655      -22.785       -0.597       19.625       20.706       10.831      385.138      428.752      117.319        0.079        0.047       25.593        6.195        0.059      333.405        2.699      866.421
12/08/2014  04:24:00       -6.824       16.142       26.452       11.825       25.386       21.790      139.824      644.459      474.789        0.113        0.063       17.525       18.534        1.118      333.400        2.690      866.411
12/08/2014  04:25:00       65.061       47.347       15.787       30.219       17.534       23.121      913.158      307.453      534.577        0.424        0.088       80.466       22.670        0.079      333.388        2.669      866.414
12/08/2014  04:26:00       69.427       42.018       -7.297       30.873       34.509       23.080      953.168     1190.856      532.690        0.466        0.134       81.152       20.660        0.065      333.317        2.553      866.445
12/08/2014  04:27:00       40.923       39.186       -1.486       26.914       23.731       19.386      724.389      563.171      375.835        0.244        0.083       56.659       11.741        0.043      333.240        2.423      866.489
12/08/2014  04:28:00       21.935       93.259      -19.255        9.586       11.985        8.683       91.888      143.639       75.398        0.493        0.016       95.804        6.487        0.005      333.255        2.446      866.535
12/08/2014  04:29:00       17.121       47.315       -7.218       14.292       32.672       16.433      204.274     1067.479      270.056        0.206        0.077       50.317       19.274        0.147      333.214        2.382      866.582
12/08/2014  04:30:00       65.979       55.766       -4.700       28.419       14.305       15.937      807.643      204.620      253.986        0.438        0.063       86.389        6.382        0.005      333.190        2.343      866.625
12/08/2014  04:31:00      101.416       55.184       19.722       26.414       18.451       32.533      697.697      340.457     1058.420        0.791        0.105      115.457       15.062        0.017      333.064        2.135      866.663
12/08/2014  04:32:00       27.835       28.841       13.350       18.776       19.193       16.926      352.556      368.379      286.496        0.140        0.050       40.082        7.580        0.036      333.001        2.030      866.698
12/08/2014  04:33:00       36.076       20.353        7.732       12.213        8.116        8.721      149.148       65.873       76.051        0.103        0.015       41.421        3.560        0.007      333.007        2.039      866.728
12/08/2014  04:34:00       57.272       34.343       13.357       12.487        8.119       11.236      155.937       65.910      126.251        0.249        0.017       66.780        8.402        0.016      333.070        2.146      866.742
12/08/2014  04:35:00       75.995       49.785       12.287       11.909       10.102       15.814      141.836      102.059      250.090        0.445        0.025       90.851        8.167        0.008      333.130        2.242      866.725
12/08/2014  04:36:00       60.497       50.829        6.727       25.709       19.109       17.651      660.945      365.161      311.544        0.381        0.067       79.016        9.493        0.014      333.106        2.204      866.711
12/08/2014  04:37:00       31.030       45.804       -8.996       22.618       34.801       21.203      511.579     1211.091      449.551        0.266        0.109       55.325       21.978        0.158      333.020        2.061      866.725
12/08/2014  04:38:00       71.106       55.118        2.920       29.761       21.094       23.589      885.743      444.977      556.424        0.499        0.094       89.967       11.502        0.016      332.975        1.986      866.742
12/08/2014  04:39:00       76.110       40.428        4.856       29.296       24.285       20.867      858.260      589.753      435.424        0.467        0.094       86.181       10.992        0.016      332.958        1.960      866.738
12/08/2014  04:40:00      123.827       58.698        2.594       40.114       35.694       23.454     1609.154     1274.087      550.068        1.111        0.172      137.035       17.580        0.016      333.002        2.031      866.721
12/08/2014  04:41:00      132.172       80.754       -1.555       31.659       23.581       21.390     1002.280      556.044      457.525        1.300        0.101      154.889       13.581        0.008      332.899        1.863      866.701
12/08/2014  04:42:00       57.094       45.969        4.740       44.735       28.526       22.618     2001.259      813.730      511.581        0.436        0.166       73.300       12.905        0.031      332.828        1.745      866.693
12/08/2014  04:43:00       33.604       47.492       -3.686       20.668       28.574       15.656      427.146      816.467      245.104        0.244        0.074       58.178       12.525        0.046      332.813        1.721      866.704
12/08/2014  04:44:00       34.912       29.129        2.337       17.913       20.656       14.023      320.861      426.688      196.647        0.151        0.047       45.468        8.316        0.033      332.850        1.786      866.720
12/08/2014  04:45:00       32.768       18.250        1.150       12.961        9.167       12.461      168.000       84.037      155.265        0.091        0.020       37.508        8.824        0.055      332.840        1.768      866.737
12/08/2014  04:46:00       53.113       35.262        9.460       11.287       11.758       13.684      127.398      138.247      187.257        0.230        0.023       63.753        5.550        0.008      332.899        1.864      866.748
12/08/2014  04:47:00       41.039       40.013        2.188       10.842        8.255        8.017      117.544       68.146       64.276        0.177        0.012       57.317        5.180        0.008      332.895        1.855      866.757
12/08/2014  04:48:00        0.966       22.442        1.174        7.389        7.975        4.970       54.591       63.605       24.699        0.032        0.007       22.463        4.646        0.043      332.945        1.937      866.767
12/08/2014  04:49:00      -44.036       21.036       -4.293       20.617        8.983        6.509      425.079       80.692       42.370        0.147        0.027       48.802        4.492        0.008      332.940        1.928      866.793
12/08/2014  04:50:00      -71.667        5.132       -6.849       11.001       16.104        8.713      121.021      259.327       75.920        0.283        0.023       71.850        5.458        0.006      332.914        1.887      866.819
12/08/2014  04:51:00      -83.025       -9.741      -11.817       19.491        9.217        8.145      379.883       84.957       66.345        0.383        0.027       83.594        4.807        0.003      332.986        2.005      866.833
12/08/2014  04:52:00      -76.098       -7.671       -4.838       25.331       14.498       14.742      641.650      210.197      217.334        0.347        0.053       76.484       15.193        0.039      333.029        2.078      866.827
12/08/2014  04:53:00      -47.659      -12.673       -6.440       18.595       13.478       10.867      345.771      181.663      118.095        0.156        0.032       49.315       10.746        0.047      333.099        2.192      866.815
12/08/2014  04:54:00      -43.886        2.661      -13.882       15.279       18.396       12.001      233.446      338.395      144.035        0.142        0.036       43.967        8.891        0.041      333.203        2.363      866.796
12/08/2014  04:55:00      -12.590       -5.228       -2.753       20.806       13.172       11.915      432.892      173.496      141.978        0.047        0.037       13.633       14.546        1.139      333.303        2.530      866.762
12/08/2014  04:56:00       20.041        9.513        6.539       16.891       10.460        9.543      285.317      109.406       91.066        0.051        0.024       22.184        8.228        0.138      333.430        2.739      866.735
12/08/2014  04:57:00       14.431       19.101        0.056       16.907       12.341        9.995      285.839      152.295       99.904        0.056        0.027       23.940        9.784        0.167      333.392        2.676      866.713
12/08/2014  04:58:00       13.691       16.783       -5.695       10.510        8.975        4.607      110.450       80.558       21.225        0.036        0.011       21.659        3.561        0.027      333.282        2.494      866.709
12/08/2014  04:59:00        0.504        6.084       -1.345        6.872        4.806        3.971       47.230       23.097       15.768        0.006        0.004        6.105        3.681        0.363      333.359        2.622      866.717
12/08/2014  05:00:00       20.832       14.821        1.132        9.599        9.099        5.935       92.148       82.798       35.219        0.043        0.011       25.566        5.413        0.045      333.435        2.746      866.728
12/08/2014  05:01:00       30.390       24.598        4.676       13.168        8.658       10.664      173.386       74.970      113.722        0.096        0.018       39.098        6.081        0.024      333.371        2.642      866.745
12/08/2014  05:02:00       22.024       24.559        1.844        6.729        6.969       12.138       45.281       48.561      147.339        0.067        0.012       32.988        7.294        0.049      333.184        2.334      866.749
12/08/2014  05:03:00       16.891       17.000       -3.248       10.513        9.977        7.766      110.514       99.544       60.316        0.043        0.014       23.965        8.155        0.116      333.143        2.266      866.761
12/08/2014  05:04:00       10.714       15.132       -1.354        6.637        5.859        5.403       44.055       34.324       29.190        0.023        0.005       18.541        2.590        0.020      333.200        2.362      866.783
12/08/2014  05:05:00       -8.383       13.011       -2.627        6.888        5.924        3.350       47.446       35.094       11.222        0.017        0.005       15.477        2.668        0.030      333.331        2.578      866.808
12/08/2014  05:06:00      -62.040      -14.612       -4.490       22.918        7.290        6.815      525.236       53.146       46.445        0.235        0.031       63.738        9.582        0.023      333.293        2.511      866.838
12/08/2014  05:07:00      -61.978      -14.402       -6.725       10.758        9.763        7.724      115.736       95.309       59.659        0.218        0.014       63.630        4.385        0.005      333.260        2.458      866.860
12/08/2014  05:08:00      -32.708       -5.749       -2.281       12.534        9.076        4.990      157.112       82.382       24.899        0.069        0.013       33.209        6.114        0.034      333.292        2.510      866.860
12/08/2014  05:09:00       14.023       20.510       17.512       14.300       15.754       12.749      204.492      248.203      162.543        0.077        0.031       24.845       15.000        0.364      333.291        2.508      866.834
12/08/2014  05:10:00       54.863       62.782       15.600       17.809       16.378       25.838      317.165      268.242      667.590        0.422        0.063       83.376        8.414        0.010      333.297        2.518      866.816
12/08/2014  05:11:00       46.086       25.752        3.797       17.103       16.668       15.432      292.498      277.839      238.140        0.180        0.040       52.792       10.820        0.042      333.218        2.388      866.836
12/08/2014  05:12:00       15.381        2.795       -3.979       17.252       12.729        9.433      297.617      162.021       88.988        0.040        0.027       15.633        5.765        0.136      333.153        2.282      866.880
12/08/2014  05:13:00       -9.852       17.765      -11.108       14.667       15.347        6.700      215.122      235.525       44.886        0.052        0.025       20.314        9.667        0.226      333.151        2.279      866.915
12/08/2014  05:14:00      -48.892       22.759       -5.748       10.214       14.016        7.999      104.321      196.454       63.987        0.165        0.018       53.929        6.561        0.015      333.154        2.283      866.951
12/08/2014  05:15:00      -59.280       33.290       -8.157       12.702       15.071       12.771      161.350      227.133      163.091        0.262        0.028       67.988       11.361        0.028      333.246        2.434      866.957
12/08/2014  05:16:00      -24.695       10.630        1.244       22.682       12.634       10.221      514.457      159.619      104.472        0.075        0.039       26.886       12.928        0.231      333.260        2.460      866.933
12/08/2014  05:17:00       53.813       19.223       -5.662       17.852       14.081       12.800      318.709      198.281      163.833        0.199        0.034       57.143        6.444        0.013      333.250        2.441      866.906
12/08/2014  05:18:00       40.132       43.816       34.721       23.090       20.788       19.406      533.137      432.157      376.598        0.304        0.067       59.417       13.925        0.055      333.205        2.365      866.873
12/08/2014  05:19:00        1.724       47.430       75.347       23.347       30.230       17.178      545.074      913.835      295.083        0.484        0.088       47.462       16.878        0.126      333.208        2.370      866.833
12/08/2014  05:20:00        5.806      -12.489       31.683       22.635       33.422       22.382      512.349     1117.002      500.975        0.166        0.107       13.772       17.775        1.666      333.298        2.521      866.779
12/08/2014  05:21:00        3.895      -12.885       13.982       14.552       16.800       15.738      211.767      282.247      247.679        0.056        0.037       13.461       11.813        0.770      333.363        2.629      866.746
12/08/2014  05:22:00      -44.703      -19.537       -7.613       26.573       22.759       12.584      706.107      517.971      158.363        0.191        0.069       48.786        8.880        0.033      333.472        2.809      866.734
12/08/2014  05:23:00      -65.666      -31.933       -1.496       32.034       16.793       12.420     1026.163      282.020      154.267        0.340        0.073       73.019       14.442        0.039      333.521        2.889      866.758
12/08/2014  05:24:00      -10.856      -24.643        4.593       33.316       24.355       19.093     1109.974      593.145      364.546        0.141        0.103       26.929       10.840        0.162      333.547        2.933      866.803
12/08/2014  05:25:00       -9.195      -28.051        9.834       26.036       13.824       11.388      677.884      191.104      129.677        0.098        0.050       29.520       12.057        0.167      333.536        2.914      866.853
12/08/2014  05:26:00      -57.517       -9.661        2.975       22.303       17.011       11.178      497.421      289.386      124.945        0.216        0.046       58.323       11.145        0.037      333.524        2.895      866.916
12/08/2014  05:27:00      -38.300      -34.381       -2.923       22.165       34.743       13.618      491.292     1207.106      185.457        0.227        0.094       51.468       13.565        0.069      333.538        2.918      866.968
12/08/2014  05:28:00      -21.394        1.200        6.270       20.532       21.023       10.583      421.570      441.969      111.991        0.074        0.049       21.427       13.109        0.374      333.469        2.804      867.004
12/08/2014  05:29:00      -18.243        8.878       11.158       11.968        9.834       10.620      143.225       96.705      112.779        0.044        0.018       20.289        8.442        0.173      333.510        2.873      867.009
12/08/2014  05:30:00       -3.343       -3.894       -0.823        7.902        7.172        5.066       62.442       51.432       25.661        0.008        0.007        5.132        4.543        0.784      333.517        2.882      867.001
12/08/2014  05:31:00       -7.493      -33.821       -5.372       14.498       36.543       11.641      210.187     1335.376      135.502        0.145        0.084       34.641       17.181        0.246      333.559        2.953      866.981
12/08/2014  05:32:00       18.673      -43.990       -0.771       20.975       36.882       24.264      439.971     1360.294      588.739        0.234        0.119       47.789       24.369        0.260      333.463        2.793      866.947
12/08/2014  05:33:00       -1.424      -16.446       11.434       12.430       19.499       16.902      154.514      380.200      285.663        0.061        0.041       16.508       11.214        0.461      333.449        2.770      866.892
12/08/2014  05:34:00      -30.599        4.285       -4.196       19.228       16.077       10.653      369.706      258.482      113.483        0.086        0.037       30.897        6.678        0.047      333.480        2.824      866.875
12/08/2014  05:35:00       -8.517       -6.912        0.453       15.564       29.330       15.077      242.233      860.240      227.311        0.072        0.066       10.969        9.196        0.703      333.483        2.827      866.887
12/08/2014  05:36:00        6.028        8.208       10.107       13.425       11.735       11.767      180.240      137.706      138.457        0.033        0.023       10.184        6.529        0.411      333.482        2.825      866.947
12/08/2014  05:37:00        2.942        7.619        2.083       10.501        8.856        9.112      110.262       78.432       83.035        0.017        0.014        8.168        5.952        0.531      333.448        2.771      867.011
12/08/2014  05:38:00      -63.479       -3.504       -4.755       37.865       24.099       13.945     1433.781      580.754      194.452        0.314        0.110       63.576       15.747        0.061      333.371        2.642      867.068
12/08/2014  05:39:00      -91.971        4.805       -7.326       43.306       26.319       19.710     1875.382      692.699      388.493        0.575        0.148       92.097       21.339        0.054      333.340        2.591      867.102
12/08/2014  05:40:00     -129.328        4.563       -7.456       61.148       29.287       24.261     3739.047      857.710      588.595        1.099        0.259      129.409       31.040        0.058      333.323        2.563      867.120
12/08/2014  05:41:00     -118.497       19.483       -7.175       42.326       25.168       21.714     1791.499      633.437      471.479        0.868        0.145      120.088       17.837        0.022      333.245        2.433      867.116
12/08/2014  05:42:00      -73.360       26.198       -7.041       25.370       12.289       11.121      643.638      151.025      123.680        0.352        0.046       77.898        6.480        0.007      333.346        2.600      867.087
12/08/2014  05:43:00      -46.896       -4.373       -3.077       18.909       17.846        6.933      357.563      318.486       48.067        0.148        0.036       47.099        1.146        0.001      333.401        2.689      867.061
12/08/2014  05:44:00       -8.993      -18.168        2.530       16.397       10.133        9.725      268.865      102.670       94.583        0.044        0.023       20.272        8.347        0.170      333.500        2.856      867.057
12/08/2014  05:45:00      -30.850      -19.418       -4.681       16.041       13.581        8.310      257.326      184.442       69.052        0.093        0.026       36.453        6.368        0.031      333.546        2.932      867.049
12/08/2014  05:46:00      -49.593      -22.156       -1.281       31.574       17.789       12.130      996.895      316.444      147.133        0.221        0.073       54.317       11.213        0.043      333.500        2.856      867.042
12/08/2014  05:47:00      -67.338      -18.559       -0.178       30.180       20.931       16.195      910.863      438.126      262.267        0.324        0.081       69.848       13.007        0.035      333.394        2.680      867.043
12/08/2014  05:48:00     -108.706      -62.734       -5.411       34.139       24.386       16.507     1165.458      594.662      272.484        0.891        0.102      125.509       13.854        0.012      333.425        2.731      867.051
12/08/2014  05:49:00     -124.951      -57.909       -6.923       20.814       30.504       18.251      433.232      930.509      333.111        1.036        0.085      137.718       11.625        0.007      333.449        2.769      867.073
12/08/2014  05:50:00     -111.579      -44.595       -7.490       29.351       21.141       17.270      861.490      446.963      298.242        0.805        0.080      120.160       14.857        0.015      333.503        2.859      867.093
12/08/2014  05:51:00      -94.826      -35.974       -1.031       34.102       25.683       15.852     1162.977      659.596      251.281        0.618        0.104      101.420       17.092        0.028      333.475        2.812      867.119
12/08/2014  05:52:00      -33.602      -43.215        8.304       29.763       28.040       15.423      885.814      786.249      237.875        0.249        0.095       54.742       12.377        0.051      333.567        2.965      867.150
12/08/2014  05:53:00      -32.155      -64.637        2.803       30.922       18.412       12.890      956.177      338.985      166.155        0.334        0.073       72.194        8.187        0.013      333.618        3.050      867.147
12/08/2014  05:54:00      -18.992        5.942       21.899       24.505       41.003       26.500      600.512     1681.238      702.231        0.193        0.149       19.900       23.184        1.357      333.660        3.120      867.130
12/08/2014  05:55:00       11.325      -11.409       36.766       25.685       37.065       25.716      659.711     1373.806      661.293        0.215        0.135       16.076       25.405        2.497      333.650        3.103      867.141
12/08/2014  05:56:00       13.589      -34.243       10.187       16.510       25.930       20.032      272.571      672.376      401.281        0.140        0.067       36.841        9.882        0.072      333.772        3.305      867.187
12/08/2014  05:57:00        1.300        7.703       -1.896       19.539       16.421       18.080      381.772      269.649      326.888        0.052        0.049        7.812       11.243        2.071      333.727        3.230      867.236
12/08/2014  05:58:00       -7.793       -8.439        8.071       10.190       14.567        9.914      103.840      212.206       98.295        0.031        0.021       11.487        9.073        0.624      333.763        3.293      867.282
12/08/2014  05:59:00      -21.284       -0.682        2.363       15.471       10.312       11.723      239.343      106.335      137.419        0.047        0.024       21.295       12.718        0.357      333.734        3.242      867.316
12/08/2014  06:00:00       10.183        6.695       23.052       13.151        6.763       12.035      172.949       45.745      144.840        0.052        0.018       12.187       11.723        0.925      333.745        3.262      867.329
12/08/2014  06:01:00       49.126       28.412        7.949       17.245       10.055       12.954      297.377      101.105      167.813        0.192        0.028       56.750        9.532        0.028      333.581        2.989      867.319
12/08/2014  06:02:00       38.377       37.483       17.751       21.904       15.785       14.482      479.782      249.176      209.729        0.207        0.047       53.645       10.174        0.036      333.476        2.815      867.299
12/08/2014  06:03:00       13.208       49.585       59.034       32.214       33.038       18.898     1037.716     1091.497      357.141        0.430        0.124       51.315       14.776        0.083      333.442        2.758      867.270
12/08/2014  06:04:00       37.951       53.744       61.429       24.931       23.151       15.443      621.569      535.973      238.487        0.475        0.070       65.793       12.010        0.033      333.402        2.694      867.246
12/08/2014  06:05:00       -0.848       14.829       31.532       15.075       36.906       18.921      227.263     1362.066      357.996        0.158        0.097       14.853       17.415        1.375      333.473        2.810      867.242
12/08/2014  06:06:00       -6.013       22.466       27.568       10.641       14.009       11.022      113.230      196.261      121.493        0.087        0.022       23.256        9.017        0.150      333.442        2.758      867.242
12/08/2014  06:07:00       -0.698       11.390        3.655        8.398        7.750        5.297       70.522       60.065       28.059        0.015        0.008       11.412        3.185        0.078      333.453        2.775      867.253
12/08/2014  06:08:00       -6.111        1.391        7.804        7.661       11.728        7.072       58.684      137.551       50.009        0.017        0.012        6.267        5.683        0.822      333.535        2.913      867.270
12/08/2014  06:09:00       -2.670      -10.286        4.271       19.486        8.877        7.570      379.723       78.795       57.300        0.032        0.026       10.627        5.735        0.291      333.659        3.119      867.302
12/08/2014  06:10:00        4.385      -24.130       -4.433       12.895       14.296       10.214      166.275      204.390      104.316        0.055        0.024       24.525        4.546        0.034      333.725        3.228      867.337
12/08/2014  06:11:00       25.198       17.629       -2.033       17.423       28.768       20.724      303.568      827.572      429.474        0.125        0.078       30.753       20.458        0.443      333.599        3.019      867.346
12/08/2014  06:12:00       38.435       22.269       29.934       40.742       20.162       14.408     1659.946      406.524      207.596        0.257        0.114       44.420       11.924        0.072      333.506        2.864      867.321
12/08/2014  06:13:00       16.711       23.044       32.365       18.145       18.063       12.638      329.223      326.286      159.707        0.134        0.041       28.465        7.825        0.076      333.557        2.949      867.302
12/08/2014  06:14:00       -4.845       21.736       30.541       11.823       16.878        9.210      139.772      284.866       84.831        0.097        0.025       22.269       10.539        0.224      333.585        2.996      867.287
12/08/2014  06:15:00       -7.640       25.483        9.312       11.918       20.131       14.611      142.046      405.239      213.468        0.078        0.038       26.604       13.332        0.251      333.540        2.921      867.258
12/08/2014  06:16:00      -54.028       21.663       -8.209       41.993       18.202       14.406     1763.412      331.316      207.545        0.288        0.115       58.209       12.952        0.050      333.578        2.986      867.212
12/08/2014  06:17:00       -1.828       15.478       20.621       28.225       15.295       21.265      796.666      233.948      452.191        0.108        0.074       15.586       20.559        1.740      333.569        2.970      867.155
12/08/2014  06:18:00       34.955       45.898       11.837       22.338       24.129       23.683      498.982      582.217      560.908        0.256        0.082       57.693       19.037        0.109      333.436        2.750      867.116
12/08/2014  06:19:00       60.867       35.307        7.208       33.925       22.484       25.010     1150.927      505.523      625.477        0.364        0.114       70.366       13.656        0.038      333.303        2.529      867.100
12/08/2014  06:20:00       67.500       58.803        6.436       40.607       35.415       32.309     1648.909     1254.248     1043.844        0.600        0.197       89.521       25.228        0.079      333.093        2.183      867.112
12/08/2014  06:21:00       55.612       52.443       -8.303       32.753       30.372       23.594     1072.738      922.463      556.688        0.423        0.128       76.439       21.507        0.079      333.020        2.061      867.139
12/08/2014  06:22:00       52.775       42.507       -0.664       19.011       19.227       16.809      361.418      369.686      282.557        0.280        0.051       67.765       11.896        0.031      332.991        2.015      867.163
12/08/2014  06:23:00       46.657       63.119       -2.014       15.784       21.167       17.929      249.124      448.021      321.465        0.359        0.051       78.491       13.948        0.032      332.996        2.023      867.193
12/08/2014  06:24:00       42.774       46.442       -5.354       20.654       32.000       18.878      426.595     1024.012      356.360        0.291        0.090       63.139       20.734        0.108      333.065        2.138      867.216
12/08/2014  06:25:00       43.484       29.856       -2.271       18.828       16.376       19.377      354.489      268.168      375.470        0.189        0.050       52.747       14.862        0.079      333.102        2.196      867.226
12/08/2014  06:26:00       36.850       21.682        8.812       14.607       19.508       13.586      213.377      380.552      184.568        0.134        0.039       42.755        6.580        0.024      333.093        2.183      867.231
12/08/2014  06:27:00       41.305       43.373       11.896       14.942       11.636       11.177      223.268      135.388      124.930        0.211        0.024       59.894        9.962        0.028      333.062        2.133      867.233
12/08/2014  06:28:00       55.311       60.143       21.308       14.835       15.043       13.423      220.089      226.280      180.178        0.388        0.031       81.710       11.167        0.019      333.107        2.208      867.228
12/08/2014  06:29:00       50.859       53.083        9.187       36.324       26.753       22.896     1319.427      715.729      524.214        0.402        0.128       73.514       16.682        0.051      333.141        2.261      867.228
12/08/2014  06:30:00       20.532       69.092       -8.316       19.111       20.081       15.587      365.226      403.233      242.967        0.314        0.051       72.078       12.606        0.031      333.125        2.236      867.243
12/08/2014  06:31:00        6.997       53.620      -10.170        6.894       15.317        8.939       47.529      234.618       79.902        0.169        0.018       54.075        8.533        0.025      333.190        2.339      867.274
12/08/2014  06:32:00       15.812       37.648       11.647       23.498       19.118       22.772      552.174      365.487      518.554        0.162        0.072       40.833       11.274        0.076      333.241        2.426      867.277
12/08/2014  06:33:00       27.257       94.545       -8.747       23.617       18.690       16.234      557.751      349.332      263.544        0.546        0.059       98.396       14.642        0.022      333.206        2.368      867.265
12/08/2014  06:34:00       10.267       81.911       -8.365       16.870       32.075       16.903      284.598     1028.789      285.727        0.424        0.080       82.552       17.499        0.045      333.269        2.472      867.237
12/08/2014  06:35:00       -8.316       58.374      -14.108       15.982       37.719       11.081      255.434     1422.730      122.794        0.274        0.090       58.964       16.388        0.077      333.326        2.570      867.232
12/08/2014  06:36:00      -30.564       -8.856        1.838       21.285       12.952       12.621      453.045      167.757      159.295        0.090        0.039       31.821        7.345        0.053      333.393        2.679      867.241
12/08/2014  06:37:00        1.007       12.231        1.021       14.612        9.886       11.092      213.525       97.725      123.031        0.029        0.022       12.272        7.848        0.409      333.346        2.601      867.242
12/08/2014  06:38:00       43.703       26.903       19.165       24.947       12.241       18.146      622.344      149.852      329.288        0.205        0.055       51.320       13.723        0.072      333.348        2.605      867.218
12/08/2014  06:39:00       37.002       17.588       10.133       24.580       14.824       13.859      604.154      219.752      192.067        0.140        0.051       40.970       11.139        0.074      333.404        2.696      867.200
12/08/2014  06:40:00       -4.705       16.563       -6.969       12.630        8.913        5.864      159.526       79.443       34.381        0.031        0.014       17.219        3.937        0.052      333.359        2.623      867.208
12/08/2014  06:41:00      -43.735        2.680       -3.615       12.328        9.054        7.769      151.972       81.969       60.364        0.111        0.015       43.817        5.314        0.015      333.387        2.669      867.214
12/08/2014  06:42:00      -37.699       37.651       -6.298       10.709       16.119        9.221      114.687      259.836       85.027        0.167        0.023       53.281        8.376        0.025      333.400        2.690      867.195
12/08/2014  06:43:00      -49.990       41.561      -11.732       17.385       15.014       12.291      302.251      225.428      151.063        0.252        0.034       65.010        7.637        0.014      333.483        2.828      867.163
12/08/2014  06:44:00      -97.205       18.438      -12.625       12.379       12.899        8.917      153.229      166.389       79.516        0.517        0.020       98.938        6.166        0.004      333.520        2.888      867.157
12/08/2014  06:45:00     -112.440      -21.513      -17.588       27.800       21.382       13.781      772.865      457.191      189.903        0.742        0.071      114.480       13.202        0.013      333.505        2.863      867.170
12/08/2014  06:46:00      -90.261       -3.893      -11.417       16.740       20.502       14.600      280.238      420.349      213.148        0.460        0.046       90.345        1.931        0.000      333.523        2.892      867.154
12/08/2014  06:47:00      -68.028       -3.173       -9.173       23.277       27.467       12.793      541.821      754.437      163.658        0.309        0.073       68.102        6.992        0.011      333.564        2.961      867.140
12/08/2014  06:48:00      -66.060      -20.468       -2.465       52.125       28.611       19.067     2716.996      818.606      363.539        0.434        0.195       69.158       20.002        0.084      333.597        3.016      867.156
12/08/2014  06:49:00      -43.438      -25.364        0.046       43.170       24.426       18.191     1863.631      596.627      330.926        0.266        0.140       50.301       16.003        0.101      333.585        2.997      867.180
12/08/2014  06:50:00       16.875      -26.192       12.143       17.500       20.314       17.681      306.253      412.655      312.607        0.107        0.052       31.158       10.490        0.113      333.681        3.156      867.186
12/08/2014  06:51:00      -20.374      -45.020       -9.588       17.942        9.826        9.151      321.928       96.542       83.747        0.152        0.025       49.416        7.484        0.023      333.646        3.098      867.193
12/08/2014  06:52:00      -58.129      -42.135       -2.763       18.924       15.861       11.299      358.111      251.578      127.662        0.295        0.037       71.794        3.733        0.003      333.681        3.155      867.209
12/08/2014  06:53:00      -95.820      -28.583       -2.151       38.365       26.927       21.288     1471.889      725.055      453.178        0.633        0.133       99.992       21.919        0.048      333.593        3.009      867.203
12/08/2014  06:54:00     -109.239       15.077       -9.631       26.540       17.680       14.645      704.371      312.582      214.463        0.674        0.062      110.275       13.738        0.016      333.540        2.922      867.162
12/08/2014  06:55:00      -48.426       16.381        2.818       24.808       21.740       18.986      615.439      472.631      360.452        0.203        0.072       51.121       12.983        0.064      333.572        2.975      867.132
12/08/2014  06:56:00      -66.152        8.965       -6.270       21.788       19.048       12.375      474.730      362.832      153.129        0.274        0.050       66.757        9.941        0.022      333.678        3.152      867.136
12/08/2014  06:57:00      -62.206      -14.645       -9.473       17.499       22.945       15.417      306.225      526.464      237.698        0.262        0.054       63.907       13.414        0.044      333.639        3.087      867.137
12/08/2014  06:58:00      -70.471      -15.178       -8.178       23.406       33.333       12.016      547.829     1111.111      144.382        0.353        0.090       72.086       12.876        0.032      333.590        3.004      867.114
12/08/2014  06:59:00      -56.892       31.094       -7.432       28.624       21.487       17.627      819.357      461.695      310.708        0.292        0.080       64.834       14.122        0.047      333.613        3.043      867.094
12/08/2014  07:00:00      -49.240       26.480      -11.128       20.780       19.346       10.692      431.823      374.260      114.328        0.208        0.046       55.909        6.965        0.016      333.759        3.284      867.082
12/08/2014  07:01:00      -72.728       30.552      -11.618       16.241       37.488       13.452      263.762     1405.339      180.959        0.410        0.093       78.884        6.362        0.007      333.751        3.271      867.095
12/08/2014  07:02:00      -56.565      -10.861       -2.366       22.558       24.458       14.836      508.871      598.215      220.112        0.232        0.066       57.598       12.832        0.050      333.783        3.324      867.121
12/08/2014  07:03:00      -56.168      -31.519       -5.940       20.349       11.913        8.483      414.069      141.922       71.957        0.241        0.031       64.407        4.562        0.005      333.743        3.256      867.139
12/08/2014  07:04:00      -21.584      -24.068       -6.167       22.260       19.338       12.415      495.514      373.963      154.124        0.105        0.051       32.328       12.551        0.151      333.821        3.389      867.149
12/08/2014  07:05:00      -36.705      -15.171       -0.969       12.526       13.297        9.957      156.912      176.811       99.136        0.101        0.022       39.717        6.603        0.028      333.733        3.240      867.159
12/08/2014  07:06:00      -51.331      -15.137       -8.646       15.452       12.381        7.872      238.772      153.301       61.973        0.170        0.023       53.517        4.062        0.006      333.770        3.302      867.160
12/08/2014  07:07:00      -84.461        0.246      -14.086       17.817       10.383        6.959      317.459      107.809       48.431        0.390        0.024       84.461        2.968        0.001      333.792        3.341      867.167
12/08/2014  07:08:00      -91.481      -12.069       -9.015       24.649       18.587       13.149      607.589      345.462      172.889        0.486        0.056       92.274       11.555        0.016      333.760        3.285      867.175
12/08/2014  07:09:00      -81.616      -42.552       -1.419       31.575       23.487       19.024      996.975      551.638      361.906        0.519        0.096       92.043       18.743        0.041      333.758        3.283      867.203
12/08/2014  07:10:00     -108.197      -62.949       -4.894       38.475       24.739       23.868     1480.301      612.032      569.692        0.918        0.133      125.176       17.740        0.020      333.804        3.360      867.249
12/08/2014  07:11:00      -94.028      -23.436        0.467       34.530       33.631       16.492     1192.288     1131.048      271.981        0.599        0.130       96.905       14.003        0.021      333.834        3.408      867.275
12/08/2014  07:12:00     -152.746      -19.937      -16.733       23.485       23.792       16.212      551.553      566.061      262.842        1.269        0.069      154.041       12.027        0.006      333.757        3.278      867.283
12/08/2014  07:13:00     -146.216      -63.074       -6.020       32.885       34.203       21.155     1081.446     1169.846      447.533        1.405        0.135      159.241       19.758        0.015      333.758        3.281      867.303
12/08/2014  07:14:00     -111.980      -34.829       -5.224       67.154       37.701       24.826     4509.678     1421.346      616.351        1.016        0.327      117.272       25.606        0.048      333.732        3.238      867.346
12/08/2014  07:15:00      -91.578      -33.610       -5.015       44.475       32.754       20.883     1977.985     1072.824      436.111        0.651        0.174       97.551       20.115        0.043      333.658        3.117      867.398
12/08/2014  07:16:00     -113.231      -45.019       -7.466       54.338       30.094       24.618     2952.627      905.636      606.021        0.968        0.223      121.852       25.913        0.045      333.689        3.170      867.449
12/08/2014  07:17:00     -110.065      -32.496       -3.267       36.523       49.764       26.107     1333.913     2476.440      681.555        0.884        0.225      114.762       21.404        0.035      333.656        3.114      867.483
12/08/2014  07:18:00     -149.632       -0.733      -12.471       53.301       40.290       23.685     2841.036     1623.290      560.989        1.378        0.251      149.634       27.237        0.033      333.659        3.117      867.509
12/08/2014  07:19:00     -194.236       42.183      -14.865       41.920       31.381       17.563     1757.308      984.770      308.460        2.139        0.153      198.764       12.943        0.004      333.601        3.021      867.516
12/08/2014  07:20:00     -150.930       -1.925      -18.725       65.410       49.891       25.546     4278.428     2489.116      652.614        1.528        0.371      150.942       27.854        0.034      333.642        3.089      867.526
12/08/2014  07:21:00     -127.310      -72.087       -8.828       40.931       34.073       24.606     1675.387     1160.956      605.437        1.246        0.172      146.303       23.234        0.025      333.628        3.068      867.529
12/08/2014  07:22:00     -137.221      -21.677      -10.593       50.099       41.899       22.826     2509.866     1755.487      521.027        1.210        0.239      138.923       24.015        0.030      333.607        3.032      867.520
12/08/2014  07:23:00     -157.209      -25.427      -27.226       31.599       54.173       23.193      998.484     2934.758      537.901        1.529        0.224      159.252       15.625        0.010      333.632        3.073      867.523
12/08/2014  07:24:00      -92.256      -36.439       -7.300       62.621       32.940       30.149     3921.410     1085.057      908.963        0.790        0.296       99.191       34.828        0.123      333.734        3.242      867.525
12/08/2014  07:25:00     -113.054      -20.927        0.238       48.753       34.944       28.112     2376.878     1221.076      790.311        0.880        0.219      114.975       26.421        0.053      333.736        3.246      867.540
12/08/2014  07:26:00      -86.144      -46.739       -1.360       58.649       33.669       26.457     3439.679     1133.628      699.948        0.744        0.264       98.007       25.484        0.068      333.759        3.284      867.550
12/08/2014  07:27:00     -151.397       -5.678      -13.152       41.788       36.538       23.990     1746.207     1335.016      575.519        1.339        0.183      151.503       22.762        0.023      333.778        3.314      867.556
12/08/2014  07:28:00     -137.138      -10.170      -10.172       34.783       34.450       23.811     1209.837     1186.776      566.982        1.099        0.148      137.514       21.421        0.024      333.772        3.305      867.563
12/08/2014  07:29:00     -104.135       11.762       -9.795       34.761       23.689       24.141     1208.354      561.149      582.767        0.671        0.118      104.797       20.344        0.038      333.811        3.372      867.563
12/08/2014  07:30:00      -90.130      -26.668       -9.841       25.461       25.326       14.938      648.256      641.382      223.134        0.522        0.076       93.993       12.434        0.017      333.870        3.469      867.571
12/08/2014  07:31:00      -71.706      -31.004       -5.620       23.928       18.268       17.919      572.543      333.704      321.108        0.368        0.061       78.122       13.321        0.029      333.911        3.537      867.561
12/08/2014  07:32:00      -97.617      -31.527      -14.554       21.957       29.644       11.551      482.122      878.765      133.429        0.611        0.075      102.582        4.155        0.002      333.928        3.565      867.555
12/08/2014  07:33:00      -90.922      -18.112       -7.885       21.495       35.003       13.649      462.020     1225.177      186.297        0.526        0.094       92.708       10.763        0.013      333.992        3.672      867.530
12/08/2014  07:34:00      -44.257        2.285       -1.904       19.401       15.857       10.359      376.396      251.454      107.314        0.135        0.037       44.315        9.600        0.047      334.023        3.725      867.504
12/08/2014  07:35:00      -69.880       28.470       -6.743       13.109        9.888        7.160      171.834       97.782       51.264        0.303        0.016       75.457        4.588        0.004      334.072        3.804      867.485
12/08/2014  07:36:00      -60.907       26.752      -11.266       11.903       12.573       10.410      141.670      158.074      108.358        0.248        0.020       66.523        8.097        0.015      334.064        3.790      867.478
12/08/2014  07:37:00      -62.611       11.493       -6.279       18.648        9.680        6.470      347.743       93.695       41.862        0.229        0.024       63.657        4.648        0.005      334.128        3.895      867.476
12/08/2014  07:38:00      -58.458       -9.260       -7.571       27.486       14.971       12.591      755.505      224.123      158.544        0.235        0.057       59.187       14.497        0.060      334.158        3.944      867.468
12/08/2014  07:39:00      -65.783      -10.320       -5.619       20.705       18.722       10.940      428.696      350.511      119.677        0.268        0.045       66.588       10.697        0.026      334.088        3.828      867.459
12/08/2014  07:40:00      -64.394      -12.225       -1.123       19.070       19.896       14.631      363.657      395.837      214.056        0.264        0.049       65.545       13.452        0.042      334.056        3.776      867.441
12/08/2014  07:41:00      -42.579      -20.861        0.243       19.595       18.808       11.420      383.963      353.736      130.426        0.156        0.043       47.415        9.191        0.038      334.078        3.812      867.427
12/08/2014  07:42:00      -43.448      -12.879       -1.468       20.377       15.851       11.530      415.216      251.259      132.936        0.143        0.040       45.317        9.054        0.040      334.102        3.852      867.431
12/08/2014  07:43:00      -44.511        8.225       -2.292       17.103       16.267       10.985      292.515      264.624      120.669        0.137        0.034       45.265       11.180        0.061      334.089        3.831      867.433
12/08/2014  07:44:00      -47.138       18.347       -2.952       21.495       16.577       11.950      462.014      274.809      142.813        0.172        0.044       50.582        7.383        0.021      334.093        3.839      867.441
12/08/2014  07:45:00      -55.614       21.082       -4.610       18.913       11.910       13.885      357.695      141.837      192.783        0.213        0.035       59.476       10.681        0.032      334.208        4.030      867.462
12/08/2014  07:46:00      -29.544        7.071       -3.780       18.790       11.549        8.954      353.078      133.389       80.173        0.075        0.028       30.379        5.955        0.038      334.173        3.973      867.514
12/08/2014  07:47:00       43.449       22.920       11.761       22.483       16.804       15.573      505.472      282.387      242.517        0.179        0.052       49.124        9.381        0.036      334.191        4.002      867.562
12/08/2014  07:48:00       90.098       67.712       12.456       43.610       27.946       36.211     1901.836      780.963     1311.211        0.843        0.200      112.706       28.841        0.065      334.080        3.817      867.604
12/08/2014  07:49:00       75.240       65.038       12.112       31.270       22.893       35.282      977.790      524.072     1244.839        0.639        0.137       99.454       28.678        0.083      334.037        3.745      867.638
12/08/2014  07:50:00       24.971       64.978       50.175       24.699       30.639       26.137      610.048      938.760      683.153        0.480        0.112       69.611       12.888        0.034      334.064        3.791      867.662
12/08/2014  07:51:00       11.914       58.258       67.510       29.206       36.480       22.024      853.016     1330.773      485.047        0.538        0.133       59.463       13.651        0.053      334.015        3.709      867.676
12/08/2014  07:52:00       63.130       97.123       76.536       48.689       22.578       25.332     2370.635      509.753      641.711        1.140        0.176      115.838       24.845        0.046      333.955        3.609      867.681
12/08/2014  07:53:00       30.682       61.107       70.410       29.475       30.503       17.025      868.754      930.430      289.834        0.586        0.104       68.377       13.856        0.041      333.965        3.626      867.675
12/08/2014  07:54:00       67.379       26.466       29.259       22.873       27.257       25.048      523.167      742.954      627.400        0.399        0.095       72.390       14.158        0.038      333.975        3.644      867.653
12/08/2014  07:55:00      104.305       30.121        7.238       44.553       32.049       29.052     1984.991     1027.166      843.993        0.785        0.193      108.567       22.471        0.043      333.941        3.586      867.617
12/08/2014  07:56:00       91.990       50.395       34.137       44.634       40.473       36.843     1992.209     1638.082     1357.370        0.858        0.249      104.889       32.122        0.094      333.921        3.553      867.585
12/08/2014  07:57:00       63.142       67.749       51.983       34.354       30.106       26.346     1180.179      906.380      694.128        0.703        0.139       92.611       13.258        0.020      333.896        3.511      867.574
12/08/2014  07:58:00       75.142       46.206       25.328       27.907       29.261       29.059      778.810      856.199      844.431        0.545        0.124       88.212       24.083        0.075      333.921        3.552      867.586
12/08/2014  07:59:00       62.764       30.179        5.745       25.977       24.023       20.132      674.792      577.095      405.294        0.327        0.083       69.643       14.001        0.040      333.887        3.497      867.614
12/08/2014  08:00:00       59.650       27.175       13.793       35.598       24.686       21.088     1267.228      609.418      444.718        0.340        0.116       65.549       12.740        0.038      333.885        3.494      867.654
12/08/2014  08:01:00       87.600       45.976       14.028       23.874       18.427       21.162      569.991      339.552      447.821        0.567        0.068       98.932       16.273        0.027      333.851        3.438      867.686
12/08/2014  08:02:00       83.616       49.406       21.243       32.747       32.328       27.227     1072.363     1045.112      741.308        0.637        0.143       97.122       15.317        0.025      333.897        3.513      867.698
12/08/2014  08:03:00       81.512       57.645       23.564       18.266       13.696       16.809      333.641      187.568      282.547        0.566        0.040       99.835        6.076        0.004      333.894        3.509      867.697
12/08/2014  08:04:00       99.861       58.640       18.170       15.190       12.252       15.534      230.739      150.120      241.299        0.718        0.031      115.805       10.506        0.008      333.848        3.432      867.693
12/08/2014  08:05:00      117.988       50.255       10.221       24.064       15.408       23.137      579.072      237.404      535.343        0.895        0.068      128.245       14.383        0.013      333.845        3.426      867.693
12/08/2014  08:06:00      111.765       52.571       12.350       31.594       18.510       28.927      998.204      342.608      836.745        0.879        0.109      123.511       19.275        0.024      333.876        3.480      867.682
12/08/2014  08:07:00       80.843       45.443       26.383       29.682       19.503       27.916      881.029      380.362      779.308        0.567        0.102       92.739       23.569        0.065      333.897        3.514      867.686
12/08/2014  08:08:00       51.650       30.665       30.590       20.366       17.828       19.178      414.773      317.830      367.810        0.282        0.055       60.067        9.655        0.026      333.919        3.550      867.686
12/08/2014  08:09:00       59.650       42.441       15.344       13.808        9.989       18.191      190.658       99.775      330.925        0.311        0.031       73.207        7.271        0.010      333.912        3.538      867.666
12/08/2014  08:10:00       66.456       51.677        8.889       18.701       16.924       13.333      349.714      286.423      177.776        0.399        0.041       84.184        8.540        0.010      333.879        3.484      867.651
12/08/2014  08:11:00       75.166       44.487        5.209       23.305       16.296       15.190      543.125      265.548      230.729        0.435        0.052       87.344       10.158        0.014      333.883        3.491      867.643
12/08/2014  08:12:00       84.492       47.562        2.227       20.974       17.110       16.391      439.888      292.739      268.658        0.520        0.050       96.959       12.977        0.018      333.873        3.475      867.632
12/08/2014  08:13:00       55.691       45.695        9.839       15.589       17.296       14.860      243.013      299.165      220.826        0.302        0.038       72.038        7.337        0.010      333.865        3.462      867.623
12/08/2014  08:14:00       31.065       42.784        2.904       15.876       25.124       14.236      252.052      631.193      202.665        0.194        0.054       52.873       14.292        0.073      333.861        3.454      867.620
12/08/2014  08:15:00       24.936       17.975        3.281       18.305       10.552       12.226      335.073      111.339      149.465        0.078        0.030       30.739        7.680        0.062      333.889        3.501      867.618
12/08/2014  08:16:00       44.390       17.720        1.635       21.976       11.761        9.888      482.945      138.323       97.779        0.150        0.036       47.797        6.897        0.021      333.947        3.598      867.633
12/08/2014  08:17:00       53.664       28.823       10.478       23.320       18.819       16.061      543.800      354.172      257.961        0.249        0.058       60.914       10.905        0.032      333.998        3.683      867.657
12/08/2014  08:18:00       35.361       25.497       -3.962       30.211       15.643       11.796      912.710      244.711      139.149        0.161        0.065       43.595       12.602        0.084      333.893        3.505      867.672
12/08/2014  08:19:00      -12.667       56.760       -8.915       11.403       20.192       12.826      130.036      407.709      164.514        0.208        0.035       58.156        9.853        0.029      333.867        3.466      867.689
12/08/2014  08:20:00      -15.685       30.387        9.469       19.113       31.530       16.486      365.312      994.126      271.777        0.144        0.082       34.196       15.697        0.211      333.936        3.578      867.697
12/08/2014  08:21:00      -20.607       19.924       -0.083       18.906       17.911        9.443      357.445      320.791       89.174        0.079        0.038       28.663        7.966        0.077      333.911        3.537      867.693
12/08/2014  08:22:00      -24.225        0.575       -2.055        8.257        8.784        8.508       68.175       77.166       72.389        0.040        0.011       24.231        4.496        0.034      333.993        3.673      867.672
12/08/2014  08:23:00       -5.198        8.139        6.269       12.024       10.059       12.113      144.565      101.187      146.720        0.026        0.020        9.658       10.556        1.195      334.079        3.814      867.651
12/08/2014  08:24:00       48.297       32.770       11.166       22.634       14.272       11.536      512.301      203.678      133.083        0.219        0.042       58.365        9.907        0.029      333.974        3.642      867.651
12/08/2014  08:25:00       79.581       72.636       38.902       33.538       36.939       39.834     1124.790     1364.503     1586.718        0.860        0.204      107.746       30.249        0.079      334.000        3.685      867.666
12/08/2014  08:26:00       67.292       66.297       59.082       52.714       53.356       37.455     2778.730     2846.831     1402.874        0.972        0.351       94.464       36.822        0.152      333.929        3.567      867.696
12/08/2014  08:27:00       65.302       62.545       47.652       33.070       39.565       26.442     1093.632     1565.379      699.156        0.690        0.168       90.422       24.352        0.073      333.893        3.507      867.735
12/08/2014  08:28:00       64.759       51.892       13.714       24.127       17.105       22.306      582.108      292.566      497.541        0.422        0.069       82.985        7.901        0.009      333.870        3.470      867.766
12/08/2014  08:29:00       61.020       52.042       11.535       27.906       20.130       24.090      778.747      405.219      580.327        0.416        0.088       80.199       12.949        0.026      333.833        3.406      867.782
12/08/2014  08:30:00       43.768       50.970        4.982       29.209       21.307       15.270      853.161      453.999      233.160        0.304        0.077       67.184        9.929        0.022      333.835        3.410      867.789
12/08/2014  08:31:00       46.835       38.819        4.118       34.321       23.141       19.739     1177.963      535.525      389.624        0.291        0.105       60.831        8.134        0.018      333.876        3.479      867.781
12/08/2014  08:32:00      103.493       68.551        2.059       26.575       23.742       19.207      706.218      563.681      368.909        0.853        0.082      124.137        7.268        0.003      333.818        3.383      867.781
12/08/2014  08:33:00       71.610       59.855       39.580       41.436       25.417       25.014     1716.983      645.999      625.713        0.663        0.149       93.331       20.765        0.050      333.922        3.555      867.782
12/08/2014  08:34:00       80.034       58.202       33.362       20.371       13.834       23.501      414.991      191.384      552.299        0.603        0.058       98.959        6.851        0.005      333.843        3.422      867.782
12/08/2014  08:35:00       60.677       36.448       11.418       20.161       24.826       19.322      406.484      616.351      373.334        0.327        0.070       70.783       11.817        0.028      333.814        3.375      867.792
12/08/2014  08:36:00       37.556       46.783       -2.305       19.586       20.661       16.750      383.624      426.859      280.560        0.235        0.055       59.992       14.691        0.060      333.831        3.406      867.806
12/08/2014  08:37:00       33.692       49.046       -8.192       23.940       19.911       17.134      573.137      396.449      293.576        0.244        0.063       59.503       14.307        0.058      333.847        3.431      867.812
12/08/2014  08:38:00       22.288       44.587       -6.254       15.877       18.235       15.404      252.068      332.504      237.290        0.167        0.041       49.848       13.905        0.078      333.885        3.493      867.816
12/08/2014  08:39:00       23.534       24.925       -7.727       12.262       16.209        8.619      150.357      262.733       74.279        0.086        0.024       34.280        9.332        0.074      333.910        3.535      867.815
12/08/2014  08:40:00       24.704       28.029       -0.815       12.789       15.362       12.220      163.556      235.984      149.317        0.097        0.027       37.362        7.848        0.044      333.954        3.608      867.821
12/08/2014  08:41:00       34.297       38.169        1.433       20.783       12.259       17.742      431.948      150.288      314.794        0.177        0.045       51.314       10.585        0.043      333.960        3.620      867.841
12/08/2014  08:42:00       41.574       29.806       10.445        9.473        7.444        9.678       89.741       55.410       93.659        0.148        0.012       51.154        6.657        0.017      333.968        3.632      867.861
12/08/2014  08:43:00       40.878       21.855       -2.272        9.957        9.754        9.933       99.144       95.146       98.663        0.122        0.015       46.353        5.882        0.016      333.969        3.633      867.876
12/08/2014  08:44:00       50.629       39.188        0.320       17.555       17.455       16.888      308.175      304.667      285.199        0.250        0.045       64.024       13.120        0.042      333.975        3.645      867.887
12/08/2014  08:45:00       61.882       38.756       23.085       18.862       14.451       16.013      355.784      208.845      256.413        0.334        0.041       73.016       11.882        0.026      333.984        3.659      867.899
12/08/2014  08:46:00       41.980       38.677       17.677       14.736       12.330       15.873      217.153      152.039      251.966        0.210        0.031       57.081        8.103        0.020      334.004        3.690      867.904
12/08/2014  08:47:00       28.298       19.105       11.209       11.081       13.179       13.365      122.797      173.688      178.636        0.088        0.024       34.144       10.626        0.097      334.022        3.723      867.902
12/08/2014  08:48:00       17.500       17.492       -1.717        9.677        7.777        5.671       93.654       60.482       32.159        0.040        0.009       24.743        2.621        0.011      334.034        3.741      867.911
12/08/2014  08:49:00       17.807       10.740       -1.605       14.834        9.749        9.870      220.051       95.034       97.411        0.042        0.021       20.795        9.691        0.217      334.113        3.871      867.907
12/08/2014  08:50:00       31.618       25.656        4.162       19.371       15.213       14.209      375.221      231.439      201.889        0.124        0.040       40.717        9.400        0.053      334.068        3.797      867.897
12/08/2014  08:51:00       45.249       43.363        2.545       15.062       14.501       13.028      226.850      210.279      169.723        0.227        0.030       62.672        8.915        0.020      334.035        3.741      867.880
12/08/2014  08:52:00       45.005       33.298       -8.112       17.030       11.783       10.474      290.027      138.848      109.697        0.187        0.027       55.984        9.459        0.029      334.010        3.702      867.872
12/08/2014  08:53:00       14.630       11.350       -8.148        9.607       10.918        8.426       92.299      119.207       71.005        0.035        0.014       18.516        7.334        0.157      334.018        3.713      867.879
12/08/2014  08:54:00       18.533       27.090       -5.834       11.396       15.491        5.350      129.871      239.965       28.622        0.075        0.020       32.823        4.206        0.016      334.021        3.718      867.886
12/08/2014  08:55:00       22.165       31.786       -5.113       12.117       12.605       10.975      146.822      158.885      120.444        0.098        0.021       38.751        7.631        0.039      334.060        3.784      867.915
12/08/2014  08:56:00        3.297       50.208      -10.085       15.823       27.690        8.350      250.363      766.714       69.716        0.186        0.054       50.317       11.858        0.056      334.053        3.774      867.946
12/08/2014  08:57:00       -8.824       52.861      -12.364        8.176       13.082        6.618       66.848      171.139       43.794        0.165        0.014       53.593        5.854        0.012      334.039        3.749      867.973
12/08/2014  08:58:00      -38.794       36.621       -0.852       21.068       13.881       11.666      443.855      192.676      136.091        0.181        0.039       53.349       10.849        0.041      334.162        3.954      867.992
12/08/2014  08:59:00      -70.379       18.546       -2.523       13.383       15.635       12.245      179.109      244.460      149.950        0.294        0.029       72.781        6.762        0.009      334.200        4.017      868.006
12/08/2014  09:00:00      -80.324      -12.140       -6.129       24.092       22.397       15.102      580.439      501.635      228.066        0.397        0.066       81.236       14.435        0.032      334.294        4.173      868.019
12/08/2014  09:01:00      -83.673      -32.139        5.405       41.742       32.603       20.546     1742.414     1062.986      422.144        0.564        0.161       89.633       19.148        0.046      334.334        4.239      868.016
12/08/2014  09:02:00      -66.325      -11.748       -7.402       35.533       25.325       18.327     1262.622      641.346      335.880        0.342        0.112       67.357       17.956        0.071      334.324        4.223      868.014
12/08/2014  09:03:00      -58.289      -15.447       -1.104       24.345       33.236       14.042      592.702     1104.602      197.183        0.277        0.095       60.301       13.026        0.047      334.361        4.286      867.999
12/08/2014  09:04:00      -71.866      -17.033       -4.729       17.893       18.279       15.208      320.176      334.128      231.289        0.318        0.044       73.857       13.116        0.032      334.277        4.143      868.001
12/08/2014  09:05:00      -38.168       -6.175       -5.550       10.865       10.647        6.404      118.041      113.359       41.009        0.090        0.014       38.664        7.123        0.034      334.302        4.184      867.995
12/08/2014  09:06:00      -19.771        4.317        0.801       11.200        7.311        9.322      125.448       53.448       86.897        0.034        0.013       20.237        8.780        0.188      334.451        4.433      867.972
12/08/2014  09:07:00       -0.969       14.545       15.246        4.972        9.431        6.620       24.722       88.936       43.823        0.030        0.008       14.577        4.077        0.078      334.536        4.574      867.973
12/08/2014  09:08:00        3.733       18.189       -1.297        6.658        5.605        9.636       44.323       31.420       92.858        0.026        0.008       18.568        4.772        0.066      334.402        4.352      867.978
12/08/2014  09:09:00      -13.783       25.045       23.439       13.449       13.794       14.545      180.869      190.279      211.566        0.097        0.029       28.587        6.713        0.055      334.504        4.520      867.989
12/08/2014  09:10:00       -1.155       25.039       19.996       14.334       28.891       23.225      205.455      834.662      539.410        0.130        0.079       25.065       21.884        0.762      334.508        4.526      868.012
12/08/2014  09:11:00       14.319       27.056       28.576       19.351       20.227       16.367      374.449      409.118      267.889        0.140        0.053       30.611        7.363        0.058      334.509        4.527      868.032
12/08/2014  09:12:00       13.942       24.265       32.399       15.502       20.777       16.348      240.303      431.684      267.245        0.139        0.047       27.985       12.496        0.199      334.539        4.578      868.052
12/08/2014  09:13:00       37.507       32.830       12.334       11.131       15.480       19.163      123.898      239.618      367.215        0.168        0.037       49.846       12.648        0.064      334.381        4.317      868.063
12/08/2014  09:14:00        8.517       26.357       -6.059       18.735       11.554        8.304      351.014      133.485       68.961        0.068        0.028       27.699        5.947        0.046      334.350        4.266      868.064
12/08/2014  09:15:00        8.252       30.952       -8.407       10.703       15.020        7.661      114.560      225.596       58.693        0.075        0.020       32.033        5.560        0.030      334.371        4.301      868.067
12/08/2014  09:16:00       -8.981       23.028       -5.749       14.607       15.487        9.019      213.361      239.844       81.349        0.059        0.027       24.717        8.649        0.122      334.359        4.279      868.073
12/08/2014  09:17:00      -41.237       18.265       -5.992       14.949       15.588        8.977      223.483      242.973       80.595        0.131        0.027       45.101        7.107        0.025      334.452        4.435      868.061
12/08/2014  09:18:00      -11.064       14.548       -3.574       12.727       14.306        6.075      161.988      204.675       36.906        0.038        0.020       18.277        3.940        0.046      334.486        4.491      868.070
12/08/2014  09:19:00      -39.433        7.624       -1.881       15.702        9.109        8.707      246.540       82.974       75.819        0.101        0.020       40.163        7.872        0.038      334.554        4.602      868.069
12/08/2014  09:20:00      -37.455       -9.370        0.873        9.851       11.103        8.410       97.048      123.271       70.731        0.089        0.015       38.609        6.271        0.026      334.589        4.659      868.049
12/08/2014  09:21:00        7.359        6.921        1.956       29.066       19.969       10.789      844.809      398.768      116.394        0.073        0.068       10.102        6.365        0.397      334.607        4.691      868.043
12/08/2014  09:22:00       22.965       23.252       19.706       15.011       15.215       16.432      225.326      231.508      270.018        0.109        0.036       32.681        8.458        0.067      334.619        4.712      868.034
12/08/2014  09:23:00       -4.319       15.452       44.284       10.845       20.683       13.861      117.621      427.805      192.127        0.148        0.037       16.045       13.525        0.711      334.814        5.033      868.020
12/08/2014  09:24:00        3.186       47.800       54.376       14.530       21.768       14.439      211.109      473.863      208.492        0.307        0.045       47.906       11.041        0.053      334.625        4.722      868.032
12/08/2014  09:25:00       41.166       46.188       39.837       43.963       29.921       24.612     1932.704      895.294      605.731        0.442        0.172       61.871       24.569        0.158      334.574        4.636      868.050
12/08/2014  09:26:00       76.317       73.630       50.087       47.931       32.296       25.729     2297.383     1043.023      661.973        0.888        0.200      106.045       23.256        0.048      334.482        4.483      868.055
12/08/2014  09:27:00       75.806       56.420       47.817       41.135       45.955       33.323     1692.107     2111.856     1110.429        0.806        0.246       94.498       22.199        0.055      334.430        4.397      868.072
12/08/2014  09:28:00       78.433       59.195       52.845       36.565       39.510       30.457     1337.021     1561.006      927.600        0.814        0.191       98.264       26.511        0.073      334.466        4.457      868.080
12/08/2014  09:29:00       88.993       59.700       34.030       32.449       32.897       31.770     1052.963     1082.189     1009.341        0.789        0.157      107.163       22.929        0.046      334.431        4.401      868.075
12/08/2014  09:30:00       40.423       15.135       21.622       32.300       30.040       25.871     1043.286      902.383      669.318        0.247        0.131       43.164       16.299        0.143      334.494        4.503      868.065
12/08/2014  09:31:00       22.644       22.709       38.549       28.465       28.330       20.392      810.266      802.573      415.837        0.227        0.101       32.070       15.122        0.222      334.550        4.595      868.060
12/08/2014  09:32:00       74.872       70.150       13.159       41.885       26.384       39.415     1754.318      696.127     1553.538        0.735        0.200      102.601       31.407        0.094      334.502        4.516      868.053
12/08/2014  09:33:00       67.885       47.397        9.923       45.490       33.264       25.456     2069.381     1106.508      648.007        0.539        0.191       82.794       21.130        0.065      334.481        4.481      868.047
12/08/2014  09:34:00      101.119       67.118        6.629       22.806       24.545       22.737      520.110      602.451      516.952        0.821        0.082      121.367       17.261        0.020      334.423        4.387      868.050
12/08/2014  09:35:00       91.546       65.959        2.882       31.798       28.159       24.112     1011.106      792.908      581.372        0.756        0.119      112.833       10.504        0.009      334.410        4.366      868.054
12/08/2014  09:36:00       86.513       43.512       -1.539       26.173       21.660       18.995      685.049      469.148      360.791        0.545        0.076       96.839       14.576        0.023      334.416        4.375      868.053
12/08/2014  09:37:00       99.152       48.883       -0.100       26.968       22.169       23.461      727.256      491.468      550.431        0.699        0.088      110.547       18.192        0.027      334.418        4.379      868.048
12/08/2014  09:38:00       84.582       66.640       -1.902       25.342       20.875       18.111      642.215      435.754      327.991        0.650        0.070      107.680        8.194        0.006      334.459        4.447      868.053
12/08/2014  09:39:00       76.887       67.962       18.724       34.397       26.117       25.776     1183.184      682.110      664.384        0.670        0.126      102.618       19.566        0.036      334.563        4.619      868.057
12/08/2014  09:40:00       26.782       52.843       28.976       35.007       32.320       27.142     1225.517     1044.589      736.682        0.368        0.150       59.242       10.443        0.031      334.678        4.809      868.047
12/08/2014  09:41:00       15.855       44.821       64.692       27.785       33.697       23.749      771.991     1135.477      564.031        0.446        0.124       47.542       17.806        0.140      334.699        4.845      868.036
12/08/2014  09:42:00       94.074       91.932       54.934       51.531       27.400       36.805     2655.458      750.782     1354.621        1.254        0.238      131.535       37.434        0.081      334.554        4.603      868.038
12/08/2014  09:43:00      101.172       92.146       54.471       35.715       27.828       33.747     1275.528      774.410     1138.863        1.244        0.159      136.845       26.002        0.036      334.568        4.626      868.031
12/08/2014  09:44:00       75.740       89.409       67.188       44.659       34.006       35.600     1994.426     1156.418     1267.363        1.133        0.221      117.177       26.719        0.052      334.571        4.628      868.025
12/08/2014  09:45:00      101.754       92.051       84.277       59.589       45.749       43.056     3550.810     2092.973     1853.842        1.671        0.375      137.213       31.179        0.052      334.595        4.668      868.022
12/08/2014  09:46:00       82.812       65.968       84.224       51.932       45.313       37.485     2696.892     2053.272     1405.098        1.223        0.308      105.876       27.695        0.068      334.562        4.615      868.002
12/08/2014  09:47:00       91.499       69.590       64.686       55.894       35.524       40.406     3124.141     1261.940     1632.648        1.171        0.301      114.955       27.479        0.057      334.493        4.500      867.988
12/08/2014  09:48:00       77.945       39.559       60.054       47.099       36.398       26.956     2218.344     1324.794      726.618        0.776        0.213       87.409       20.447        0.055      334.502        4.517      867.982
12/08/2014  09:49:00      114.627       77.498       37.890       50.152       41.564       46.302     2515.215     1727.545     2143.898        1.348        0.319      138.367       31.509        0.052      334.498        4.510      867.984
12/08/2014  09:50:00       87.303       45.669       24.274       44.953       37.087       27.451     2020.817     1375.481      753.578        0.722        0.207       98.527       23.558        0.057      334.523        4.551      868.000
12/08/2014  09:51:00       58.766       26.371       35.685       28.949       28.538       15.696      838.063      814.393      246.375        0.366        0.095       64.412        6.266        0.009      334.609        4.696      868.017
12/08/2014  09:52:00       54.212       35.972        6.823       24.898       27.200       19.809      619.913      739.854      392.399        0.302        0.088       65.061        6.888        0.011      334.568        4.626      868.029
12/08/2014  09:53:00       62.165       49.301        2.983       33.221       21.075       19.144     1103.650      444.135      366.475        0.411        0.096       79.342       11.837        0.022      334.514        4.537      868.042
12/08/2014  09:54:00       15.117       24.220        4.134       18.313       14.920       10.900      335.381      222.592      118.815        0.075        0.034       28.551        6.517        0.052      334.598        4.675      868.059
12/08/2014  09:55:00       14.081       51.663      -13.256       14.956       32.091       10.550      223.678     1029.855      111.300        0.220        0.068       53.547       10.234        0.037      334.542        4.582      868.081
12/08/2014  09:56:00       -2.742       61.541      -13.297       17.965       25.770       20.745      322.758      664.114      430.375        0.269        0.071       61.602       16.323        0.070      334.646        4.756      868.108
12/08/2014  09:57:00       -2.151       52.132        0.961       17.190       15.174       18.310      295.485      230.248      335.267        0.179        0.043       52.176       11.481        0.048      334.638        4.742      868.102
12/08/2014  09:58:00        7.008       37.159        3.928        9.586       19.629       12.968       91.899      385.283      168.179        0.105        0.032       37.814        9.805        0.067      334.631        4.731      868.079
12/08/2014  09:59:00       -6.496       46.262        0.682       16.399       26.686       19.053      268.922      712.144      363.034        0.176        0.067       46.715        7.896        0.029      334.677        4.809      868.054
12/08/2014  10:00:00       -9.557       59.428       -3.604       21.172       31.092       11.657      448.237      966.693      135.895        0.259        0.078       60.191        3.403        0.003      334.648        4.758      868.056
12/08/2014  10:01:00        4.067       61.570       -7.176       16.946       19.885       15.906      287.169      395.420      252.992        0.240        0.047       61.704       15.075        0.060      334.646        4.756      868.068
12/08/2014  10:02:00       16.115       50.357       -0.955       15.310       14.367       16.563      234.388      206.405      274.342        0.176        0.036       52.872       12.150        0.053      334.692        4.833      868.084
12/08/2014  10:03:00       29.208       31.396        4.561       15.649       15.823       16.906      244.889      250.365      285.817        0.132        0.039       42.881       11.743        0.075      334.740        4.912      868.102
12/08/2014  10:04:00       15.510       23.610        0.702       22.323       14.958       11.333      498.323      223.749      128.445        0.082        0.043       28.249        8.215        0.085      334.792        4.999      868.124
12/08/2014  10:05:00       15.191       56.733       -6.183       24.424       39.729       17.041      596.510     1578.415      290.390        0.298        0.123       58.732       20.413        0.121      334.758        4.942      868.156
12/08/2014  10:06:00        9.869       73.768      -14.630       12.872       23.117        8.330      165.686      534.405       69.388        0.326        0.038       74.426        5.969        0.006      334.731        4.899      868.182
12/08/2014  10:07:00       -5.428       36.483       -2.705       17.643       21.148       13.854      311.268      447.224      191.932        0.116        0.048       36.884       12.731        0.119      334.825        5.053      868.201
12/08/2014  10:08:00       17.215       46.773        1.874       21.309       26.383       15.528      454.072      696.036      241.119        0.194        0.070       49.841       16.341        0.107      334.835        5.070      868.196
12/08/2014  10:09:00       32.094       98.538      -11.217       30.081       23.755       20.409      904.879      564.304      416.520        0.638        0.094      103.633       13.724        0.018      334.760        4.945      868.161
12/08/2014  10:10:00       51.304       76.277      -12.444       40.418       44.136       23.363     1633.616     1947.980      545.852        0.637        0.206       91.926       19.556        0.045      334.873        5.133      868.087
12/08/2014  10:11:00      108.303       56.769        6.250       50.530       31.317       34.806     2553.234      980.737     1211.453        0.987        0.237      122.279       19.710        0.026      334.933        5.232      868.043
12/08/2014  10:12:00       15.331       17.302       24.251       31.607       43.818       28.419      999.009     1920.024      807.612        0.242        0.186       23.117       17.553        0.577      335.039        5.410      868.065
12/08/2014  10:13:00        0.819       11.983        4.214       32.165       16.181       17.228     1034.589      261.818      296.811        0.088        0.080       12.011       14.493        1.456      334.852        5.098      868.109
12/08/2014  10:14:00       -6.688       39.314       -7.431        7.992        8.258        7.920       63.872       68.199       62.734        0.092        0.010       39.879        4.428        0.012      334.748        4.925      868.132
12/08/2014  10:15:00        3.082       14.110       -4.205        9.261       17.785       12.425       85.763      316.321      154.376        0.039        0.028       14.443       10.882        0.568      334.836        5.072      868.128
12/08/2014  10:16:00       27.830       40.763        5.530       15.910       22.854       16.609      253.135      522.289      275.851        0.176        0.053       49.357       10.018        0.041      334.829        5.060      868.096
12/08/2014  10:17:00       18.434      128.323      -15.060       18.598       33.172       16.275      345.895     1100.400      264.884        0.937        0.086      129.640       14.250        0.012      334.839        5.077      868.091
12/08/2014  10:18:00        6.109       62.809       -4.463       15.489       34.628       20.392      239.918     1199.068      415.833        0.293        0.093       63.105       22.348        0.125      334.900        5.176      868.119
12/08/2014  10:19:00      -16.044       12.631        0.477       35.918       17.662       14.202     1290.110      311.940      201.708        0.111        0.090       20.419       10.822        0.281      334.970        5.293      868.149
12/08/2014  10:20:00      -50.822      -37.808      -12.388       36.952       20.109       19.996     1365.486      404.375      399.843        0.317        0.108       63.343        9.734        0.024      334.989        5.326      868.173
12/08/2014  10:21:00      -57.255       -8.361       -5.923       22.911       25.716       12.388      524.913      661.306      153.452        0.236        0.067       57.863       10.269        0.031      334.991        5.328      868.152
12/08/2014  10:22:00       10.466       18.691       15.485       23.725       15.475       15.137      562.862      239.464      229.142        0.086        0.052       21.422       14.031        0.429      335.145        5.585      868.104
12/08/2014  10:23:00      123.099       52.861       -8.488       34.769       24.539       24.961     1208.883      602.148      623.074        1.023        0.122      133.969        6.290        0.002      335.019        5.375      868.034
12/08/2014  10:24:00      118.692       70.454       21.172       35.406       27.518       35.586     1253.584      757.224     1266.383        1.139        0.164      138.027       21.427        0.024      335.049        5.426      867.988
12/08/2014  10:25:00       33.564       70.888       65.909       38.927       36.551       31.422     1515.338     1336.009      987.350        0.717        0.192       78.433       25.840        0.109      335.174        5.633      867.972
12/08/2014  10:26:00       30.509       49.983       57.899       43.224       34.846       32.473     1868.273     1214.228     1054.499        0.546        0.207       58.559       31.412        0.288      335.093        5.499      867.949
12/08/2014  10:27:00       53.405       27.866       30.448       40.744       30.986       25.282     1660.067      960.113      639.176        0.391        0.163       60.238       20.088        0.111      335.092        5.497      867.917
12/08/2014  10:28:00       20.329       32.292       39.369       32.974       36.282       19.514     1087.254     1316.410      380.808        0.289        0.139       38.158       13.608        0.127      335.230        5.725      867.902
12/08/2014  10:29:00       74.936     -101.801      -11.796       58.836       42.496       19.445     3461.664     1805.917      378.126        1.088        0.282      126.408       30.489        0.058      335.120        5.544      867.892
12/08/2014  10:30:00       47.607      -24.748       16.368       49.790       37.946       30.269     2479.031     1439.896      916.242        0.399        0.242       53.655       29.741        0.307      335.210        5.692      867.874
12/08/2014  10:31:00        9.377        8.150       39.731       21.500       17.744       14.354      462.243      314.852      206.032        0.136        0.049       12.424        8.736        0.494      335.360        5.940      867.839
12/08/2014  10:32:00       11.083       27.891       29.498       25.756       19.396       24.773      663.347      376.199      613.723        0.171        0.083       30.013       16.731        0.311      335.269        5.789      867.806
12/08/2014  10:33:00       40.339       53.764       58.440       24.474       25.719       17.315      598.989      661.455      299.814        0.475        0.078       67.214       14.422        0.046      335.076        5.471      867.805
12/08/2014  10:34:00       30.576       24.271       29.048       28.134       33.314       27.265      791.542     1109.813      743.386        0.251        0.132       39.038       22.782        0.341      335.136        5.570      867.823
12/08/2014  10:35:00       36.858       17.866       36.173       32.960       53.128       35.398     1086.374     2822.544     1253.009        0.407        0.258       40.960       31.047        0.575      335.202        5.679      867.810
12/08/2014  10:36:00       24.095       36.843       33.231       25.619       15.969       20.502      656.338      254.996      420.326        0.219        0.067       44.022       11.423        0.067      335.189        5.657      867.772
12/08/2014  10:37:00       12.132       31.293        5.858       20.883       15.358       15.066      436.097      235.861      226.997        0.103        0.045       33.563       12.564        0.140      335.177        5.638      867.766
12/08/2014  10:38:00      -39.632       22.266       -7.323       19.121       22.097       12.596      365.630      488.272      158.667        0.157        0.051       45.458       10.325        0.052      335.194        5.663      867.797
12/08/2014  10:39:00      -70.000      -21.241       -5.195       24.074       25.623       14.895      579.552      656.515      221.875        0.342        0.073       73.152       11.602        0.025      335.273        5.796      867.838
12/08/2014  10:40:00      -53.527      -26.228        2.123       33.234       25.191       15.340     1104.479      634.601      235.318        0.277        0.099       59.608       12.835        0.046      335.363        5.946      867.869
12/08/2014  10:41:00      -48.962      -28.711       -3.212       17.674       15.358       13.042      312.353      235.880      170.088        0.197        0.036       56.759       11.195        0.039      335.297        5.836      867.870
12/08/2014  10:42:00      -43.746      -38.673       -6.371       10.676       11.485        8.477      113.967      131.912       71.863        0.188        0.016       58.390        5.203        0.008      335.237        5.735      867.875
12/08/2014  10:43:00      -37.368      -26.693        0.287       24.348       23.504       15.459      592.835      552.450      238.990        0.175        0.069       45.922       12.746        0.077      335.331        5.893      867.900
12/08/2014  10:44:00      -89.178      -72.966        0.101       45.281       44.686       22.635     2050.408     1996.857      512.324        0.892        0.228      115.225       22.657        0.039      335.406        6.018      867.912
12/08/2014  10:45:00      -95.596      -82.077       -6.490       29.947       27.724       24.156      896.816      768.636      583.502        0.908        0.112      125.997       17.598        0.020      335.334        5.898      867.901
12/08/2014  10:46:00      -75.732      -38.714        2.156       49.137       28.984       22.690     2414.447      840.044      514.839        0.550        0.188       85.053       27.334        0.103      335.401        6.010      867.870
12/08/2014  10:47:00      -39.180      -16.558        4.940       17.209       32.379       14.136      296.145     1048.378      199.840        0.169        0.077       42.535        9.013        0.045      335.379        5.974      867.831
12/08/2014  10:48:00      -30.641      -56.037       -0.348       20.317       30.859       17.919      412.771      952.247      321.102        0.288        0.084       63.868       19.360        0.092      335.450        6.090      867.811
12/08/2014  10:49:00     -116.202      -69.747      -18.730       31.195       30.206       19.128      973.152      912.423      365.891        1.048        0.113      135.528       11.854        0.008      335.417        6.038      867.808
12/08/2014  10:50:00      -78.168      -54.868        0.200       57.386       48.924       24.521     3293.125     2393.596      601.281        0.770        0.314       95.503       24.688        0.067      335.487        6.153      867.796
12/08/2014  10:51:00     -117.809     -101.906       -3.140       51.179       37.346       25.024     2619.326     1394.723      626.199        1.446        0.232      155.769       23.104        0.022      335.363        5.945      867.772
12/08/2014  10:52:00     -147.384      -52.990       -4.199       53.514       35.135       22.865     2863.737     1234.455      522.787        1.458        0.231      156.621       23.536        0.023      335.390        5.991      867.733
12/08/2014  10:53:00     -159.385      -51.321      -12.649       43.176       27.990       21.953     1864.183      783.447      481.932        1.566        0.156      167.444       23.831        0.020      335.425        6.049      867.688
12/08/2014  10:54:00     -102.556      -49.713        4.951       64.152       63.531       36.372     4115.471     4036.150     1322.905        1.124        0.474      113.970       37.971        0.111      335.460        6.109      867.667
12/08/2014  10:55:00     -114.377       13.315       -1.317       55.223       42.050       25.970     3049.574     1768.204      674.439        0.938        0.275      115.149       29.059        0.064      335.442        6.080      867.640
12/08/2014  10:56:00      -95.877       13.027       -0.755       37.804       34.509       24.306     1429.176     1190.883      590.767        0.629        0.161       96.758       20.822        0.046      335.546        6.252      867.592
12/08/2014  10:57:00      -49.060      -15.880        6.093       33.045       47.936       22.560     1091.950     2297.846      508.936        0.330        0.195       51.566       17.737        0.118      335.638        6.407      867.559
12/08/2014  10:58:00     -126.789      -71.228       -4.416       83.061       45.778       28.421     6899.193     2095.661      807.748        1.548        0.490      145.427       36.871        0.064      335.496        6.168      867.543
12/08/2014  10:59:00     -186.006     -130.370      -16.122       66.747       53.276       33.225     4455.210     2838.283     1103.900        3.012        0.420      227.145       34.074        0.023      335.445        6.079      867.504
12/08/2014  11:00:00     -110.088      -47.308       -0.793       71.641       45.630       32.211     5132.442     2082.086     1037.524        1.130        0.413      119.823       39.769        0.110      335.452        6.094      867.481
12/08/2014  11:01:00     -144.070      -45.449      -15.461       34.397       24.838       19.780     1183.158      616.910      391.249        1.263        0.110      151.068       19.573        0.017      335.460        6.109      867.465
12/08/2014  11:02:00     -111.698       -6.941       -8.028       42.228       27.634       22.933     1783.217      763.639      525.919        0.783        0.154      111.914       23.301        0.043      335.565        6.285      867.449
12/08/2014  11:03:00      -75.096      -42.583        2.253       37.472       26.065       20.863     1404.168      679.364      435.251        0.499        0.126       86.329       18.448        0.046      335.723        6.547      867.447
12/08/2014  11:04:00     -106.750      -89.593       -3.338       71.613       56.312       38.581     5128.488     3171.074     1488.514        1.461        0.489      139.364       41.043        0.087      335.743        6.578      867.479
12/08/2014  11:05:00     -148.118     -108.644       -7.950       69.240       58.468       35.978     4794.167     3418.520     1294.437        2.165        0.475      183.691       31.143        0.029      335.679        6.471      867.513
12/08/2014  11:06:00     -119.278      -71.240        4.582       92.189       64.575       32.915     8498.738     4169.920     1083.366        1.653        0.688      138.933       43.072        0.096      335.736        6.567      867.541
12/08/2014  11:07:00     -119.687      -45.779       -5.696       50.607       82.358       37.809     2561.112     6782.898     1429.538        1.361        0.539      128.143       31.472        0.060      335.697        6.502      867.559
12/08/2014  11:08:00     -182.885       14.000      -10.151       76.020       61.674       25.842     5779.076     3803.642      667.814        2.200        0.513      183.420       18.991        0.011      335.700        6.506      867.563
12/08/2014  11:09:00     -120.382      -64.630       -6.371       63.782       41.224       27.509     4068.096     1699.381      756.720        1.262        0.326      136.634       26.707        0.038      335.699        6.506      867.553
12/08/2014  11:10:00     -158.084      -36.460      -12.676       35.857       52.864       23.294     1285.743     2794.585      542.598        1.555        0.231      162.234       20.515        0.016      335.680        6.475      867.544
12/08/2014  11:11:00      -85.406      -63.553        7.067       50.669       39.547       27.130     2567.353     1564.001      736.037        0.812        0.243      106.457       26.311        0.061      335.788        6.657      867.544
12/08/2014  11:12:00      -73.573      -17.265        6.630       53.421       73.772       29.755     2853.750     5442.260      885.364        0.747        0.459       75.572       21.853        0.084      335.769        6.624      867.539
12/08/2014  11:13:00     -151.006      -71.821       -7.299       47.085       33.734       22.722     2216.960     1137.970      516.290        1.594        0.194      167.216       18.893        0.013      335.792        6.661      867.520
12/08/2014  11:14:00     -144.008      -78.396      -11.705       34.212       34.223       21.239     1170.434     1171.221      451.109        1.491        0.140      163.964       17.596        0.012      335.720        6.541      867.500
12/08/2014  11:15:00     -126.944      -45.795       -3.474       57.571       41.548       24.506     3314.456     1726.242      600.564        1.193        0.282      134.952       28.390        0.044      335.785        6.650      867.484
12/08/2014  11:16:00     -137.216      -45.195       -4.377       26.213       18.426       17.361      687.142      339.520      301.390        1.111        0.066      144.467       17.856        0.015      335.722        6.545      867.459
12/08/2014  11:17:00      -69.140      -14.545       -2.466       35.638       47.617       16.071     1270.039     2267.349      258.269        0.440        0.190       70.653       16.906        0.057      335.810        6.693      867.422
12/08/2014  11:18:00      -56.135       13.435       -3.339       32.140       18.678       13.595     1032.997      348.868      184.828        0.245        0.078       57.720       13.763        0.057      335.850        6.757      867.394
12/08/2014  11:19:00      -13.241      -12.522        4.882       14.931       17.257       12.759      222.940      297.797      162.790        0.052        0.034       18.225        9.785        0.288      336.015        7.033      867.378
12/08/2014  11:20:00      -37.592      -23.172        6.694       40.577       34.412       19.240     1646.505     1184.175      370.192        0.260        0.160       44.160       19.290        0.191      336.063        7.113      867.372
12/08/2014  11:21:00     -116.911      -41.023       -4.215       23.873       29.806       13.488      569.906      888.402      181.928        0.850        0.082      123.900        8.438        0.005      335.951        6.926      867.364
12/08/2014  11:22:00      -99.993      -34.961       -0.601       41.194       38.828       23.362     1696.909     1507.633      545.803        0.749        0.188      105.928       26.306        0.062      335.978        6.973      867.356
12/08/2014  11:23:00      -84.802      -64.314       -3.022       39.439       34.354       24.348     1555.404     1180.170      592.804        0.733        0.166      106.432       22.631        0.045      335.967        6.951      867.343
12/08/2014  11:24:00     -113.459      -25.194       -5.384       32.224       27.899       18.400     1038.402      778.331      338.568        0.785        0.108      116.223       12.473        0.012      335.892        6.828      867.324
12/08/2014  11:25:00      -99.450      -32.646      -12.567       20.432       35.144       13.480      417.481     1235.094      181.700        0.647        0.092      104.672        6.946        0.004      335.992        6.993      867.297
12/08/2014  11:26:00      -49.312      -38.863       -5.143       37.347       23.513       20.445     1394.797      552.874      417.996        0.317        0.118       62.785       24.263        0.149      336.072        7.126      867.291
12/08/2014  11:27:00      -35.082      -74.350       -7.368       25.932       28.404       15.301      672.484      806.767      234.109        0.426        0.086       82.211       10.902        0.018      335.947        6.919      867.270
12/08/2014  11:28:00      -38.669      -64.664        0.275       18.795       24.944       13.046      353.266      622.220      170.211        0.341        0.057       75.344        4.237        0.003      335.948        6.921      867.253
12/08/2014  11:29:00      -18.836      -60.657        0.098        9.674       15.337       13.798       93.593      235.237      190.372        0.228        0.026       63.514        5.395        0.007      336.020        7.041      867.233
12/08/2014  11:30:00       -6.012      -16.116       -6.512       15.333       18.703       13.403      235.086      349.806      179.631        0.055        0.038       17.201       12.895        0.562      336.073        7.129      867.219
12/08/2014  11:31:00       21.157       19.070        9.550       17.989       11.796       15.534      323.604      139.156      241.318        0.080        0.035       28.483       14.187        0.248      336.144        7.247      867.207
12/08/2014  11:32:00       18.339       16.437        0.702       14.717       15.129       10.469      216.580      228.875      109.604        0.058        0.028       24.627        8.292        0.113      336.096        7.167      867.201
12/08/2014  11:33:00       -1.231        8.373       13.536        6.740        9.414       10.144       45.433       88.629      102.896        0.025        0.012        8.463        7.776        0.844      336.303        7.515      867.198
12/08/2014  11:34:00        1.038       22.113        7.933        9.292       12.273       12.783       86.335      150.622      163.400        0.048        0.020       22.137        8.653        0.153      336.248        7.421      867.224
12/08/2014  11:35:00       41.238       34.677       10.532       11.216       10.694       15.190      125.801      114.369      230.721        0.174        0.024       53.880        8.731        0.026      336.148        7.256      867.245
12/08/2014  11:36:00       53.392       39.550       27.485       16.406       13.211       15.823      269.164      174.528      250.366        0.293        0.035       66.445        9.409        0.020      336.188        7.321      867.269
12/08/2014  11:37:00       55.742       29.720       16.102       34.330       21.370       21.644     1178.527      456.684      468.442        0.318        0.105       63.170       20.585        0.106      336.209        7.356      867.273
12/08/2014  11:38:00       34.126       27.704       13.682       38.105       22.960       19.234     1452.015      527.139      369.957        0.223        0.117       43.956       15.398        0.123      336.248        7.422      867.286
12/08/2014  11:39:00       70.588       43.931        7.869       23.267       21.704       14.959      541.364      471.078      223.762        0.411        0.062       83.142       12.059        0.021      336.189        7.323      867.303
12/08/2014  11:40:00       72.815       25.412        0.729       25.958       27.902       22.526      673.830      778.546      507.403        0.395        0.098       77.121       12.203        0.025      336.189        7.324      867.311
12/08/2014  11:41:00       73.297       56.966        3.171       22.948       21.104       25.234      526.611      445.359      636.740        0.512        0.080       92.830       19.101        0.042      336.147        7.254      867.310
12/08/2014  11:42:00       58.661       51.453       -4.306       30.005       18.708       18.220      900.277      349.977      331.975        0.384        0.079       78.029       15.404        0.039      336.120        7.208      867.295
12/08/2014  11:43:00       21.732       18.309       21.462       24.308       20.522       24.267      590.872      421.151      588.903        0.143        0.080       28.417       17.326        0.372      336.299        7.506      867.282
12/08/2014  11:44:00       27.104       34.710       32.221       16.646       24.845       16.806      277.092      617.280      282.450        0.208        0.059       44.039       16.707        0.144      336.191        7.325      867.286
12/08/2014  11:45:00        0.202       11.838       36.351       16.631       15.007        9.989      276.593      225.223       99.789        0.103        0.030       11.840        8.320        0.494      336.394        7.667      867.286
12/08/2014  11:46:00        4.108        0.605       18.464       12.670       11.201       11.210      160.519      125.452      125.674        0.038        0.021        4.153        5.645        1.848      336.482        7.813      867.274
12/08/2014  11:47:00       -4.399       -4.774        0.583       28.235       19.741       23.076      797.194      389.705      532.491        0.088        0.086        6.492       19.682        9.192      336.350        7.593      867.247
12/08/2014  11:48:00       -5.973       23.052       -3.521       19.853       22.408       11.663      394.141      502.114      136.018        0.081        0.052       23.813        8.909        0.140      336.326        7.553      867.206
12/08/2014  11:49:00      -12.076       31.548      -10.150       18.521       27.413       20.849      343.033      751.476      434.700        0.139        0.076       33.780       14.039        0.173      336.305        7.518      867.192
12/08/2014  11:50:00       -7.516        5.184      -19.345       18.613       11.956       10.611      346.460      142.945      112.586        0.053        0.030        9.131        4.246        0.216      336.331        7.563      867.181
12/08/2014  11:51:00      -21.514        8.401       -9.067       19.751       33.091       11.881      390.091     1095.040      141.157        0.112        0.081       23.096       12.059        0.273      336.323        7.548      867.167
12/08/2014  11:52:00      -40.347       13.463       -6.238       12.928       13.795       13.343      167.124      190.310      178.049        0.119        0.027       42.534        6.851        0.026      336.298        7.506      867.142
12/08/2014  11:53:00      -40.863       -3.809       -9.437       11.970       24.167       10.155      143.283      584.037      103.116        0.130        0.042       41.040        9.025        0.048      336.311        7.528      867.131
12/08/2014  11:54:00      -41.392        6.754       -8.156       17.673       18.068       13.330      312.331      326.468      177.687        0.132        0.041       41.939        8.834        0.044      336.338        7.571      867.112
12/08/2014  11:55:00       -4.384        2.711       -6.709       21.020        6.400        7.061      441.860       40.963       49.856        0.030        0.027        5.155        7.058        1.875      336.342        7.577      867.096
12/08/2014  11:56:00      -11.826       23.027       22.498       14.525        9.969       14.261      210.962       99.389      203.374        0.084        0.026       25.887       11.240        0.189      336.380        7.643      867.071
12/08/2014  11:57:00      -31.289       20.701        1.566       24.258       18.640       14.828      588.449      347.449      219.858        0.128        0.058       37.517        9.249        0.061      336.353        7.597      867.045
12/08/2014  11:58:00       -9.373      -10.125        6.507       12.163       16.026       13.925      147.942      256.829      193.918        0.042        0.030       13.797       13.842        1.007      336.519        7.875      867.017
12/08/2014  11:59:00       17.002       22.358       51.329       33.500       25.622       20.736     1122.252      656.482      429.976        0.282        0.110       28.089       20.539        0.535      336.445        7.752      866.990
12/08/2014  12:00:00       27.892       31.482       50.226       34.568       30.061       19.190     1194.941      903.667      368.247        0.338        0.123       42.060       19.289        0.210      336.334        7.566      866.971
12/08/2014  12:01:00       23.009        3.355       23.741       24.152       22.168       23.598      583.315      491.401      556.884        0.137        0.082       23.252       20.273        0.760      336.389        7.657      866.962
12/08/2014  12:02:00       27.452       -0.729       35.642       26.397       26.408       26.165      696.782      697.395      684.620        0.205        0.104       27.462       19.823        0.521      336.428        7.722      866.955
12/08/2014  12:03:00       17.697       -5.957       35.763       26.562       25.281       24.486      705.564      639.138      599.557        0.179        0.097       18.673       15.985        0.733      336.490        7.825      866.948
12/08/2014  12:04:00       -1.553       26.305       45.753       23.074       27.657       13.655      532.401      764.892      186.447        0.214        0.074       26.351       13.524        0.263      336.455        7.767      866.942
12/08/2014  12:05:00        4.624       37.484       59.163       22.922       28.948       20.497      525.415      838.002      420.125        0.335        0.089       37.769       19.055        0.255      336.454        7.766      866.908
12/08/2014  12:06:00       29.902       49.365       37.788       23.538       24.930       25.214      554.054      621.526      635.743        0.328        0.091       57.715        8.111        0.020      336.408        7.690      866.892
12/08/2014  12:07:00       33.677       30.548       43.278       37.902       36.002       26.468     1436.550     1296.133      700.551        0.369        0.172       45.468       16.610        0.133      336.427        7.721      866.893
12/08/2014  12:08:00       74.107       42.699        9.440       15.409       16.143       15.396      237.447      260.582      237.030        0.407        0.037       85.528        5.206        0.004      336.254        7.433      866.883
12/08/2014  12:09:00       69.181       44.386        6.205       14.185       12.998       15.717      201.200      168.957      247.013        0.371        0.031       82.195        8.687        0.011      336.324        7.549      866.880
12/08/2014  12:10:00       65.234       53.208        7.091       21.264       20.963       24.197      452.162      439.433      585.512        0.431        0.074       84.182       19.154        0.052      336.271        7.462      866.861
12/08/2014  12:11:00       36.246       18.537        9.296       19.298       17.034       18.034      372.415      290.162      325.222        0.137        0.049       40.711       10.890        0.072      336.298        7.505      866.860
12/08/2014  12:12:00       61.758       42.719        0.994       26.736       25.516       17.316      714.831      651.048      299.842        0.365        0.083       75.093       11.743        0.024      336.306        7.520      866.856
12/08/2014  12:13:00       96.928       97.103       25.166       37.225       32.883       33.431     1385.728     1081.291     1117.616        1.152        0.179      137.201       24.204        0.031      336.240        7.409      866.841
12/08/2014  12:14:00       73.515       66.647       17.246       21.811       21.144       22.435      475.706      447.050      503.349        0.578        0.071       99.228       16.915        0.029      336.228        7.389      866.845
12/08/2014  12:15:00      118.884       63.083        5.769       26.832       24.227       25.350      719.936      586.936      642.619        1.005        0.097      134.584       15.563        0.013      336.274        7.465      866.848
12/08/2014  12:16:00      131.181       69.469       -3.668       29.338       28.294       26.284      860.695      800.568      690.837        1.220        0.118      148.440       15.583        0.011      336.219        7.374      866.841
12/08/2014  12:17:00      114.102       62.129        3.390       28.281       27.272       17.327      799.800      743.781      300.227        0.937        0.092      129.920       13.040        0.010      336.190        7.326      866.840
12/08/2014  12:18:00      117.233       66.701       10.675       25.184       24.578       20.747      634.235      604.087      430.442        0.999        0.083      134.880        6.296        0.002      336.189        7.324      866.855
12/08/2014  12:19:00      129.125       70.758        8.796       27.339       22.716       18.531      747.420      516.029      343.382        1.168        0.080      147.241       11.233        0.006      336.181        7.311      866.873
12/08/2014  12:20:00       91.843       51.203       21.420       30.328       27.524       27.206      919.796      757.559      740.190        0.697        0.121      105.152       16.509        0.025      336.224        7.382      866.896
12/08/2014  12:21:00       96.804       55.981       19.604       23.738       18.530       19.701      563.511      343.364      388.145        0.709        0.065      111.825        5.309        0.002      336.215        7.367      866.916
12/08/2014  12:22:00       73.164       34.596       15.252       19.594       19.718       23.280      383.938      388.796      541.954        0.405        0.066       80.931       13.008        0.026      336.239        7.407      866.918
12/08/2014  12:23:00       70.324       33.140       11.070       23.841       20.170       18.895      568.370      406.838      357.031        0.375        0.067       77.741       11.816        0.023      336.273        7.465      866.904
12/08/2014  12:24:00       71.472       45.686        8.555       21.274       18.959       19.808      452.595      359.445      392.338        0.424        0.060       84.826       14.781        0.030      336.260        7.441      866.892
12/08/2014  12:25:00       73.742       51.441       20.862       21.106       14.110       18.565      445.465      199.089      344.657        0.475        0.049       89.912       12.665        0.020      336.280        7.476      866.857
12/08/2014  12:26:00       85.825       60.356       23.354       23.115       21.858       23.171      534.285      477.757      536.879        0.655        0.077      104.923       10.862        0.011      336.247        7.419      866.833
12/08/2014  12:27:00       89.778       51.427       18.680       30.350       22.325       20.379      921.124      498.393      415.317        0.644        0.092      103.464       16.463        0.025      336.242        7.412      866.807
12/08/2014  12:28:00       79.980       55.681       19.145       30.248       20.679       20.547      914.912      427.628      422.169        0.581        0.088       97.453       15.657        0.026      336.249        7.423      866.792
12/08/2014  12:29:00       90.317       66.350        8.580       20.758       24.420       16.971      430.906      596.328      288.023        0.697        0.066      112.069       16.711        0.022      336.256        7.436      866.756
12/08/2014  12:30:00       76.333       58.240       10.622       21.735       23.009       15.692      472.427      529.394      246.228        0.529        0.062       96.014       15.349        0.026      336.308        7.522      866.740
12/08/2014  12:31:00      120.639       62.193        7.376       33.468       24.968       26.793     1120.084      623.415      717.846        1.047        0.123      135.727       21.090        0.024      336.337        7.570      866.728
12/08/2014  12:32:00      112.162       68.608       -6.338       24.587       19.687       20.867      604.541      387.583      435.441        0.938        0.071      131.481       10.385        0.006      336.263        7.447      866.733
12/08/2014  12:33:00       92.228       47.820        6.748       31.683       20.615       25.601     1003.811      424.961      655.396        0.646        0.104      103.888       17.094        0.027      336.330        7.560      866.747
12/08/2014  12:34:00       80.678       46.616       21.888       20.256       25.309       29.726      410.312      640.522      883.636        0.555        0.097       93.178        9.844        0.011      336.382        7.647      866.753
12/08/2014  12:35:00       87.657       71.439       29.401       43.874       34.578       37.101     1924.894     1195.669     1376.461        0.907        0.225      113.081       20.622        0.033      336.471        7.795      866.724
12/08/2014  12:36:00      125.939       93.169       73.705       58.083       47.862       47.786     3373.613     2290.771     2283.492        1.896        0.397      156.656       40.608        0.067      336.393        7.663      866.702
12/08/2014  12:37:00      129.658       80.590       37.340       30.224       21.098       23.238      913.501      445.140      540.005        1.330        0.095      152.663       15.013        0.010      336.265        7.450      866.694
12/08/2014  12:38:00       43.041       10.762       11.290       55.155       34.048       26.505     3042.125     1159.261      702.492        0.350        0.245       44.366       12.966        0.085      336.442        7.747      866.702
12/08/2014  12:39:00        9.442       48.132       68.448       24.381       41.287       34.302      594.453     1704.630     1176.609        0.528        0.174       49.050       31.120        0.403      336.489        7.825      866.723
12/08/2014  12:40:00       70.656       49.193       61.919       36.071       35.684       24.656     1301.123     1273.359      607.937        0.721        0.159       86.094       23.370        0.074      336.359        7.608      866.731
12/08/2014  12:41:00       90.221       36.849       32.426       38.473       37.030       31.139     1480.141     1371.255      969.633        0.718        0.191       97.456       24.214        0.062      336.396        7.671      866.726
12/08/2014  12:42:00       95.667       64.208       34.047       40.461       25.612       31.344     1637.103      655.992      982.424        0.885        0.164      115.217       25.166        0.048      336.284        7.484      866.723
12/08/2014  12:43:00       37.785       72.409       74.948       40.413       36.035       35.828     1633.204     1298.501     1283.651        0.825        0.211       81.675       32.827        0.162      336.400        7.675      866.707
12/08/2014  12:44:00       43.877       72.827       79.931       38.514       36.163       26.935     1483.365     1307.729      725.513        0.857        0.176       85.023       27.751        0.107      336.367        7.620      866.687
12/08/2014  12:45:00       63.461       70.710       78.322       38.670       34.504       30.161     1495.396     1190.521      909.686        0.938        0.180       95.012       24.048        0.064      336.368        7.622      866.670
12/08/2014  12:46:00       40.331       60.535       80.630       43.375       37.477       23.133     1881.391     1404.541      535.136        0.781        0.191       72.739       27.041        0.138      336.413        7.696      866.666
12/08/2014  12:47:00        8.874       49.673       64.006       41.885       41.979       28.917     1754.340     1762.268      836.197        0.550        0.218       50.460       22.860        0.205      336.493        7.833      866.661
12/08/2014  12:48:00       62.957       23.927       35.718       35.177       25.596       28.436     1237.397      655.174      808.618        0.426        0.135       67.350       22.891        0.116      336.432        7.729      866.667
12/08/2014  12:49:00       41.595       58.677       51.643       35.480       32.326       34.402     1258.854     1044.984     1183.502        0.566        0.174       71.924       26.538        0.136      336.507        7.856      866.670
12/08/2014  12:50:00       32.870       44.735       39.731       40.278       39.127       37.944     1622.303     1530.904     1439.784        0.463        0.230       55.513       29.881        0.290      336.605        8.020      866.665
12/08/2014  12:51:00       16.268       40.669       61.240       23.563       29.509       19.239      555.223      870.807      370.142        0.373        0.090       43.802       14.544        0.110      336.611        8.031      866.646
12/08/2014  12:52:00       29.714       48.680       51.537       52.174       38.272       32.655     2722.173     1464.761     1066.321        0.558        0.263       57.032       28.115        0.243      336.613        8.032      866.622
12/08/2014  12:53:00       40.512       24.119       34.047       41.375       25.720       25.311     1711.858      661.504      640.657        0.320        0.151       47.148       23.251        0.243      336.618        8.041      866.614
12/08/2014  12:54:00       53.962       37.876       26.048       48.253       34.994       28.760     2328.349     1224.575      827.135        0.470        0.219       65.928       19.454        0.087      336.619        8.043      866.597
12/08/2014  12:55:00       61.723       32.317       24.839       59.289       39.033       46.493     3515.138     1523.568     2161.645        0.633        0.360       69.671       41.454        0.354      336.608        8.024      866.587
12/08/2014  12:56:00       40.008       42.507       55.627       46.449       71.567       35.988     2157.474     5121.815     1295.160        0.754        0.429       58.374       41.159        0.497      336.689        8.161      866.578
12/08/2014  12:57:00       49.216      -50.559        8.273       28.079       49.682       29.871      788.453     2468.350      892.302        0.460        0.207       70.558       30.546        0.187      336.626        8.056      866.569
12/08/2014  12:58:00       27.208      -18.174        0.041       21.091       41.155       25.690      444.825     1693.770      659.979        0.193        0.140       32.720       17.062        0.272      336.669        8.127      866.544
12/08/2014  12:59:00       61.555       16.670        6.890       42.644       37.816       28.313     1818.471     1430.042      801.643        0.408        0.203       63.772       17.300        0.074      336.587        7.991      866.514
12/08/2014  13:00:00      104.461       72.730       11.768       42.567       43.239       31.932     1811.990     1869.628     1019.630        1.052        0.235      127.287       20.401        0.026      336.485        7.819      866.492
12/08/2014  13:01:00      116.737       83.653        2.369       35.944       20.489       22.597     1291.956      419.781      510.615        1.143        0.111      143.615       14.309        0.010      336.408        7.689      866.505
12/08/2014  13:02:00       64.907       46.056       -5.316       32.275       33.806       25.190     1041.657     1142.839      634.546        0.459        0.141       79.587        9.576        0.014      336.493        7.832      866.524
12/08/2014  13:03:00       70.307       53.103       33.711       29.905       26.460       28.489      894.288      700.114      811.634        0.565        0.120       88.108       19.586        0.049      336.512        7.864      866.530
12/08/2014  13:04:00       73.079       74.083       28.028       33.472       28.295       29.993     1120.407      800.590      899.581        0.722        0.141      104.062       16.623        0.026      336.448        7.757      866.510
12/08/2014  13:05:00      103.838       89.213       18.513       22.457       29.884       24.379      504.314      893.033      594.320        1.054        0.100      136.899       18.998        0.019      336.458        7.773      866.493
12/08/2014  13:06:00       64.793       45.405       29.890       39.557       27.593       23.639     1564.723      761.385      558.797        0.502        0.144       79.119       17.872        0.051      336.543        7.916      866.494
12/08/2014  13:07:00       55.767       46.576       34.186       34.292       31.512       21.186     1175.927      993.019      448.831        0.453        0.131       72.658        9.784        0.018      336.549        7.926      866.521
12/08/2014  13:08:00       13.006        1.397       41.055       21.976       27.033       10.946      482.927      730.791      119.825        0.159        0.067       13.081        5.894        0.203      336.690        8.162      866.545
12/08/2014  13:09:00       43.969       29.367       23.630       22.406       14.492       12.378      502.046      210.007      153.210        0.211        0.043       52.875        8.932        0.029      336.544        7.918      866.556
12/08/2014  13:10:00       32.637       11.644       23.725       42.317       51.425       22.372     1790.710     2644.548      500.522        0.335        0.247       34.652       22.807        0.433      336.602        8.015      866.543
12/08/2014  13:11:00       77.634       50.606       24.678       23.450       23.103       24.643      549.892      533.770      607.265        0.544        0.085       92.671       13.074        0.020      336.544        7.919      866.501
12/08/2014  13:12:00       75.826       41.051        3.477       38.986       32.069       29.560     1519.889     1028.449      873.783        0.543        0.171       86.225       21.812        0.064      336.526        7.889      866.452
12/08/2014  13:13:00       92.634       65.596        7.738       23.438       27.631       26.178      549.339      763.458      685.311        0.747        0.100      113.507       12.300        0.012      336.422        7.713      866.406
12/08/2014  13:14:00       77.799       62.498        5.148       42.855       28.787       23.072     1836.512      828.704      532.332        0.659        0.160       99.793       16.098        0.026      336.454        7.765      866.377
12/08/2014  13:15:00       56.731       56.040       11.541       30.226       27.435       23.136      913.629      752.703      535.283        0.435        0.110       79.743       10.826        0.018      336.507        7.856      866.369
12/08/2014  13:16:00       68.977       63.760       -0.886       33.836       29.413       27.238     1144.884      865.097      741.913        0.579        0.138       93.932       16.244        0.030      336.490        7.827      866.357
12/08/2014  13:17:00       54.835       45.536        2.236       36.518       21.174       22.925     1333.531      448.327      525.564        0.370        0.115       71.277       17.012        0.057      336.508        7.857      866.362
12/08/2014  13:18:00       41.072       48.107        3.388       31.550       19.004       17.485      995.402      361.167      305.718        0.284        0.083       63.255       12.900        0.042      336.481        7.811      866.351
12/08/2014  13:19:00       19.521       31.583        2.150       22.137       22.462       15.991      490.031      504.561      255.708        0.132        0.063       37.129        7.981        0.046      336.523        7.882      866.339
12/08/2014  13:20:00       48.196       32.374        2.088       15.268       20.218       15.937      233.108      408.785      254.002        0.214        0.045       58.060        6.471        0.012      336.485        7.819      866.316
12/08/2014  13:21:00       64.572       42.177       13.934       19.447       18.273       20.348      378.184      333.897      414.036        0.363        0.056       77.126        8.837        0.013      336.449        7.757      866.301
12/08/2014  13:22:00       41.732       40.747        3.191       18.184       14.448       19.724      330.644      208.755      389.042        0.217        0.046       58.326        9.296        0.025      336.464        7.782      866.287
12/08/2014  13:23:00       39.560       25.521       -1.186       21.289       11.589       10.570      453.238      134.316      111.718        0.146        0.035       47.077        9.889        0.044      336.470        7.794      866.271
12/08/2014  13:24:00       52.999       46.707        5.353       13.878       11.339       18.070      192.586      128.569      326.537        0.283        0.032       70.643        5.310        0.006      336.487        7.820      866.263
12/08/2014  13:25:00       12.465       31.673       37.889       21.713       21.507       15.653      471.473      462.550      245.019        0.189        0.059       34.038       11.733        0.119      336.583        7.983      866.227
12/08/2014  13:26:00       17.735       34.955       50.519       36.109       31.618       25.611     1303.879      999.708      655.942        0.352        0.148       39.197       25.406        0.420      336.599        8.009      866.183
12/08/2014  13:27:00       78.032       49.851       12.168       48.795       25.038       29.332     2380.990      626.899      860.372        0.629        0.193       92.597       25.660        0.077      336.504        7.850      866.150
12/08/2014  13:28:00      101.319       50.355       -1.926       29.138       33.482       25.455      849.029     1121.066      647.934        0.771        0.131      113.143        8.121        0.005      336.509        7.861      866.139
12/08/2014  13:29:00       85.572       58.108        1.460       26.148       20.163       16.452      683.714      406.539      270.683        0.603        0.068      103.437       10.160        0.010      336.485        7.817      866.128
12/08/2014  13:30:00       70.448       22.244       -8.954       32.670       22.825       23.147     1067.358      520.990      535.795        0.383        0.106       73.876       17.163        0.054      336.480        7.809      866.135
12/08/2014  13:31:00       32.314       19.274        0.520       21.802       15.242       12.893      475.306      232.320      166.234        0.114        0.044       37.625        9.718        0.067      336.461        7.779      866.138
12/08/2014  13:32:00       19.589       22.883        0.694        7.563       12.261       13.305       57.203      150.332      177.013        0.065        0.019       30.123       10.218        0.115      336.477        7.803      866.137
12/08/2014  13:33:00       17.131       74.694       -9.890       14.371       36.996       16.515      206.530     1368.727      272.747        0.391        0.092       76.633       18.855        0.061      336.516        7.871      866.144
12/08/2014  13:34:00       34.748       58.121       -9.584       17.616       19.722       12.634      310.329      388.958      159.607        0.277        0.043       67.717        8.086        0.014      336.528        7.890      866.154
12/08/2014  13:35:00       66.770       34.847       -4.684       15.923       11.789       13.481      253.551      138.974      181.747        0.313        0.029       75.317        5.558        0.005      336.496        7.836      866.167
12/08/2014  13:36:00       57.647       20.197       -1.848       30.068       28.992       23.638      904.078      840.564      558.771        0.302        0.115       61.082       15.570        0.065      336.501        7.845      866.185
12/08/2014  13:37:00       79.863       34.410        7.727       22.204       18.315       18.133      493.022      335.428      328.805        0.439        0.058       86.961       14.281        0.027      336.456        7.770      866.199
12/08/2014  13:38:00       43.035       38.946       25.449       29.299       22.795       21.068      858.405      519.633      443.879        0.292        0.091       58.041       17.152        0.087      336.561        7.946      866.201
12/08/2014  13:39:00       51.196       18.167       17.859       33.547       23.653       25.319     1125.414      559.469      641.049        0.280        0.116       54.323       20.327        0.140      336.549        7.927      866.205
12/08/2014  13:40:00       63.574       35.152       17.227       14.014       20.676       18.329      196.394      427.507      335.947        0.327        0.048       72.645       15.640        0.046      336.473        7.800      866.206
12/08/2014  13:41:00       77.254       52.123       19.434       19.398       15.935       23.684      376.291      253.909      560.917        0.513        0.060       93.193       13.463        0.021      336.495        7.836      866.196
12/08/2014  13:42:00       66.224       17.926       22.387       31.657       27.469       25.159     1002.136      754.538      632.954        0.380        0.119       68.608       17.172        0.063      336.569        7.960      866.187
12/08/2014  13:43:00       65.783       43.375       35.848       29.606       24.986       23.179      876.492      624.296      537.275        0.477        0.102       78.796       16.077        0.042      336.582        7.981      866.170
12/08/2014  13:44:00       91.546       56.947        3.606       22.119       20.267       23.019      489.237      410.748      529.885        0.653        0.071      107.813       13.953        0.017      336.541        7.914      866.164
12/08/2014  13:45:00       35.536       34.938       29.193       26.455       25.586       26.072      699.871      654.646      679.758        0.268        0.102       49.835       16.254        0.106      336.590        7.995      866.164
12/08/2014  13:46:00       50.872       49.285       44.856       33.161       25.949       27.390     1099.621      673.355      750.186        0.478        0.126       70.831       25.310        0.128      336.569        7.960      866.159
12/08/2014  13:47:00       29.201       27.540       42.241       31.110       20.999       13.899      967.845      440.948      193.181        0.250        0.080       40.139        7.742        0.037      336.675        8.137      866.161
12/08/2014  13:48:00       39.498       35.683        9.258       18.948       16.785       17.471      359.027      281.748      305.235        0.193        0.047       53.230       12.578        0.056      336.592        7.999      866.162
12/08/2014  13:49:00       16.087       19.137        3.314       29.365       28.631       16.121      862.311      819.745      259.878        0.129        0.097       25.001       16.808        0.452      336.589        7.992      866.152
12/08/2014  13:50:00       37.252       44.962       -1.744       26.420       34.430       21.966      698.026     1185.410      482.486        0.289        0.118       58.389       21.476        0.135      336.563        7.950      866.151
12/08/2014  13:51:00       72.889       51.838       12.739       20.890       17.102       20.106      436.376      292.472      404.239        0.465        0.057       89.443        8.222        0.008      336.510        7.862      866.139
12/08/2014  13:52:00       27.796       37.227        2.558       23.708       22.770       17.427      562.056      518.475      303.706        0.177        0.069       46.459       15.866        0.117      336.503        7.850      866.133
12/08/2014  13:53:00       31.691       28.035       -2.249       26.083       19.491       11.706      680.317      379.893      137.023        0.150        0.060       42.312        9.187        0.047      336.540        7.910      866.121
12/08/2014  13:54:00       33.309       35.971      -12.710       18.652       21.176       12.022      347.903      448.405      144.537        0.175        0.047       49.025        5.660        0.013      336.565        7.953      866.117
12/08/2014  13:55:00       48.299       33.853        1.089       26.798       27.257       21.035      718.159      742.967      442.455        0.269        0.095       58.982       13.908        0.056      336.580        7.979      866.122
12/08/2014  13:56:00       53.505       42.656       -1.621       17.307       13.415       17.376      299.523      179.966      301.923        0.273        0.039       68.427        7.758        0.013      336.503        7.847      866.123
12/08/2014  13:57:00       23.989       14.641       -3.940        8.409       13.793        9.628       70.711      190.258       92.694        0.058        0.018       28.104        8.068        0.082      336.547        7.922      866.123
12/08/2014  13:58:00       51.994       31.847       -2.447       12.789       14.782       15.896      163.563      218.506      252.678        0.218        0.032       60.972        6.183        0.010      336.566        7.955      866.119
12/08/2014  13:59:00       46.543       14.345        9.338       24.944       18.430       18.255      622.205      339.652      333.241        0.188        0.065       48.704       14.051        0.083      336.630        8.063      866.113
12/08/2014  14:00:00       66.576       37.211        4.402       11.421       11.249       10.081      130.439      126.530      101.618        0.310        0.018       76.269        3.627        0.002      336.530        7.894      866.114
12/08/2014  14:01:00       65.832       30.111        1.739       19.049       18.875       17.680      362.857      356.271      312.587        0.314        0.052       72.392       10.626        0.022      336.522        7.882      866.104
12/08/2014  14:02:00       58.625       33.057        8.711       12.274       12.972       12.843      150.663      168.279      164.931        0.254        0.024       67.302        6.772        0.010      336.547        7.922      866.093
12/08/2014  14:03:00       70.288       45.136        8.575       21.781       14.220       16.071      474.411      202.203      258.273        0.399        0.047       83.532        8.852        0.011      336.533        7.899      866.080
12/08/2014  14:04:00       59.424       34.721        0.031       21.293       18.212       17.191      453.374      331.692      295.547        0.291        0.054       68.824        7.083        0.011      336.555        7.936      866.071
12/08/2014  14:05:00       68.367       43.321        0.657       12.817       11.593       12.562      164.264      134.403      157.793        0.350        0.023       80.937        6.214        0.006      336.564        7.950      866.070
12/08/2014  14:06:00       55.541       52.015       10.894       15.978       18.640       18.455      255.299      347.432      340.572        0.343        0.047       76.094        9.344        0.015      336.639        8.078      866.068
12/08/2014  14:07:00       45.506       48.186       43.105       26.287       16.922       16.260      691.014      286.339      264.380        0.375        0.062       66.277        8.907        0.018      336.720        8.212      866.075
12/08/2014  14:08:00       37.106       58.211       67.809       32.604       33.646       16.009     1062.995     1132.070      256.275        0.591        0.123       69.032       16.244        0.055      336.719        8.212      866.086
12/08/2014  14:09:00       69.793       58.721       52.660       23.700       30.234       22.943      561.700      914.112      526.404        0.655        0.100       91.210       16.825        0.034      336.620        8.045      866.101
12/08/2014  14:10:00       52.332       29.763       27.311       31.758       33.339       28.563     1008.587     1111.514      815.837        0.365        0.147       60.204       24.381        0.164      336.691        8.163      866.105
12/08/2014  14:11:00       41.878      -59.007       -4.566       36.019       39.772       27.227     1297.347     1581.787      741.284        0.444        0.181       72.358       30.274        0.175      336.761        8.280      866.110
12/08/2014  14:12:00       37.989      -29.100       -3.713       21.425       32.124       27.554      459.032     1031.956      759.217        0.228        0.113       47.854       22.255        0.216      336.743        8.249      866.105
12/08/2014  14:13:00       12.658       10.738       31.696       17.827       24.242       17.800      317.786      587.683      316.834        0.125        0.061       16.599       15.033        0.820      336.796        8.339      866.098
12/08/2014  14:14:00       16.090        2.177       25.278       23.870       35.705       26.923      569.761     1274.826      724.840        0.174        0.128       16.237       27.390        2.846      336.768        8.292      866.089
12/08/2014  14:15:00      -10.865       -0.746       32.278       13.824       15.767       10.575      191.099      248.602      111.820        0.086        0.028       10.891        7.168        0.433      336.892        8.497      866.070
12/08/2014  14:16:00      -15.301       25.368       36.545       15.451       23.242       18.114      238.720      540.188      328.099        0.166        0.055       29.625       16.005        0.292      336.869        8.460      866.054
12/08/2014  14:17:00       -5.563       37.538       61.745       13.310       22.733       18.557      177.144      516.787      344.350        0.315        0.052       37.947       12.720        0.112      336.878        8.474      866.035
12/08/2014  14:18:00       -7.135       10.602       45.764       14.387       18.062       11.005      206.976      326.243      121.106        0.146        0.033       12.780       11.422        0.799      336.924        8.551      866.020
12/08/2014  14:19:00       -6.835       25.123       42.876       12.819       22.635       15.174      164.338      512.346      230.241        0.171        0.045       26.036       15.326        0.346      336.942        8.581      866.017
12/08/2014  14:20:00       -0.724       -6.555       15.112       12.886       10.899        8.675      166.039      118.779       75.252        0.032        0.018        6.595        7.757        1.383      337.005        8.686      866.023
12/08/2014  14:21:00       -2.438       -3.833       -1.715        7.852        9.480       13.226       61.657       89.870      174.930        0.017        0.016        4.542        6.463        2.024      336.984        8.650      866.013
12/08/2014  14:22:00        1.292      -10.600       11.808       11.501       19.789        9.831      132.267      391.613       96.647        0.044        0.031       10.678        9.253        0.751      337.056        8.772      865.993
12/08/2014  14:23:00       26.560       30.644        5.819       14.038       17.093       14.325      197.069      292.169      205.207        0.119        0.035       40.552       13.446        0.110      336.861        8.448      865.963
12/08/2014  14:24:00       41.904       30.786        8.069       25.545       21.365       19.267      652.552      456.451      371.203        0.212        0.074       51.997       10.932        0.044      336.860        8.445      865.922
12/08/2014  14:25:00       14.912       20.353       18.607       25.577       22.533       16.123      654.188      507.758      259.967        0.120        0.071       25.231       11.017        0.191      336.900        8.512      865.889
12/08/2014  14:26:00       17.163       15.004       17.485       33.892       26.144       24.316     1148.680      683.496      591.245        0.162        0.121       22.797       18.503        0.659      336.891        8.496      865.876
12/08/2014  14:27:00        6.607       21.191       51.212       23.453       22.701       12.188      550.029      515.329      148.541        0.216        0.061       22.197       12.463        0.315      336.957        8.606      865.884
12/08/2014  14:28:00        9.496       67.896       73.795       26.436       43.325       32.578      698.878     1877.025     1061.358        0.689        0.182       68.557       27.859        0.165      336.896        8.505      865.894
12/08/2014  14:29:00       36.062       33.958       59.616       54.906       36.407       28.637     3014.614     1325.478      820.070        0.558        0.258       49.534       19.652        0.157      336.874        8.468      865.916
12/08/2014  14:30:00       59.971       51.635       58.614       48.441       34.456       31.246     2346.546     1187.224      976.304        0.710        0.226       79.137       33.170        0.176      336.799        8.344      865.918
12/08/2014  14:31:00       42.925       63.522       51.306       52.341       29.695       32.116     2739.558      881.806     1031.453        0.658        0.233       76.665       32.858        0.184      336.818        8.375      865.908
12/08/2014  14:32:00       82.070       50.506       14.286       33.873       35.969       28.332     1147.390     1293.737      802.678        0.637        0.162       96.365       12.382        0.017      336.786        8.322      865.882
12/08/2014  14:33:00       83.547       42.739       31.304       48.283       31.591       31.529     2331.222      997.972      994.074        0.705        0.216       93.845       19.811        0.045      336.767        8.291      865.865
12/08/2014  14:34:00       82.967       53.803       16.283       53.860       25.756       23.269     2900.943      663.384      541.452        0.707        0.205       98.885       19.867        0.040      336.715        8.203      865.850
12/08/2014  14:35:00      100.883       64.410        6.690       28.713       28.413       29.803      824.429      807.300      888.204        0.844        0.126      119.692       19.288        0.026      336.669        8.127      865.835
12/08/2014  14:36:00      125.538       76.096       12.302       26.503       21.565       25.328      702.403      465.040      641.490        1.175        0.090      146.800       13.350        0.008      336.668        8.126      865.821
12/08/2014  14:37:00      128.146       84.084        9.058       25.852       27.146       22.252      668.330      736.904      495.162        1.274        0.095      153.269       11.924        0.006      336.668        8.126      865.803
12/08/2014  14:38:00      125.512       76.600       12.389       29.675       29.800       25.542      880.621      888.044      652.393        1.210        0.121      147.040       12.277        0.007      336.671        8.129      865.798
12/08/2014  14:39:00      107.103       56.335        5.327       37.069       31.679       32.848     1374.083     1003.578     1078.991        0.906        0.173      121.015       21.231        0.031      336.695        8.171      865.800
12/08/2014  14:40:00      104.430       57.080        7.591       27.949       22.724       20.291      781.154      516.371      411.715        0.796        0.085      119.011        9.938        0.007      336.693        8.169      865.808
12/08/2014  14:41:00       74.867       58.952       13.056       21.382       21.943       25.332      457.182      481.474      641.714        0.542        0.079       95.291       10.219        0.011      336.713        8.200      865.828
12/08/2014  14:42:00       61.176       40.901       19.580       27.697       23.764       17.078      767.103      564.721      291.671        0.371        0.081       73.590        9.046        0.015      336.731        8.232      865.843
12/08/2014  14:43:00       58.096       47.911       38.819       21.435       20.659       16.683      459.481      426.788      278.326        0.417        0.058       75.303        9.390        0.016      336.763        8.282      865.860
12/08/2014  14:44:00       43.059       30.364       21.758       23.232       27.686       18.749      539.703      766.520      351.516        0.245        0.083       52.689       11.004        0.044      336.808        8.358      865.872
12/08/2014  14:45:00       73.241       54.040       17.306       28.918       18.026       25.214      836.274      324.953      635.762        0.519        0.090       91.020       13.027        0.020      336.748        8.261      865.882
12/08/2014  14:46:00       72.245       55.399        9.502       16.925       17.634       21.821      286.441      310.943      476.146        0.473        0.054       91.041       14.375        0.025      336.706        8.192      865.895
12/08/2014  14:47:00       44.200       35.444       -2.423       28.654       28.632       17.824      821.063      819.792      317.705        0.259        0.098       56.657       13.904        0.060      336.746        8.256      865.899
12/08/2014  14:48:00       39.642       32.952        4.961       20.607       19.621       18.748      424.665      384.965      351.471        0.192        0.058       51.549       11.587        0.051      336.765        8.285      865.904
12/08/2014  14:49:00       32.584       45.920        1.436       20.103       22.113       24.183      404.139      488.968      584.827        0.232        0.074       56.306       17.037        0.092      336.726        8.223      865.911
12/08/2014  14:50:00        9.800       58.087       -7.718       14.296       16.446       15.019      204.363      270.472      225.581        0.211        0.035       58.908       11.383        0.037      336.756        8.275      865.924
12/08/2014  14:51:00       29.715       33.545       -2.008       17.040       14.324       19.013      290.375      205.190      361.499        0.143        0.043       44.814       13.194        0.087      336.755        8.272      865.932
12/08/2014  14:52:00       23.407       23.127        2.100       17.374       10.647       14.461      301.854      113.350      209.129        0.086        0.031       32.905        6.187        0.035      336.759        8.277      865.930
12/08/2014  14:53:00      -20.248       10.082       -3.198       14.732       11.777        9.979      217.046      138.703       99.577        0.049        0.023       22.619        7.599        0.113      336.785        8.322      865.926
12/08/2014  14:54:00      -29.858        6.779        4.584       19.382       15.453       14.149      375.659      238.782      200.205        0.089        0.041       30.618        8.912        0.085      336.826        8.388      865.932
12/08/2014  14:55:00      -70.075        7.507       -6.369       16.192       13.514        8.763      262.174      182.636       76.784        0.276        0.026       70.476        7.297        0.011      336.784        8.318      865.936
12/08/2014  14:56:00      -82.960       -2.212       -8.376       20.451       18.859       12.821      418.257      355.677      164.366        0.395        0.047       82.989       10.467        0.016      336.814        8.367      865.944
12/08/2014  14:57:00      -62.050      -31.888       -2.804       22.097       12.243        8.757      488.256      149.888       76.693        0.279        0.036       69.764        3.190        0.002      336.831        8.397      865.948
12/08/2014  14:58:00      -76.948      -33.936        6.839       36.964       32.163       16.527     1366.311     1034.458      273.144        0.490        0.134       84.099       18.808        0.050      336.867        8.457      865.968
12/08/2014  14:59:00      -39.216      -19.316        5.524       28.650       27.074       16.914      820.836      732.981      286.092        0.189        0.092       43.715       13.236        0.092      336.927        8.557      865.986
12/08/2014  15:00:00      -30.054      -13.029        2.122       23.995       24.028       16.673      575.754      577.357      277.995        0.125        0.072       32.756       14.789        0.204      336.948        8.593      866.005
12/08/2014  15:01:00      -38.553      -24.201        4.247       17.463       25.888       13.069      304.940      670.166      170.796        0.162        0.057       45.519       12.021        0.070      336.930        8.561      866.015
12/08/2014  15:02:00      -58.852      -24.549       -3.377       30.776       27.667       10.714      947.157      765.489      114.798        0.295        0.091       63.767       11.184        0.031      336.938        8.574      866.025
12/08/2014  15:03:00      -90.264      -43.547        2.881       41.408       33.255       19.384     1714.646     1105.925      375.742        0.662        0.160      100.219       18.311        0.033      336.970        8.629      866.034
12/08/2014  15:04:00     -105.358      -40.039        3.560       42.159       27.948       24.006     1777.357      781.092      576.277        0.792        0.157      112.710       19.855        0.031      336.947        8.591      866.045
12/08/2014  15:05:00     -103.939      -42.176       -1.489       31.173       25.248       14.956      971.725      637.473      223.690        0.721        0.092      112.170       19.024        0.029      336.952        8.598      866.048
12/08/2014  15:06:00      -25.918       10.259       13.800       26.697       28.553       19.741      712.708      815.273      389.691        0.144        0.096       27.875       17.724        0.404      337.049        8.760      866.041
12/08/2014  15:07:00      -51.364       -2.883        7.329       27.894       22.965       13.510      778.079      527.386      182.524        0.209        0.074       51.445       16.907        0.108      336.957        8.603      866.034
12/08/2014  15:08:00      -36.135      -16.255        3.198       28.921       17.613        8.736      836.445      310.227       76.326        0.140        0.061       39.623        5.930        0.022      337.006        8.688      866.031
12/08/2014  15:09:00        1.667      -28.047       21.752       19.935       19.496       16.710      397.424      380.102      279.232        0.116        0.053       28.096       11.759        0.175      337.109        8.861      866.037
12/08/2014  15:10:00      -56.899      -58.658       -1.514       17.574       32.940       12.744      308.847     1085.011      162.415        0.412        0.078       81.720        6.378        0.006      337.013        8.698      866.050
12/08/2014  15:11:00      -70.354      -85.540       -1.347       32.835       28.122       17.453     1078.139      790.831      304.622        0.722        0.109      110.756       12.640        0.013      336.997        8.673      866.067
12/08/2014  15:12:00      -81.566      -48.097        1.217       28.112       21.558       16.620      790.260      464.745      276.239        0.525        0.077       94.691        6.235        0.004      337.043        8.749      866.087
12/08/2014  15:13:00      -51.169     -109.293        3.973       34.566       38.568       14.908     1194.784     1487.482      222.234        0.874        0.145      120.678       16.331        0.018      336.990        8.661      866.095
12/08/2014  15:14:00      -36.421      -72.898       -3.771       28.201       33.008       19.880      795.287     1089.542      395.216        0.447        0.114       81.490       14.637        0.032      337.000        8.678      866.101
12/08/2014  15:15:00      -73.455      -34.422       -6.740       47.578       26.812       20.239     2263.700      718.902      409.637        0.501        0.170       81.121       24.811        0.094      337.040        8.745      866.104
12/08/2014  15:16:00      -22.246      -10.476        2.840       21.592       26.271       16.912      466.225      690.146      286.004        0.103        0.072       24.589       11.176        0.207      337.050        8.763      866.102
12/08/2014  15:17:00      -39.813       -2.625        5.613       29.353       27.880       23.423      861.595      777.275      548.646        0.191        0.109       39.899       17.142        0.185      337.035        8.735      866.112
12/08/2014  15:18:00      -54.085      -32.069        2.470       35.686       29.468       16.614     1273.494      868.339      276.033        0.319        0.121       62.878       20.506        0.106      337.039        8.743      866.121
12/08/2014  15:19:00      -78.820      -37.940        0.458       38.459       22.482       15.665     1479.107      505.430      245.399        0.494        0.111       87.475       11.420        0.017      336.996        8.671      866.131
12/08/2014  15:20:00      -66.492      -78.948        0.485       42.123       38.164       20.632     1774.315     1456.485      425.677        0.715        0.183      103.218       25.179        0.060      337.013        8.700      866.150
12/08/2014  15:21:00      -91.042      -58.166       -3.416       22.821       32.399       14.250      520.796     1049.677      203.049        0.673        0.089      108.037       11.049        0.010      337.021        8.711      866.157
12/08/2014  15:22:00      -39.249      -30.667        5.454       40.745       29.965       15.104     1660.143      897.905      228.132        0.265        0.139       49.809       15.120        0.092      337.090        8.828      866.157
12/08/2014  15:23:00      -30.265      -48.569        5.997       32.434       35.516       20.089     1051.976     1261.364      403.567        0.301        0.136       57.226       18.386        0.103      337.173        8.968      866.154
12/08/2014  15:24:00      -34.290      -78.088        4.184       33.323       41.493       23.196     1110.412     1721.689      538.055        0.533        0.169       85.285       25.800        0.092      337.147        8.923      866.166
12/08/2014  15:25:00      -84.351      -58.038       -8.417       28.703       28.106       16.453      823.880      789.970      270.713        0.622        0.094      102.390       14.432        0.020      337.094        8.836      866.178
12/08/2014  15:26:00      -82.832      -39.064       -5.090       35.653       40.453       19.264     1271.123     1636.427      371.102        0.585        0.164       91.581       19.737        0.046      337.085        8.820      866.195
12/08/2014  15:27:00      -88.367      -25.050       -4.809       32.247       36.060       23.312     1039.865     1300.338      543.429        0.567        0.144       91.849       18.291        0.040      337.114        8.869      866.217
12/08/2014  15:28:00     -113.605       -1.360      -12.428       33.162       22.044       18.858     1099.742      485.951      355.626        0.750        0.097      113.613       19.225        0.029      337.039        8.744      866.229
12/08/2014  15:29:00     -108.339      -31.857       -7.279       21.222       25.387       14.004      450.353      644.509      196.118        0.705        0.065      112.926        7.970        0.005      337.033        8.731      866.238
12/08/2014  15:30:00      -63.502      -29.169        6.413       42.274       35.195       15.215     1787.095     1238.676      231.494        0.409        0.163       69.881       15.362        0.048      337.091        8.830      866.248
12/08/2014  15:31:00      -65.225      -52.073       -4.232       42.333       27.658       17.315     1792.090      764.986      299.798        0.492        0.143       83.462       18.139        0.047      337.068        8.791      866.251
12/08/2014  15:32:00      -69.127      -38.136        5.619       38.825       24.070       14.539     1507.376      579.347      211.385        0.428        0.115       78.948       12.223        0.024      337.066        8.786      866.239
12/08/2014  15:33:00      -85.997      -25.538        4.003       32.728       16.680       16.858     1071.154      278.238      284.193        0.485        0.082       89.708       14.696        0.027      337.024        8.719      866.230
12/08/2014  15:34:00      -49.776      -21.510        6.570       23.639       19.101       12.779      558.811      364.840      163.315        0.204        0.054       54.225       10.889        0.040      337.043        8.750      866.235
12/08/2014  15:35:00      -48.696       -6.510       -4.685       13.894       18.819        6.944      193.039      354.154       48.217        0.152        0.030       49.130        4.085        0.007      337.015        8.701      866.231
12/08/2014  15:36:00       -0.531       12.824        6.390       12.975       12.537       11.454      168.349      157.171      131.186        0.033        0.023       12.835       10.492        0.668      337.065        8.786      866.228
12/08/2014  15:37:00       23.848       20.199       29.105       19.144       13.943       12.824      366.489      194.400      164.448        0.127        0.036       31.253        6.628        0.045      337.091        8.831      866.237
12/08/2014  15:38:00       -2.667       11.062       20.669       21.659       12.751       12.583      469.122      162.575      158.330        0.067        0.040       11.379       11.678        1.053      337.134        8.903      866.240
12/08/2014  15:39:00      -23.189       24.095        3.429       10.920       13.692       10.422      119.244      187.481      108.614        0.077        0.021       33.441        8.744        0.068      337.057        8.773      866.234
12/08/2014  15:40:00      -34.665       15.272       -6.168       10.387       13.861        8.752      107.897      192.129       76.602        0.092        0.019       37.880        4.725        0.016      337.072        8.797      866.234
12/08/2014  15:41:00        2.424       15.000       10.550       19.975        7.977       10.261      399.006       63.629      105.293        0.045        0.028       15.195       11.627        0.586      337.095        8.837      866.231
12/08/2014  15:42:00       27.201       28.667        5.444       15.318       18.924       13.565      234.638      358.108      184.006        0.118        0.039       39.518        9.552        0.058      337.076        8.803      866.225
12/08/2014  15:43:00       21.700       18.964        9.671       12.229        9.676        8.705      149.553       93.627       75.769        0.062        0.016       28.819        5.685        0.039      337.080        8.809      866.214
12/08/2014  15:44:00       58.568       44.396       11.571       28.834       12.590       16.843      831.425      158.501      283.681        0.340        0.064       73.493       10.795        0.022      337.073        8.800      866.228
12/08/2014  15:45:00       52.719       28.155        1.524       16.243       12.639       10.500      263.851      159.751      110.245        0.205        0.027       59.766        8.055        0.018      337.066        8.787      866.248
12/08/2014  15:46:00       67.612       41.567        7.021       12.654       13.007       13.883      160.135      169.188      192.744        0.344        0.026       79.368        5.945        0.006      337.098        8.840      866.240
12/08/2014  15:47:00       66.611       27.205        3.356       31.986       20.256       16.618     1023.114      410.326      276.153        0.345        0.085       71.952       14.869        0.043      337.095        8.835      866.242
12/08/2014  15:48:00       89.815       41.208        0.557       27.526       20.188       16.288      757.677      407.553      265.306        0.560        0.072       98.817       12.630        0.016      337.068        8.791      866.248
12/08/2014  15:49:00       56.662       41.563       23.892       46.890       23.407       27.193     2198.645      547.891      739.452        0.450        0.174       70.271       29.827        0.180      337.116        8.871      866.262
12/08/2014  15:50:00       47.565       25.988        9.986       26.933       24.454       19.685      725.373      598.010      387.511        0.237        0.086       54.201       15.799        0.085      337.067        8.791      866.286
12/08/2014  15:51:00       48.517       37.818       14.523       24.326       22.294       27.100      591.772      497.024      734.432        0.291        0.091       61.515       24.751        0.162      337.025        8.717      866.307
12/08/2014  15:52:00       42.190       30.023        0.288       17.146        9.913        9.374      293.986       98.273       87.880        0.158        0.024       51.782        6.331        0.015      337.025        8.719      866.333
12/08/2014  15:53:00        6.179       11.998        3.542       10.635        8.895        8.293      113.108       79.128       68.781        0.023        0.013       13.496        4.443        0.108      337.057        8.773      866.351
12/08/2014  15:54:00       17.550       24.802       11.570       14.446       15.324       11.390      208.688      234.816      129.721        0.081        0.029       30.383        8.822        0.084      337.042        8.749      866.358
12/08/2014  15:55:00       46.380       29.160        9.586       11.870        9.718       10.596      140.901       94.446      112.266        0.172        0.017       54.786        6.563        0.014      337.038        8.745      866.356
12/08/2014  15:56:00       72.084       48.801       11.706       20.360       13.336       12.555      414.512      177.839      157.626        0.423        0.037       87.049        8.439        0.009      337.034        8.737      866.348
12/08/2014  15:57:00       81.335       45.398        4.737       37.820       16.402       20.134     1430.379      269.033      405.396        0.540        0.105       93.147       18.886        0.041      337.028        8.723      866.340
12/08/2014  15:58:00       62.945       25.781        1.207       42.816       27.325       17.226     1833.208      746.634      296.722        0.375        0.144       68.020       19.722        0.084      337.072        8.798      866.342
12/08/2014  15:59:00       32.651       25.530        8.224       22.744       17.443       15.447      517.285      304.264      238.611        0.142        0.053       41.447       12.871        0.096      337.087        8.824      866.358
12/08/2014  16:00:00       59.077       40.932        6.909       17.318       13.018       12.998      299.909      169.468      168.940        0.293        0.032       71.872        7.924        0.012      337.037        8.739      866.359
12/08/2014  16:01:00       65.369       30.733        5.851       19.228       11.413       13.212      369.734      130.263      174.554        0.296        0.034       72.233        7.575        0.011      337.028        8.725      866.372
12/08/2014  16:02:00       59.824       54.983       15.494       29.214       16.675       19.716      853.464      278.066      388.703        0.418        0.076       81.253       19.073        0.055      337.039        8.743      866.371
12/08/2014  16:03:00       70.089       58.896       34.103       27.605       18.225       22.416      762.026      332.133      502.461        0.557        0.080       91.549        8.952        0.010      337.119        8.878      866.378
12/08/2014  16:04:00       94.540       71.935       32.779       21.164       20.365       15.502      447.932      414.732      240.318        0.814        0.055      118.796       12.381        0.011      337.062        8.780      866.368
12/08/2014  16:05:00       79.570       47.514        8.414       27.825       21.720       19.431      774.252      471.752      377.556        0.514        0.081       92.676       16.280        0.031      337.004        8.681      866.366
12/08/2014  16:06:00      105.166       48.139        3.462       22.528       21.755       18.816      507.490      473.271      354.038        0.736        0.067      115.660       13.364        0.013      336.986        8.655      866.366
12/08/2014  16:07:00       99.714       47.272        0.029       26.357       23.315       21.617      694.689      543.580      467.296        0.694        0.085      110.352       15.116        0.019      336.985        8.652      866.367
12/08/2014  16:08:00      102.578       40.264        7.224       31.859       22.631       23.726     1014.974      512.182      562.919        0.714        0.105      110.197       15.174        0.019      336.982        8.648      866.375
12/08/2014  16:09:00      101.180       52.461        4.836       29.074       23.521       18.874      845.281      553.214      356.235        0.738        0.088      113.972       14.103        0.015      336.982        8.649      866.386
12/08/2014  16:10:00       87.260       47.489       -0.806       34.380       25.206       20.537     1182.006      635.322      421.783        0.605        0.112       99.346       18.079        0.033      336.987        8.657      866.393
12/08/2014  16:11:00      106.444       50.629        6.162       30.321       20.460       16.625      919.338      418.617      276.386        0.777        0.081      117.872        5.473        0.002      336.970        8.629      866.389
12/08/2014  16:12:00       75.540       25.757        0.304       35.148       26.922       24.682     1235.354      724.788      609.215        0.447        0.128       79.810       16.494        0.043      336.972        8.631      866.382
12/08/2014  16:13:00       59.567       28.545       20.249       25.178       29.001       20.697      633.925      841.057      428.372        0.334        0.095       66.053       14.758        0.050      336.935        8.567      866.377
12/08/2014  16:14:00       67.308       35.623       24.324       30.124       17.302       21.871      907.482      299.365      478.355        0.404        0.084       76.154       15.614        0.042      336.944        8.583      866.365
12/08/2014  16:15:00       67.782       30.526        8.931       35.119       24.226       22.304     1233.353      586.916      497.467        0.396        0.116       74.339       13.844        0.035      336.948        8.590      866.364
12/08/2014  16:16:00       65.042       24.693        5.533       22.870       21.276       13.960      523.037      452.671      194.869        0.302        0.059       69.572        8.589        0.015      336.919        8.544      866.374
12/08/2014  16:17:00       90.038       46.392        8.782       30.675       19.620       18.153      940.944      384.934      329.545        0.600        0.083      101.288       10.993        0.012      336.909        8.528      866.388
12/08/2014  16:18:00       82.228       35.166        0.156       29.245       21.892       18.138      855.247      479.267      328.981        0.483        0.083       89.432       10.705        0.014      336.913        8.533      866.399
12/08/2014  16:19:00       85.490       38.743       11.311       21.400       27.066       17.063      457.951      732.549      291.155        0.521        0.074       93.859       12.173        0.017      336.901        8.513      866.403
12/08/2014  16:20:00       80.113       44.918        7.794       23.379       14.644       17.076      546.575      214.453      291.595        0.477        0.053       91.846       12.362        0.018      336.892        8.497      866.406
12/08/2014  16:21:00      101.814       48.668        6.464       27.585       27.415       20.495      760.927      751.566      420.030        0.735        0.097      112.848       18.005        0.025      336.885        8.487      866.398
12/08/2014  16:22:00      129.213       79.477        9.702       21.442       24.891       20.340      459.746      619.574      413.710        1.230        0.075      151.699       13.209        0.008      336.881        8.478      866.378
12/08/2014  16:23:00      113.588       73.130        7.446       34.800       19.645       20.013     1211.038      385.910      400.529        1.015        0.100      135.093       16.277        0.015      336.873        8.467      866.373
12/08/2014  16:24:00       75.493       32.331       -2.427       47.201       31.950       20.292     2227.975     1020.824      411.776        0.520        0.183       82.125       12.489        0.023      336.846        8.421      866.385
12/08/2014  16:25:00       69.390       21.815       -0.825       24.393       25.565       15.237      595.020      653.580      232.163        0.339        0.074       72.738       10.108        0.019      336.851        8.429      866.393
12/08/2014  16:26:00       62.523       45.289       23.007       24.444       26.750       20.845      597.514      715.557      434.498        0.412        0.087       77.203       13.822        0.032      336.856        8.439      866.382
12/08/2014  16:27:00       75.414       36.169       14.430       16.855       14.205       18.051      284.093      201.770      325.833        0.401        0.041       83.639        9.440        0.013      336.870        8.461      866.366
12/08/2014  16:28:00       96.350       50.596        9.549       32.123       19.832       13.856     1031.873      393.295      191.984        0.678        0.081      108.827       12.514        0.013      336.841        8.414      866.334
12/08/2014  16:29:00       98.251       54.053       20.668       36.213       32.410       23.973     1311.388     1050.438      574.710        0.797        0.147      112.138       19.992        0.032      336.824        8.384      866.293
12/08/2014  16:30:00       98.704       58.771       20.048       38.636       34.397       24.814     1492.717     1183.141      615.725        0.844        0.165      114.876       23.023        0.040      336.812        8.366      866.270
12/08/2014  16:31:00       99.745       57.119       11.580       30.782       23.346       21.350      947.542      545.015      455.819        0.765        0.097      114.942       12.234        0.011      336.782        8.316      866.258
12/08/2014  16:32:00       78.724       28.149        3.401       34.616       23.119       23.003     1198.235      534.480      529.133        0.463        0.113       83.605       15.380        0.034      336.753        8.267      866.256
12/08/2014  16:33:00       84.281       41.617       15.875       25.674       19.573       14.229      659.136      383.115      202.475        0.517        0.062       93.996        9.220        0.010      336.743        8.250      866.264
12/08/2014  16:34:00       90.984       57.284       31.350       27.874       21.013       25.683      776.969      441.548      659.592        0.721        0.094      107.515       19.834        0.034      336.771        8.296      866.267
12/08/2014  16:35:00      122.569       50.101        4.836       20.931       17.368       17.146      438.092      301.650      293.970        0.929        0.052      132.413       10.521        0.006      336.729        8.226      866.276
12/08/2014  16:36:00       96.292       38.610       15.650       27.125       19.818       23.261      735.784      392.751      541.059        0.634        0.083      103.745       18.453        0.032      336.689        8.161      866.285
12/08/2014  16:37:00       69.460       13.769       14.420       33.594       27.259       29.690     1128.571      743.031      881.525        0.399        0.138       70.811       15.270        0.047      336.656        8.106      866.295
12/08/2014  16:38:00       69.835       11.529       11.365       35.917       25.646       22.446     1290.038      657.736      503.843        0.379        0.123       70.780       14.769        0.044      336.656        8.106      866.315
12/08/2014  16:39:00       18.567       -3.109        8.238       21.039       19.190       12.758      442.646      368.265      162.762        0.070        0.049       18.825        9.927        0.278      336.627        8.057      866.318
12/08/2014  16:40:00       49.702       31.961       18.031       26.473       22.170       16.613      700.817      491.494      275.989        0.264        0.073       59.092       13.800        0.055      336.632        8.064      866.305
12/08/2014  16:41:00       88.468       64.298        3.295       36.981       17.424       16.373     1367.562      303.613      268.087        0.696        0.097      109.366       13.481        0.015      336.649        8.094      866.294
12/08/2014  16:42:00      104.677       62.682        1.205       19.509       20.985       18.502      380.619      440.351      342.340        0.803        0.058      122.009       11.742        0.009      336.635        8.069      866.272
12/08/2014  16:43:00      116.346       63.753       14.006       35.102       20.458       21.916     1232.154      418.549      480.299        0.996        0.107      132.668       18.616        0.020      336.608        8.026      866.262
12/08/2014  16:44:00       91.134       48.439       14.672       37.171       26.144       25.649     1381.650      683.509      657.856        0.679        0.136      103.207       21.649        0.044      336.576        7.972      866.254
12/08/2014  16:45:00      102.264       45.477       19.146       30.561       26.141       23.349      933.986      683.340      545.160        0.753        0.108      111.920       13.666        0.015      336.573        7.967      866.253
12/08/2014  16:46:00       73.101       35.729        9.592       26.835       20.400       18.059      720.099      416.146      326.131        0.409        0.073       81.365       11.676        0.021      336.532        7.898      866.270
12/08/2014  16:47:00       58.621       20.272       16.494       24.132       13.057       14.158      582.369      170.495      200.435        0.254        0.048       62.028       11.613        0.035      336.510        7.860      866.281
12/08/2014  16:48:00       47.948       21.632        3.117       23.551       15.566       10.608      554.661      242.302      112.525        0.184        0.045       52.602       10.234        0.038      336.519        7.875      866.293
12/08/2014  16:49:00       53.775       30.684        5.768       10.024        9.666        7.581      100.476       93.435       57.473        0.206        0.013       61.913        5.189        0.007      336.588        7.991      866.307
12/08/2014  16:50:00       41.891       31.991       11.225        8.425        7.478        9.256       70.977       55.916       85.672        0.156        0.011       52.710        3.563        0.005      336.590        7.995      866.310
12/08/2014  16:51:00       44.275       26.315        4.302        8.139        7.252        7.264       66.245       52.594       52.762        0.142        0.009       51.505        4.038        0.006      336.602        8.015      866.315
12/08/2014  16:52:00       43.129       19.846        3.226        8.486        6.960        6.431       72.018       48.438       41.354        0.121        0.008       47.476        3.166        0.004      336.609        8.027      866.313
12/08/2014  16:53:00       50.522       23.663        2.084       10.398        7.969        6.791      108.114       63.504       46.118        0.167        0.011       55.789        3.606        0.004      336.622        8.050      866.318
12/08/2014  16:54:00       41.508       24.635       11.669       13.283        9.045       13.484      176.446       81.814      181.816        0.145        0.022       48.268       10.461        0.047      336.606        8.021      866.327
12/08/2014  16:55:00       63.024       27.338       16.785       12.178        8.644       14.578      148.304       74.724      212.517        0.272        0.022       68.698       10.872        0.025      336.596        8.005      866.321
12/08/2014  16:56:00       51.504       24.952       11.638       12.911       15.975       11.707      166.702      255.192      137.045        0.198        0.028       57.230        9.778        0.029      336.626        8.056      866.327
12/08/2014  16:57:00       17.813        4.984        5.159       13.415        5.683        7.315      179.956       32.295       53.516        0.032        0.013       18.498        6.116        0.109      336.633        8.068      866.341
12/08/2014  16:58:00      -28.373      -13.304       -1.901       26.479        9.832        6.894      701.132       96.661       47.523        0.092        0.042       31.338        8.205        0.069      336.611        8.030      866.363
12/08/2014  16:59:00      -27.928      -24.474       -5.366       10.992       11.090        7.398      120.831      122.983       54.733        0.085        0.015       37.134        3.758        0.010      336.584        7.985      866.374
12/08/2014  17:00:00      -28.275      -10.713        5.850       20.381       11.342        8.755      415.365      128.630       76.650        0.078        0.031       30.236       10.217        0.114      336.571        7.962      866.395
12/08/2014  17:01:00       -5.250       -2.958        3.436       11.202       12.275        6.821      125.475      150.681       46.532        0.019        0.016        6.026        5.105        0.718      336.554        7.935      866.399
12/08/2014  17:02:00      -10.358      -28.798        7.316       12.316       10.194        7.290      151.694      103.911       53.149        0.065        0.015       30.604        5.967        0.038      336.703        8.187      866.420
12/08/2014  17:03:00      -19.527      -16.688        1.423       17.130       12.979        7.573      293.439      168.453       57.355        0.059        0.026       25.686        9.980        0.151      336.641        8.078      866.431
12/08/2014  17:04:00       17.857       14.619       20.747       11.057       11.246        8.549      122.268      126.480       73.088        0.064        0.016       23.078        5.205        0.051      336.592        7.998      866.426
12/08/2014  17:05:00       33.092       30.202        6.603        9.655        9.480        9.929       93.220       89.863       98.577        0.117        0.014       44.802        6.247        0.019      336.669        8.126      866.404
12/08/2014  17:06:00       14.291       18.366       -7.213       10.696       10.748        5.464      114.399      115.513       29.855        0.043        0.013       23.270        2.744        0.014      336.624        8.052      866.388
12/08/2014  17:07:00       -1.628        4.066       -5.645       12.887        6.257        3.738      166.072       39.147       13.976        0.014        0.011        4.380        2.254        0.265      336.571        7.962      866.406
12/08/2014  17:08:00      -18.361       -3.548       -3.931        5.936        7.905        4.656       35.231       62.492       21.674        0.024        0.006       18.701        5.001        0.072      336.600        8.011      866.428
12/08/2014  17:09:00       -0.583       -0.379        1.143        7.399        5.843        4.076       54.745       34.145       16.616        0.005        0.005        0.695        3.625       27.199      336.585        7.986      866.426
12/08/2014  17:10:00       24.891       19.498        8.453        8.751        6.998        5.656       76.580       48.973       31.985        0.061        0.008       31.618        5.796        0.034      336.608        8.025      866.413
12/08/2014  17:11:00       59.135       29.672        8.055       18.115        8.897       11.006      328.167       79.163      121.126        0.249        0.026       66.162        5.604        0.007      336.597        8.005      866.405
12/08/2014  17:12:00       80.137       27.942        9.383       18.944       13.820       12.438      358.858      190.992      154.695        0.400        0.035       84.868       11.349        0.018      336.511        7.862      866.393
12/08/2014  17:13:00       76.746       36.196        1.024       22.756       17.205       13.799      517.834      296.018      190.401        0.410        0.050       84.853       11.139        0.017      336.412        7.696      866.389
12/08/2014  17:14:00       95.285       47.814        4.841       15.648       15.042       15.176      244.860      226.273      230.320        0.605        0.035      106.609        8.402        0.006      336.448        7.756      866.390
12/08/2014  17:15:00       70.109       43.783        6.460       17.339       17.702       13.031      300.638      313.343      169.816        0.383        0.039       82.657        9.368        0.013      336.329        7.559      866.387
12/08/2014  17:16:00       81.758       60.708       10.836       18.383       12.928       12.911      337.920      167.143      166.706        0.558        0.034      101.833        6.588        0.004      336.407        7.689      866.392
12/08/2014  17:17:00       51.420       37.941       10.680       20.474       17.382       11.991      419.193      302.128      143.778        0.253        0.043       63.903        9.783        0.023      336.357        7.604      866.411
12/08/2014  17:18:00       46.537       35.170        6.189       24.204       17.992       11.058      585.811      323.717      122.280        0.224        0.052       58.332        7.331        0.016      336.361        7.611      866.428
12/08/2014  17:19:00       74.433       53.509       13.645       17.599       11.840       15.920      309.709      140.191      253.461        0.465        0.035       91.670        6.280        0.005      336.399        7.675      866.435
12/08/2014  17:20:00       69.860       53.343       12.209       18.882       13.908       12.377      356.530      193.419      153.189        0.429        0.035       87.897        6.507        0.005      336.359        7.606      866.431
12/08/2014  17:21:00       40.740       36.051        2.029       29.421       22.370       18.338      865.593      500.418      336.284        0.233        0.085       54.400       12.276        0.051      336.293        7.499      866.437
12/08/2014  17:22:00       12.428       30.607        0.424       13.812       20.144       13.992      190.777      405.788      195.789        0.094        0.040       33.034       12.743        0.149      336.228        7.389      866.461
12/08/2014  17:23:00        3.839       53.190       -8.319       11.668       14.173        7.119      136.140      200.877       50.684        0.165        0.019       53.329        5.552        0.011      336.473        7.797      866.489
12/08/2014  17:24:00      -13.318       14.914       -5.339       14.207       30.901        8.453      201.825      954.861       71.452        0.083        0.061       19.995        6.224        0.097      336.468        7.790      866.494
12/08/2014  17:25:00      -30.422        3.118       -3.653       10.261        7.648        6.641      105.288       58.491       44.100        0.058        0.010       30.581        4.414        0.021      336.234        7.399      866.479
12/08/2014  17:26:00        0.192        8.622       -0.133       12.712       10.029        7.058      161.605      100.583       49.811        0.019        0.016        8.624        6.689        0.602      336.402        7.679      866.448
12/08/2014  17:27:00       14.104       26.982       -0.806       15.403       17.964       12.184      237.247      322.691      148.450        0.082        0.035       30.446       10.490        0.119      336.439        7.743      866.424
12/08/2014  17:28:00       12.578       37.329       -7.248       10.756       11.345        7.823      115.689      128.718       61.201        0.095        0.015       39.391        6.844        0.030      336.483        7.815      866.408
12/08/2014  17:29:00        7.307       41.027       -5.517        7.264        7.791        4.732       52.766       60.701       22.395        0.095        0.007       41.673        3.843        0.009      336.542        7.913      866.393
12/08/2014  17:30:00      -21.237       11.341       -9.686       14.483       17.361        6.447      209.751      301.417       41.566        0.061        0.028       24.075        8.094        0.113      336.359        7.606      866.371
12/08/2014  17:31:00      -20.135       -4.355       -8.965        6.345        3.640        4.809       40.257       13.253       23.126        0.029        0.004       20.600        2.511        0.015      336.283        7.482      866.359
12/08/2014  17:32:00      -29.335       -9.270       -6.183       10.966        7.790        5.334      120.263       60.682       28.451        0.060        0.010       30.765        4.480        0.021      336.240        7.409      866.370
12/08/2014  17:33:00      -48.168      -21.934       -9.293       12.598        7.165        6.280      158.720       51.330       39.432        0.157        0.012       52.927        3.889        0.005      336.154        7.264      866.384
12/08/2014  17:34:00      -78.828      -17.012       -7.494       18.511       16.818       11.771      342.671      282.850      138.553        0.366        0.038       80.643        7.594        0.009      336.043        7.079      866.409
12/08/2014  17:35:00      -86.110        0.867       -3.888       35.724       20.262       18.928     1276.186      410.537      358.252        0.474        0.102       86.115       20.185        0.055      335.934        6.897      866.422
12/08/2014  17:36:00      -45.373       -4.542       -3.947       34.441       15.383       17.113     1186.178      236.637      292.859        0.190        0.086       45.600       17.595        0.149      335.888        6.823      866.431
12/08/2014  17:37:00      -61.819        7.857      -12.410       18.202       13.636        9.441      331.302      185.941       89.136        0.232        0.030       62.316        9.524        0.023      335.932        6.895      866.439
12/08/2014  17:38:00      -36.826        2.312       -8.105       16.706        7.090        7.371      279.075       50.270       54.327        0.091        0.019       36.899        8.913        0.058      336.023        7.045      866.432
12/08/2014  17:39:00      -13.715        9.854       -8.781       13.110       13.252        5.254      171.882      175.616       27.601        0.037        0.019       16.888        3.664        0.047      336.044        7.081      866.413
12/08/2014  17:40:00        1.962       32.806       -4.240        7.771        9.081        7.890       60.381       82.469       62.251        0.065        0.010       32.865        3.453        0.011      336.359        7.607      866.385
12/08/2014  17:41:00        6.845       39.040       -0.855       11.041       21.388       11.042      121.912      457.457      121.931        0.114        0.035       39.636       11.098        0.078      336.295        7.499      866.361
12/08/2014  17:42:00       10.528       12.780       -2.131       10.989       15.064        7.595      120.755      226.929       57.683        0.034        0.020       16.558        3.914        0.056      336.302        7.513      866.363
12/08/2014  17:43:00       30.735       22.569        4.422        9.230       10.827        9.617       85.201      117.226       92.488        0.088        0.015       38.131        7.148        0.035      336.258        7.438      866.377
12/08/2014  17:44:00       18.274       34.758       -2.949       11.012        8.782        6.522      121.267       77.117       42.542        0.090        0.012       39.270        5.745        0.021      336.272        7.461      866.405
12/08/2014  17:45:00        3.812       36.407       -5.498        4.900        5.244        3.637       24.011       27.496       13.226        0.072        0.003       36.606        1.512        0.002      336.275        7.466      866.426
12/08/2014  17:46:00        5.694       43.608       -3.641        5.859       13.179        3.634       34.333      173.674       13.203        0.108        0.011       43.978        5.384        0.015      336.304        7.516      866.446
12/08/2014  17:47:00       20.291       63.074       -8.589        8.769        8.055        4.816       76.895       64.891       23.196        0.231        0.008       66.258        3.473        0.003      336.237        7.404      866.455
12/08/2014  17:48:00       30.678       35.889       -0.186       16.950       17.486       10.742      287.303      305.748      115.392        0.147        0.035       47.215        9.250        0.038      336.062        7.111      866.459
12/08/2014  17:49:00       57.760       38.047        5.535       20.420       14.345       10.433      416.972      205.791      108.840        0.277        0.037       69.164        3.431        0.002      336.059        7.107      866.458
12/08/2014  17:50:00       58.299       25.342        8.221       19.051       13.636       10.575      362.925      185.950      111.830        0.238        0.033       63.569        7.143        0.013      336.029        7.056      866.461
12/08/2014  17:51:00       43.643       20.875        3.859       17.575       14.628       10.958      308.865      213.970      120.075        0.150        0.032       48.379        8.459        0.031      336.122        7.212      866.459
12/08/2014  17:52:00       12.454       14.881       -2.796       17.571        9.670        6.295      308.737       93.518       39.628        0.041        0.022       19.405        4.286        0.049      336.209        7.357      866.472
12/08/2014  17:53:00      -38.213        4.641       -8.146       32.454       12.033        6.428     1053.287      144.788       41.318        0.139        0.062       38.494        9.756        0.064      336.103        7.181      866.499
12/08/2014  17:54:00     -110.570       -8.195      -14.268       24.219       18.076       15.612      586.540      326.758      243.748        0.683        0.058      110.873       10.034        0.008      335.601        6.344      866.520
12/08/2014  17:55:00     -107.186      -23.448       -9.682       41.310       22.790       17.294     1706.550      519.367      299.072        0.733        0.126      109.721       19.304        0.031      335.493        6.162      866.525
12/08/2014  17:56:00      -53.877        1.954       -2.863       40.311       22.613       18.430     1625.006      511.344      339.648        0.269        0.124       53.912       18.285        0.115      335.481        6.142      866.547
12/08/2014  17:57:00      -77.506       -5.894       -8.643       29.285       25.196       18.371      857.632      634.863      337.506        0.397        0.092       77.730       19.304        0.062      335.506        6.185      866.567
12/08/2014  17:58:00      -90.466        0.281      -18.023       23.773       20.372       14.741      565.139      415.000      217.304        0.485        0.060       90.466       11.541        0.016      335.535        6.234      866.586
12/08/2014  17:59:00      -60.448       -5.473      -12.703       17.995       13.626       12.985      323.818      185.677      168.602        0.226        0.034       60.695       11.453        0.036      335.523        6.214      866.593
12/08/2014  18:00:00      -61.513        1.106      -13.820       14.078       11.584       10.492      198.202      134.192      110.076        0.221        0.022       61.523        7.189        0.014      335.567        6.287      866.584
12/08/2014  18:01:00      -67.310        2.067      -17.265        8.863       11.726       10.454       78.557      137.496      109.276        0.258        0.016       67.341        7.425        0.012      335.556        6.269      866.569
12/08/2014  18:02:00      -61.579        7.831      -13.431       27.080       16.709       11.826      733.347      279.198      139.864        0.259        0.058       62.075       11.803        0.036      335.508        6.187      866.558
12/08/2014  18:03:00      -56.272        2.779      -16.369       18.281       10.108        9.679      334.206      102.168       93.680        0.199        0.027       56.341        9.068        0.026      335.449        6.089      866.545
12/08/2014  18:04:00      -90.115        0.514      -16.078       19.650       17.461       15.512      386.105      304.878      240.627        0.466        0.047       90.117       11.134        0.015      335.420        6.040      866.535
12/08/2014  18:05:00     -101.094       -9.420      -12.857       32.817       35.415       20.514     1076.923     1254.214      420.841        0.661        0.138      101.532       14.895        0.022      335.367        5.953      866.539
12/08/2014  18:06:00      -86.138       -5.313       -2.759       40.192       27.709       21.800     1615.408      767.762      475.236        0.516        0.143       86.302       19.128        0.049      335.296        5.836      866.554
12/08/2014  18:07:00      -75.850      -14.361       -0.973       36.864       23.128       16.154     1358.983      534.882      260.947        0.406        0.108       77.197       18.839        0.060      335.340        5.908      866.574
12/08/2014  18:08:00      -71.891      -26.759       -7.915       19.812       17.053       15.050      392.508      290.808      226.507        0.343        0.045       76.709        4.474        0.003      335.436        6.069      866.580
12/08/2014  18:09:00      -65.013      -13.957       -7.063       15.788       13.814        9.362      249.254      190.834       87.646        0.250        0.026       66.495        7.446        0.013      335.447        6.087      866.570
12/08/2014  18:10:00      -78.285       -7.506       -9.583       13.039       12.424        9.664      170.014      154.359       93.394        0.335        0.021       78.644        3.418        0.002      335.522        6.211      866.556
12/08/2014  18:11:00     -104.419       -3.278      -20.396       12.899       16.541       12.504      166.375      273.605      156.351        0.596        0.030      104.470        8.748        0.007      335.559        6.273      866.541
12/08/2014  18:12:00      -93.336      -27.416       -9.386       20.681       16.817       13.412      427.723      282.820      179.885        0.522        0.045       97.279       10.243        0.011      335.496        6.169      866.515
12/08/2014  18:13:00      -83.046      -23.161       -5.657       42.906       35.084       19.230     1840.962     1230.853      369.794        0.545        0.172       86.215       19.179        0.049      335.456        6.100      866.492
12/08/2014  18:14:00      -62.485      -20.288       -6.417       44.176       36.383       24.142     1951.541     1323.687      582.849        0.411        0.193       65.696       20.495        0.097      335.424        6.048      866.492
12/08/2014  18:15:00      -82.456      -32.645       -1.014       33.626       34.414       19.576     1130.716     1184.307      383.211        0.528        0.135       88.683       19.036        0.046      335.390        5.992      866.507
12/08/2014  18:16:00      -66.746      -29.399       -4.093       32.370       26.832       15.522     1047.816      719.962      240.922        0.367        0.100       72.934       12.644        0.030      335.377        5.970      866.509
12/08/2014  18:17:00      -43.336      -13.749       -2.718       23.073       17.659       11.378      532.375      311.848      129.469        0.152        0.049       45.465        8.072        0.032      335.369        5.956      866.502
12/08/2014  18:18:00      -16.607       -8.901       -4.030       16.244       16.552       10.472      263.876      273.955      109.653        0.051        0.032       18.842        9.342        0.246      335.460        6.108      866.506
12/08/2014  18:19:00      -36.014      -18.214      -14.002       14.989       10.575        8.146      224.685      111.831       66.361        0.111        0.020       40.357        8.301        0.042      335.528        6.220      866.521
12/08/2014  18:20:00      -72.458      -28.947       -8.358       19.168       21.745       12.040      367.431      472.863      144.965        0.357        0.049       78.026       10.077        0.017      335.540        6.243      866.530
12/08/2014  18:21:00      -75.153      -22.843       -0.444       22.682       37.280       19.707      514.477     1389.795      388.358        0.423        0.115       78.548        9.614        0.015      335.438        6.072      866.529
12/08/2014  18:22:00     -126.254       47.065      -20.966       56.153       40.507       25.858     3153.150     1640.837      668.649        1.203        0.273      134.741       12.283        0.008      335.573        6.297      866.546
12/08/2014  18:23:00     -105.564       37.293      -18.208       43.128       31.290       24.447     1860.060      979.085      597.639        0.815        0.172      111.958       23.173        0.043      335.625        6.384      866.547
12/08/2014  18:24:00     -115.413       41.060       -7.719       40.904       27.176       22.404     1673.136      738.538      501.935        0.899        0.146      122.500       17.563        0.021      335.623        6.382      866.548
12/08/2014  18:25:00     -103.816       29.285       -6.826       50.109       28.397       16.816     2510.961      806.404      282.788        0.764        0.180      107.868       14.335        0.018      335.549        6.257      866.556
12/08/2014  18:26:00      -61.558       -0.718      -11.384       26.595       19.313       15.321      707.296      372.990      234.740        0.262        0.066       61.562        5.891        0.009      335.503        6.179      866.565
12/08/2014  18:27:00      -87.846       12.300       -5.475       30.237       31.828       20.516      914.258     1013.032      420.909        0.512        0.117       88.703       15.395        0.030      335.546        6.253      866.564
12/08/2014  18:28:00      -65.228       13.799      -11.630       21.864       29.965       13.964      478.022      897.916      195.000        0.308        0.079       66.672       10.172        0.023      335.565        6.284      866.559
12/08/2014  18:29:00      -75.206       -4.486       -8.601       30.139       23.529       14.936      908.337      553.629      223.090        0.372        0.084       75.340       11.485        0.023      335.548        6.256      866.571
12/08/2014  18:30:00      -63.959      -17.472       -2.058       49.399       27.675       19.065     2440.245      765.912      363.485        0.398        0.178       66.303       17.678        0.071      335.383        5.980      866.600
12/08/2014  18:31:00     -110.229      -14.868      -13.786       43.834       44.565       24.355     1921.435     1986.010      593.142        0.853        0.225      111.227       20.932        0.035      335.256        5.768      866.627
12/08/2014  18:32:00     -142.276      -10.011      -15.308       32.881       33.215       21.794     1081.158     1103.237      474.992        1.162        0.133      142.627       17.102        0.014      335.223        5.714      866.635
12/08/2014  18:33:00     -134.637       30.018      -12.943       43.544       36.622       22.959     1896.049     1341.170      527.099        1.148        0.188      137.942       12.531        0.008      335.365        5.948      866.636
12/08/2014  18:34:00     -137.181       36.171      -18.703       27.898       27.596       17.571      778.303      761.535      308.753        1.116        0.092      141.869        9.057        0.004      335.442        6.077      866.628
12/08/2014  18:35:00     -135.997       24.917      -11.326       34.996       26.989       17.494     1224.713      728.395      306.026        1.075        0.113      138.261       15.419        0.012      335.544        6.248      866.629
12/08/2014  18:36:00     -135.176       30.484       -7.956       44.991       32.098       25.187     2024.148     1030.265      634.399        1.148        0.184      138.570       17.739        0.016      335.441        6.077      866.636
12/08/2014  18:37:00     -149.635       48.000      -12.108       52.069       32.410       22.533     2711.147     1050.430      507.716        1.455        0.213      157.145       20.025        0.016      335.334        5.898      866.643
12/08/2014  18:38:00     -133.298        4.094      -14.864       37.189       28.976       15.362     1383.000      839.584      235.979        1.023        0.123      133.361       15.616        0.014      335.318        5.870      866.658
12/08/2014  18:39:00     -141.227       16.448      -15.238       47.849       34.527       21.681     2289.543     1192.100      470.076        1.220        0.198      142.182       17.969        0.016      335.294        5.830      866.679
12/08/2014  18:40:00     -111.263       25.395       -8.625       27.618       26.673       19.392      762.764      711.440      376.061        0.747        0.093      114.125       12.911        0.013      335.300        5.842      866.671
12/08/2014  18:41:00      -73.903       31.096        2.344       37.917       23.981       26.030     1437.686      575.080      677.558        0.456        0.135       80.178       17.520        0.048      335.389        5.990      866.653
12/08/2014  18:42:00     -101.710       30.390       -6.627       28.881       27.919       21.752      834.138      779.454      473.162        0.670        0.104      106.153       14.830        0.020      335.540        6.242      866.653
12/08/2014  18:43:00      -94.595      -30.030       -7.501       25.526       33.730       13.581      651.559     1137.722      184.434        0.594        0.099       99.247        9.857        0.010      335.370        5.957      866.669
12/08/2014  18:44:00     -114.379      -35.414       -7.236       24.473       27.954       18.552      598.936      781.409      344.195        0.806        0.086      119.736       13.148        0.012      335.251        5.761      866.691
12/08/2014  18:45:00     -118.888       32.876      -11.339       36.640       28.330       20.741     1342.485      802.607      430.189        0.896        0.129      123.350       16.656        0.018      335.436        6.067      866.697
12/08/2014  18:46:00      -92.706       34.863      -12.432       36.302       27.158       17.502     1317.828      737.557      306.307        0.616        0.118       99.045        6.169        0.004      335.554        6.266      866.677
12/08/2014  18:47:00      -75.312       11.568       -7.598       40.003       28.133       22.263     1600.247      791.445      495.621        0.437        0.144       76.195       22.105        0.084      335.556        6.267      866.677
12/08/2014  18:48:00     -101.641      -14.664       -2.334       37.848       26.262       20.447     1432.435      689.693      418.090        0.655        0.127      102.694       20.115        0.038      335.403        6.014      866.697
12/08/2014  18:49:00     -100.290       -5.011      -10.247       35.946       26.576       18.852     1292.145      706.307      355.393        0.627        0.118      100.415       17.404        0.030      335.328        5.888      866.725
12/08/2014  18:50:00     -122.495        9.446      -11.905       28.695       26.728       19.332      823.416      714.395      373.739        0.857        0.096      122.859       15.172        0.015      335.238        5.738      866.744
12/08/2014  18:51:00      -62.186       18.174        0.448       32.975       22.877       20.175     1087.341      523.346      407.027        0.311        0.101       64.787       12.230        0.036      335.272        5.794      866.752
12/08/2014  18:52:00      -72.238       23.492       -9.370       27.881       21.697       15.027      777.377      470.754      225.800        0.367        0.074       75.962       14.174        0.035      335.652        6.429      866.764
12/08/2014  18:53:00       -6.550       15.476       -0.824       25.932       18.874        7.806      672.476      356.246       60.927        0.069        0.054       16.805        4.781        0.081      335.725        6.550      866.776
12/08/2014  18:54:00       12.528       27.444       33.305       17.849       16.800       12.899      318.578      282.239      166.384        0.139        0.038       30.168       10.691        0.126      335.470        6.124      866.788
12/08/2014  18:55:00       80.872       45.384        5.615       15.896       19.233       18.718      252.693      369.911      350.360        0.480        0.049       92.736        6.533        0.005      335.395        5.998      866.794
12/08/2014  18:56:00       86.861       61.223       -5.157       27.949       15.887       16.702      781.124      252.394      278.943        0.632        0.066      106.269       12.115        0.013      335.388        5.987      866.803
12/08/2014  18:57:00       70.171       59.353        0.800       20.078       15.014       18.003      403.138      225.411      324.111        0.470        0.048       91.906        7.186        0.006      335.286        5.818      866.800
12/08/2014  18:58:00       31.613       33.322       -7.474       26.790       24.286       13.330      717.682      589.813      177.685        0.183        0.074       45.932       10.885        0.056      335.299        5.840      866.807
12/08/2014  18:59:00        3.132       71.470      -12.405       13.710       27.999       10.267      187.972      783.953      105.403        0.317        0.054       71.538       12.664        0.031      335.446        6.084      866.816
12/08/2014  19:00:00       -5.041       90.177       -9.051       17.336       25.694       16.509      300.537      660.200      272.551        0.474        0.062       90.318       15.451        0.029      335.688        6.489      866.826
12/08/2014  19:01:00      -24.367       47.719       -5.652       28.427       30.161       16.850      808.066      909.667      283.907        0.245        0.100       53.580       10.541        0.039      335.724        6.548      866.834
12/08/2014  19:02:00      -42.753       39.207       -7.328       18.659       28.446       16.846      348.154      809.175      283.786        0.243        0.072       58.008       13.959        0.058      335.592        6.327      866.836
12/08/2014  19:03:00      -44.304      -16.879      -10.009       11.158        8.114        6.106      124.496       65.834       37.289        0.129        0.011       47.410        5.411        0.013      335.275        5.799      866.837
12/08/2014  19:04:00      -46.140      -10.027       -3.679        7.707        7.859        6.496       59.392       61.756       42.192        0.120        0.008       47.217        5.004        0.011      335.254        5.765      866.830
12/08/2014  19:05:00      -31.942      -20.847       -4.520        8.817        5.394        3.844       77.737       29.091       14.777        0.080        0.006       38.143        2.067        0.003      335.342        5.909      866.825
12/08/2014  19:06:00       -4.326      -24.476       -4.282        8.298        9.155        9.929       68.863       83.812       98.589        0.044        0.013       24.855        6.962        0.078      335.449        6.090      866.825
12/08/2014  19:07:00       -0.782       24.122       30.939        7.627       14.261        9.603       58.167      203.371       92.217        0.095        0.018       24.134        9.893        0.168      335.324        5.881      866.822
12/08/2014  19:08:00       -0.220        4.050        2.116       10.191       10.897        9.275      103.849      118.747       86.020        0.016        0.015        4.055        9.978        6.054      335.314        5.865      866.822
12/08/2014  19:09:00       -7.565      -17.481       -1.612        6.050        4.130        2.656       36.606       17.056        7.052        0.021        0.003       19.047        1.408        0.005      335.601        6.343      866.815
12/08/2014  19:10:00       -8.777       -1.460       -0.629        6.111        7.678        3.555       37.342       58.948       12.639        0.009        0.005        8.898        3.220        0.131      335.519        6.206      866.812
12/08/2014  19:11:00        5.738        2.596        6.061        5.468        6.262        5.148       29.894       39.213       26.500        0.009        0.005        6.298        3.147        0.250      335.578        6.305      866.811
12/08/2014  19:12:00       19.779        8.081        5.492        8.939        6.996        6.879       79.904       48.937       47.327        0.033        0.009       21.367        6.554        0.094      335.550        6.256      866.812
12/08/2014  19:13:00       23.303        6.339        6.269        8.814        7.481        5.928       77.679       55.970       35.147        0.040        0.008       24.150        1.995        0.007      335.541        6.244      866.808
12/08/2014  19:14:00       29.336       15.403        0.448        8.579        4.645        4.891       73.592       21.581       23.924        0.061        0.006       33.134        2.843        0.007      335.545        6.249      866.805
12/08/2014  19:15:00       10.226        5.055       -0.593        6.640        4.858        2.504       44.096       23.604        6.269        0.010        0.004       11.407        2.276        0.040      335.553        6.263      866.814
12/08/2014  19:16:00      -15.650       -9.838       -4.452       16.420       10.011        5.540      269.632      100.218       30.694        0.038        0.020       18.485        7.944        0.185      335.538        6.239      866.825
12/08/2014  19:17:00      -50.928      -35.096       -8.456       11.453        8.147        7.940      131.182       66.378       63.040        0.208        0.013       61.850        4.899        0.006      335.318        5.870      866.857
12/08/2014  19:18:00      -60.457      -36.771       -7.087       11.972       10.116       11.834      143.337      102.334      140.048        0.272        0.019       70.761        3.507        0.002      335.246        5.752      866.881
12/08/2014  19:19:00      -61.434      -36.106      -12.369       17.458       12.175       10.265      304.776      148.233      105.370        0.289        0.028       71.258        5.695        0.006      335.282        5.809      866.897
12/08/2014  19:20:00      -82.533      -34.741       -5.528        9.987       10.641        7.639       99.736      113.237       58.349        0.416        0.014       89.546        5.017        0.003      335.354        5.931      866.907
12/08/2014  19:21:00      -79.000      -41.584       -4.902       13.237       11.268        8.240      175.215      126.968       67.898        0.418        0.019       89.276        5.365        0.004      335.380        5.975      866.907
12/08/2014  19:22:00      -71.068      -33.705        2.550       21.641       14.558       11.240      468.322      211.927      126.330        0.350        0.040       78.656        9.249        0.014      335.315        5.867      866.915
12/08/2014  19:23:00     -112.908      -37.964       -1.945       21.983       17.912       14.736      483.259      320.839      217.157        0.761        0.051      119.120       10.083        0.007      335.293        5.829      866.924
12/08/2014  19:24:00     -143.844      -47.201        0.444       35.922       30.898       16.652     1290.388      954.701      277.292        1.272        0.126      151.391       16.273        0.012      335.058        5.440      866.945
12/08/2014  19:25:00     -173.268      -60.387       -3.665       34.710       33.055       23.142     1204.774     1092.638      535.572        1.826        0.142      183.490       13.862        0.006      335.086        5.487      866.961
12/08/2014  19:26:00     -163.135      -54.730       -4.632       46.874       41.897       24.923     2197.188     1755.388      621.141        1.710        0.229      172.071       22.812        0.018      335.147        5.589      866.970
12/08/2014  19:27:00     -133.428      -38.156       -1.728       50.429       38.833       20.086     2543.090     1508.005      403.440        1.186        0.223      138.777       25.571        0.034      335.157        5.605      866.979
12/08/2014  19:28:00     -113.819      -30.307       -3.240       31.168       24.432       21.396      971.422      596.924      457.770        0.795        0.101      117.785       18.497        0.025      335.158        5.606      866.982
12/08/2014  19:29:00      -65.103      -45.364        0.058       33.904       29.610       16.888     1149.513      876.735      285.204        0.430        0.116       79.349       15.259        0.037      335.131        5.561      866.981
12/08/2014  19:30:00      -98.511      -26.313       -9.820       25.569       19.270       11.589      653.772      371.345      134.305        0.583        0.058      101.965       11.597        0.013      335.150        5.593      866.985
12/08/2014  19:31:00      -74.000      -20.111       -3.573       23.641       17.985       13.910      558.908      323.449      193.484        0.348        0.054       76.684       14.214        0.034      335.155        5.602      866.989
12/08/2014  19:32:00      -73.306      -24.105        0.372       23.363       16.802       12.884      545.810      282.298      165.998        0.347        0.050       77.168       11.927        0.024      335.170        5.625      866.986
12/08/2014  19:33:00      -74.001      -24.299       -0.172       24.643       17.113       14.341      607.268      292.844      205.651        0.359        0.055       77.888       12.698        0.027      335.210        5.692      866.988
12/08/2014  19:34:00      -51.364      -18.648        5.091       32.033       17.966       15.483     1026.098      322.770      239.725        0.230        0.079       54.645       18.326        0.112      335.156        5.601      866.981
12/08/2014  19:35:00      -81.119      -27.142        1.789       28.230       21.209       14.867      796.949      449.811      221.017        0.439        0.073       85.539       13.315        0.024      335.178        5.639      866.978
12/08/2014  19:36:00     -117.576      -47.417        3.463       25.756       22.308       15.996      663.377      497.655      255.870        0.875        0.071      126.778       13.601        0.012      335.179        5.640      866.973
12/08/2014  19:37:00     -105.308      -51.881       -2.816       23.347       17.118       13.521      545.088      293.010      182.824        0.740        0.051      117.394       13.755        0.014      335.145        5.584      866.967
12/08/2014  19:38:00      -88.216      -40.886       -7.917       12.139       18.376        7.640      147.346      337.675       58.370        0.503        0.027       97.230        4.021        0.002      335.090        5.493      866.955
12/08/2014  19:39:00      -77.706       -7.084       -6.045       18.258       14.919       10.536      333.343      222.564      111.013        0.340        0.033       78.028        6.664        0.007      335.031        5.396      866.934
12/08/2014  19:40:00      -80.137       -5.453       -4.098       15.725       16.207       10.256      247.267      262.656      105.182        0.354        0.031       80.322        9.132        0.013      335.095        5.503      866.911
12/08/2014  19:41:00      -89.025      -16.971       -1.728       20.452       13.295       10.751      418.291      176.753      115.594        0.446        0.036       90.629        9.824        0.012      335.118        5.539      866.895
12/08/2014  19:42:00     -107.593      -18.556       -7.145       23.857       15.077       11.339      569.168      227.325      128.562        0.645        0.046      109.181       10.595        0.009      335.146        5.586      866.896
12/08/2014  19:43:00     -115.812      -41.260       -0.028       24.034       19.138       11.245      577.611      366.278      126.448        0.809        0.054      122.942       11.902        0.009      335.155        5.599      866.904
12/08/2014  19:44:00     -112.557      -24.424        0.543       22.364       22.264       14.694      500.147      495.681      215.908        0.724        0.061      115.176       10.298        0.008      335.186        5.653      866.904
12/08/2014  19:45:00      -81.328      -20.199       -2.008       27.548       16.624       13.736      758.878      276.364      188.683        0.412        0.061       83.799       12.914        0.024      335.161        5.611      866.892
12/08/2014  19:46:00      -95.325      -26.168       -7.666       13.019       12.253        8.256      169.486      150.136       68.157        0.511        0.019       98.852        4.925        0.002      335.203        5.680      866.887
12/08/2014  19:47:00      -85.324      -25.189       -8.060       12.236       14.110        9.319      149.711      199.082       86.850        0.421        0.022       88.965        7.946        0.008      335.201        5.677      866.882
12/08/2014  19:48:00      -98.651      -14.873      -10.812       19.412       14.424       12.642      376.819      208.066      159.815        0.541        0.037       99.766       11.851        0.014      335.176        5.634      866.881
12/08/2014  19:49:00      -74.913      -17.873       -2.087       36.363       23.550       18.277     1322.251      554.611      334.039        0.407        0.111       77.016       15.022        0.038      335.091        5.496      866.888
12/08/2014  19:50:00     -100.595      -18.527       -4.856       28.854       24.991       15.298      832.540      624.542      234.015        0.609        0.085      102.287       15.963        0.024      335.056        5.438      866.896
12/08/2014  19:51:00      -86.698      -34.280       -3.331       27.686       21.939       14.665      766.532      481.309      215.071        0.508        0.073       93.229       14.500        0.024      335.033        5.401      866.916
12/08/2014  19:52:00     -117.475       -3.798      -13.442       22.625       18.068       14.112      511.887      326.439      199.160        0.752        0.052      117.536       11.212        0.009      335.012        5.364      866.939
12/08/2014  19:53:00     -139.688        3.887      -16.613       33.093       24.188       19.378     1095.123      585.044      375.503        1.093        0.103      139.742       16.511        0.014      335.033        5.399      866.958
12/08/2014  19:54:00     -177.407        0.368      -25.448       21.052       25.353       14.752      443.178      642.787      217.633        1.671        0.065      177.408        8.291        0.002      335.048        5.424      866.971
12/08/2014  19:55:00     -166.428      -15.569      -13.005       39.621       35.372       24.222     1569.856     1251.169      586.682        1.576        0.170      167.154       20.702        0.015      334.989        5.326      866.986
12/08/2014  19:56:00     -161.554      -16.263      -10.394       55.630       38.792       28.222     3094.669     1504.833      796.464        1.593        0.270      162.370       32.915        0.041      334.910        5.195      867.005
12/08/2014  19:57:00     -157.703      -20.120      -13.054       44.383       40.418       21.912     1969.812     1633.605      480.126        1.476        0.204      158.981       18.535        0.014      334.914        5.200      867.007
12/08/2014  19:58:00     -140.462        5.885      -15.731       47.823       41.255       25.110     2287.003     1701.946      630.498        1.231        0.231      140.585       24.407        0.030      334.854        5.102      866.999
12/08/2014  19:59:00     -128.828       21.365      -11.516       31.004       42.582       27.959      961.263     1813.192      781.698        1.037        0.178      130.588        7.217        0.003      334.977        5.307      866.978
12/08/2014  20:00:00     -146.347       23.312      -20.460       38.753       39.927       21.462     1501.822     1594.139      460.614        1.297        0.178      148.192       15.912        0.012      335.019        5.375      866.958
12/08/2014  20:01:00     -144.222       21.448      -18.981       30.236       46.600       24.157      914.206     2171.562      583.545        1.264        0.183      145.808       17.199        0.014      335.010        5.360      866.945
12/08/2014  20:02:00     -126.151       25.975      -14.389       42.325       33.408       27.334     1791.419     1116.101      747.164        1.022        0.183      128.798       22.103        0.029      334.961        5.279      866.933
12/08/2014  20:03:00     -120.810        3.023      -10.191       36.041       27.696       26.494     1298.945      767.074      701.931        0.874        0.138      120.848       14.317        0.014      335.045        5.419      866.940
12/08/2014  20:04:00     -122.588       -4.681      -13.651       29.313       28.070       18.297      859.274      787.938      334.793        0.861        0.099      122.677       12.239        0.010      334.989        5.326      866.941
12/08/2014  20:05:00     -155.651        6.953      -16.636       31.163       33.350       17.462      971.118     1112.191      304.919        1.347        0.119      155.806       11.605        0.006      335.010        5.359      866.947
12/08/2014  20:06:00     -174.031       -8.059      -22.374       25.345       31.877       16.509      642.356     1016.142      272.554        1.639        0.097      174.217       10.902        0.004      334.876        5.137      866.961
12/08/2014  20:07:00     -170.058        7.858      -16.532       36.894       26.823       17.000     1361.136      719.450      288.998        1.581        0.118      170.240       13.589        0.006      334.820        5.043      866.966
12/08/2014  20:08:00     -192.967       -2.423      -25.054       34.471       38.392       20.125     1188.242     1473.912      405.000        2.047        0.153      192.983       16.072        0.007      334.842        5.081      866.976
12/08/2014  20:09:00     -168.116        0.720      -18.614       33.167       35.880       20.793     1100.081     1287.403      432.359        1.571        0.141      168.117       12.138        0.005      334.832        5.065      866.986
12/08/2014  20:10:00     -124.663       -4.700      -14.403       45.096       37.371       23.796     2033.653     1396.580      566.240        0.988        0.200      124.751       21.245        0.029      334.807        5.023      866.987
12/08/2014  20:11:00     -114.381       25.291      -17.525       35.993       26.210       22.781     1295.489      686.974      518.976        0.827        0.125      117.144       17.455        0.022      334.797        5.006      866.974
12/08/2014  20:12:00     -151.881       30.637      -18.305       21.017       22.193       13.380      441.716      492.546      179.015        1.273        0.056      154.940        5.930        0.001      334.908        5.190      866.959
12/08/2014  20:13:00     -116.498       16.229      -13.700       22.356       26.933       18.862      499.772      725.406      355.790        0.780        0.079      117.623       14.809        0.016      334.841        5.079      866.937
12/08/2014  20:14:00      -72.493      -16.042      -10.251       33.589       18.461       15.517     1128.252      340.810      240.780        0.366        0.085       74.247       18.356        0.061      334.899        5.176      866.910
12/08/2014  20:15:00      -38.944      -29.358       -5.053       30.846       15.602       11.846      951.467      243.434      140.321        0.187        0.067       48.770        4.436        0.008      334.883        5.151      866.901
12/08/2014  20:16:00      -38.651      -27.633       -6.758       15.331       17.600       12.331      235.041      309.760      152.046        0.150        0.035       47.513        8.633        0.033      334.868        5.123      866.891
12/08/2014  20:17:00       -9.955       -8.609       -4.426       10.287       10.568        4.414      105.819      111.681       19.480        0.021        0.012       13.161        3.837        0.085      334.843        5.083      866.869
12/08/2014  20:18:00        7.701        7.293       -4.880        9.521        8.514        8.307       90.644       72.493       69.013        0.018        0.012       10.606        5.555        0.274      334.992        5.330      866.857
12/08/2014  20:19:00        4.110      -13.101       -9.329        6.240        7.203        6.152       38.935       51.889       37.843        0.020        0.006       13.730        3.932        0.082      335.115        5.535      866.846
12/08/2014  20:20:00        6.915      -12.992        3.060        8.695       14.854       12.413       75.608      220.632      154.079        0.034        0.023       14.718       11.002        0.559      335.079        5.477      866.838
12/08/2014  20:21:00        5.935      -25.992      -10.779       27.117       13.036       11.203      735.313      169.949      125.509        0.093        0.052       26.660        9.098        0.116      335.141        5.579      866.827
12/08/2014  20:22:00      -36.275      -29.806       -7.048       12.641        9.466       10.248      159.799       89.611      105.025        0.130        0.018       46.950        3.295        0.005      335.057        5.438      866.826
12/08/2014  20:23:00      -64.224      -26.817       -8.702        9.585       10.414        6.399       91.866      108.460       40.952        0.258        0.012       69.598        3.763        0.003      334.934        5.233      866.831
12/08/2014  20:24:00      -80.608      -12.923       -8.676       12.675       12.760        7.532      160.652      162.815       56.738        0.356        0.019       81.637        3.699        0.002      334.933        5.233      866.831
12/08/2014  20:25:00      -68.799      -16.821       -0.357       27.784       17.247       15.580      771.924      297.474      242.750        0.316        0.066       70.826       14.634        0.043      334.806        5.023      866.823
12/08/2014  20:26:00      -85.531      -24.481       -1.861       29.428       17.268       16.318      866.035      298.198      266.274        0.467        0.072       88.965       14.041        0.025      334.757        4.940      866.820
12/08/2014  20:27:00      -97.315      -29.054       -3.034       33.613       19.218       16.270     1129.848      369.348      264.702        0.604        0.088      101.560       15.262        0.023      334.736        4.905      866.818
12/08/2014  20:28:00     -130.994      -35.611       -4.564       27.481       28.685       15.803      755.199      822.821      249.736        1.014        0.091      135.748       15.160        0.012      334.752        4.931      866.817
12/08/2014  20:29:00     -117.691      -34.174       -3.871       39.702       26.677       18.956     1576.263      711.685      359.346        0.884        0.132      122.552       18.725        0.023      334.795        5.003      866.816
12/08/2014  20:30:00     -134.680      -43.600        1.105       29.413       21.269       17.770      865.150      452.381      315.768        1.084        0.082      141.561       15.496        0.012      334.751        4.931      866.831
12/08/2014  20:31:00     -147.453      -48.457       -8.155       33.343       28.429       17.291     1111.779      808.225      298.973        1.319        0.111      155.211       11.731        0.006      334.762        4.948      866.850
12/08/2014  20:32:00     -128.517      -44.928       -6.264       36.234       25.650       17.210     1312.900      657.940      296.173        1.042        0.113      136.144       14.093        0.011      334.656        4.774      866.858
12/08/2014  20:33:00     -128.999      -49.046       -1.496       30.377       23.729       18.646      922.750      563.075      347.663        1.044        0.092      138.008       15.991        0.013      334.627        4.723      866.867
12/08/2014  20:34:00     -113.147      -35.508      -11.773       17.374       17.519       15.603      301.867      306.899      243.455        0.753        0.043      118.588        9.848        0.007      334.636        4.739      866.857
12/08/2014  20:35:00      -76.400      -29.287       -4.623       17.794       18.260       12.566      316.610      333.421      157.902        0.376        0.040       81.821        8.516        0.011      334.646        4.756      866.851
12/08/2014  20:36:00      -69.482      -40.523        0.389       22.251       16.132        8.636      495.095      260.243       74.576        0.365        0.041       80.435        5.483        0.005      334.818        5.040      866.858
12/08/2014  20:37:00      -60.830      -37.002        0.768       27.221       17.182       11.071      741.000      295.224      122.571        0.311        0.058       71.199       11.865        0.028      334.788        4.994      866.864
12/08/2014  20:38:00      -81.300      -33.131       -1.754       36.050       21.083       14.287     1299.573      444.490      204.115        0.483        0.097       87.792       19.128        0.047      334.792        4.997      866.863
12/08/2014  20:39:00      -52.485      -21.713       -1.431       16.796       18.334       14.484      282.109      336.138      209.772        0.203        0.041       56.799        9.890        0.030      334.766        4.956      866.857
12/08/2014  20:40:00      -37.850      -28.122        3.085       28.078       15.211        9.189      788.362      231.384       84.432        0.167        0.055       47.153        5.797        0.015      334.807        5.024      866.857
12/08/2014  20:41:00      -41.863      -38.215        1.762       21.378       17.486       13.988      457.024      305.764      195.658        0.209        0.048       56.683        7.461        0.017      334.862        5.114      866.861
12/08/2014  20:42:00      -65.108      -47.812       -7.712       40.124       25.731       16.771     1609.936      662.095      281.265        0.457        0.128       80.777       12.001        0.022      334.808        5.023      866.858
12/08/2014  20:43:00      -60.622      -36.050        5.888       33.723       27.492       20.486     1137.259      755.798      419.667        0.366        0.116       70.531       20.017        0.081      334.694        4.835      866.863
12/08/2014  20:44:00      -32.476      -20.917        1.947       24.923       16.406       15.217      621.180      269.144      231.559        0.131        0.056       38.629        6.317        0.027      334.766        4.956      866.864
12/08/2014  20:45:00      -42.214       -5.881       -1.311       20.094       11.025       12.034      403.766      121.540      144.823        0.124        0.034       42.622       12.458        0.085      334.777        4.973      866.864
12/08/2014  20:46:00      -53.220        4.403       -7.004       19.688        7.774        6.658      387.634       60.438       44.331        0.170        0.025       53.402        5.356        0.010      334.810        5.028      866.858
12/08/2014  20:47:00      -67.993      -10.517       -5.933       11.203       10.755        8.825      125.501      115.668       77.875        0.254        0.016       68.802        7.264        0.011      334.824        5.051      866.864
12/08/2014  20:48:00      -72.900      -22.699       -7.539       11.101       11.583        8.005      123.233      134.169       64.083        0.310        0.016       76.352        4.554        0.004      334.809        5.026      866.888
12/08/2014  20:49:00      -88.328      -25.625       -7.343       18.082        9.502        7.995      326.946       90.297       63.917        0.450        0.024       91.970        7.971        0.008      334.769        4.961      866.916
12/08/2014  20:50:00     -106.857      -37.808       -1.935       29.492       22.481       13.405      869.755      505.395      179.702        0.720        0.078      113.349       14.790        0.017      334.721        4.880      866.926
12/08/2014  20:51:00     -112.442      -27.710       -5.367       29.144       20.129       15.388      849.389      405.169      236.801        0.747        0.075      115.806       13.184        0.013      334.722        4.881      866.915
12/08/2014  20:52:00      -75.327      -34.388        4.501       28.122       20.491       12.844      790.827      419.900      164.963        0.413        0.069       82.805       12.031        0.021      334.704        4.853      866.896
12/08/2014  20:53:00      -33.320        0.177        1.364       15.218       19.671        7.466      231.592      386.967       55.736        0.089        0.034       33.321        7.690        0.053      334.646        4.757      866.880
12/08/2014  20:54:00       -3.245        5.028       15.181       10.378        7.972        7.414      107.700       63.548       54.967        0.025        0.011        5.984        5.641        0.889      334.658        4.775      866.854
12/08/2014  20:55:00       -9.615       -0.808        3.087        9.873        9.245        5.493       97.469       85.465       30.171        0.016        0.011        9.649        5.092        0.279      334.667        4.791      866.814
12/08/2014  20:56:00       -2.091       -0.179        4.969        5.252        2.704        3.717       27.581        7.311       13.813        0.004        0.002        2.098        2.847        1.841      334.682        4.816      866.796
12/08/2014  20:57:00      -40.955      -17.917       -1.384       12.002       10.217        5.726      144.037      104.389       32.789        0.114        0.014       44.703        1.542        0.001      334.737        4.909      866.799
12/08/2014  20:58:00      -47.130       -5.578       -2.276       10.579        8.398        7.391      111.922       70.533       54.625        0.125        0.012       47.459        3.718        0.006      334.721        4.882      866.809
12/08/2014  20:59:00      -65.173       -9.375       -7.024       16.519       12.058        9.261      272.863      145.389       85.767        0.244        0.025       65.844        8.996        0.019      334.681        4.815      866.817
12/08/2014  21:00:00      -54.780      -25.315       -2.145       14.540       22.670        9.038      211.411      513.932       81.682        0.223        0.040       60.346        7.990        0.018      334.617        4.708      866.816
12/08/2014  21:01:00      -30.986      -19.664        2.445       25.005       25.697       13.901      625.250      660.328      193.248        0.142        0.074       36.699       12.896        0.123      334.635        4.737      866.826
12/08/2014  21:02:00      -82.888       -9.451        1.857       27.136       18.556       11.987      736.389      344.323      143.690        0.409        0.061       83.425       10.229        0.015      334.605        4.687      866.827
12/08/2014  21:03:00     -103.564       -7.682        0.237       32.623       24.177       19.884     1064.260      584.527      395.365        0.641        0.102      103.849       17.157        0.027      334.495        4.506      866.823
12/08/2014  21:04:00      -88.689      -14.342        5.221       35.724       25.182       21.228     1276.178      634.121      450.615        0.523        0.118       89.841       19.487        0.047      334.447        4.425      866.820
12/08/2014  21:05:00      -66.157      -13.627       -0.827       35.916       33.029       17.162     1289.989     1090.911      294.533        0.362        0.134       67.546        6.144        0.008      334.442        4.417      866.809
12/08/2014  21:06:00      -46.947      -23.901       -2.704       44.829       21.429       20.948     2009.597      459.213      438.799        0.284        0.145       52.680       24.418        0.215      334.473        4.468      866.811
12/08/2014  21:07:00      -22.015      -21.234        4.403       36.184       19.460       14.367     1309.273      378.711      206.397        0.142        0.095       30.587       15.617        0.261      334.538        4.576      866.819
12/08/2014  21:08:00       -8.102       -9.856       -3.131       16.154       12.766        9.666      260.956      162.961       93.423        0.034        0.026       12.759        9.135        0.513      334.524        4.553      866.818
12/08/2014  21:09:00      -23.740        0.498      -10.691       18.703        5.355        7.027      349.818       28.681       49.386        0.055        0.021       23.745        6.210        0.068      334.540        4.579      866.816
12/08/2014  21:10:00      -67.343       -5.081      -12.248       14.996       10.279        8.126      224.871      105.660       66.026        0.255        0.020       67.534        6.922        0.011      334.635        4.737      866.813
12/08/2014  21:11:00      -78.304      -23.330       -5.438       20.309       20.220       13.954      412.464      408.834      194.713        0.386        0.051       81.706        8.066        0.010      334.572        4.633      866.808
12/08/2014  21:12:00      -94.991      -34.005       -6.139       27.516       21.097       13.216      757.132      445.070      174.669        0.580        0.069      100.894        9.083        0.008      334.563        4.618      866.803
12/08/2014  21:13:00     -102.963      -46.823       -3.758       21.524       33.333       18.426      463.274     1111.097      339.524        0.736        0.096      113.110       10.524        0.009      334.460        4.448      866.799
12/08/2014  21:14:00     -128.538      -46.179       -2.914       36.264       32.289       19.040     1315.110     1042.547      362.523        1.069        0.136      136.582       17.760        0.017      334.438        4.410      866.799
12/08/2014  21:15:00     -120.094      -24.079       -3.750       30.657       25.070       18.123      939.834      628.491      328.447        0.846        0.095      122.484       15.982        0.017      334.416        4.374      866.804
12/08/2014  21:16:00     -134.663      -12.461       -6.721       35.447       27.792       24.579     1256.513      772.376      604.136        1.048        0.132      135.239       22.629        0.028      334.354        4.272      866.810
12/08/2014  21:17:00     -125.820      -23.873      -12.485       49.005       33.940       23.564     2401.453     1151.941      555.265        1.033        0.205      128.065       26.327        0.042      334.301        4.184      866.804
12/08/2014  21:18:00     -135.401       12.810       -7.082       43.007       32.512       25.257     1849.580     1057.009      637.912        1.105        0.177      136.005       24.546        0.033      334.187        3.994      866.800
12/08/2014  21:19:00     -142.158       30.991      -12.465       36.374       28.219       17.680     1323.035      796.339      312.589        1.188        0.122      145.497       15.083        0.011      334.240        4.083      866.800
12/08/2014  21:20:00     -160.880       28.951      -20.020       30.805       32.218       20.792      948.969     1037.995      432.297        1.477        0.121      163.464       10.914        0.004      334.268        4.127      866.789
12/08/2014  21:21:00     -142.702       27.736      -19.131       39.084       26.993       18.901     1527.525      728.644      357.249        1.206        0.131      145.372       12.726        0.008      334.233        4.070      866.777
12/08/2014  21:22:00     -142.478       15.673      -15.500       23.973       34.544       18.652      574.718     1193.319      347.905        1.145        0.106      143.337       14.773        0.011      334.250        4.099      866.772
12/08/2014  21:23:00     -107.723       -0.499      -11.852       34.177       28.157       19.461     1168.037      792.816      378.740        0.704        0.117      107.724       18.214        0.029      334.246        4.092      866.762
12/08/2014  21:24:00      -50.912        1.643       -2.856       27.834       14.765       14.810      774.748      218.004      219.322        0.191        0.061       50.939        9.910        0.038      334.259        4.114      866.762
12/08/2014  21:25:00      -54.130        9.381       -7.002       11.660       11.883        9.290      135.962      141.208       86.297        0.172        0.018       54.937        5.009        0.008      334.344        4.254      866.760
12/08/2014  21:26:00      -40.412       -5.595       -4.018       10.564        9.799        7.609      111.593       96.025       57.903        0.097        0.013       40.797        4.261        0.011      334.426        4.392      866.746
12/08/2014  21:27:00      -26.137        3.042        2.140       13.339        7.670        7.713      177.926       58.828       59.489        0.050        0.015       26.313        6.657        0.064      334.476        4.473      866.732
12/08/2014  21:28:00        7.265       32.592        2.613       13.845       33.212       13.294      191.684     1103.067      176.733        0.130        0.074       33.392       16.730        0.251      334.551        4.600      866.723
12/08/2014  21:29:00       -7.680      117.907      -17.354       11.800       21.934        8.968      139.235      481.112       80.427        0.748        0.035      118.157        4.027        0.001      334.648        4.760      866.718
12/08/2014  21:30:00       -6.145      145.125      -24.761        6.905       11.850        6.280       47.672      140.430       39.444        1.097        0.011      145.255        2.899        0.000      334.845        5.085      866.712
12/08/2014  21:31:00       -3.394      161.856      -20.590        5.902       14.581        6.448       34.831      212.591       41.576        1.346        0.014      161.892        2.435        0.000      334.990        5.328      866.695
12/08/2014  21:32:00       -3.481      153.407      -24.960        7.557       14.952        6.302       57.112      223.564       39.715        1.224        0.016      153.446        3.661        0.001      335.243        5.746      866.687
12/08/2014  21:33:00      -11.658      107.826      -17.447       16.957       28.477       10.012      287.529      810.948      100.231        0.663        0.060      108.454        9.507        0.008      335.285        5.817      866.687
12/08/2014  21:34:00      -21.214       62.276       -6.890       23.419       23.098       12.395      548.468      533.538      153.638        0.281        0.062       65.790        9.919        0.023      335.048        5.424      866.694
12/08/2014  21:35:00       -5.581       57.248       -3.735       21.683       18.018        8.529      470.131      324.636       72.752        0.209        0.043       57.519        7.696        0.018      335.088        5.489      866.694
12/08/2014  21:36:00       -8.128       67.445       -2.942       20.013       40.029       16.718      400.528     1602.302      279.494        0.345        0.114       67.933       18.791        0.077      335.089        5.492      866.703
12/08/2014  21:37:00      -30.169      -13.801       -1.104       19.014       19.180       13.005      361.520      367.864      169.132        0.100        0.045       33.176        6.667        0.040      334.592        4.667      866.709
12/08/2014  21:38:00      -43.316      -18.643       -5.412       12.564       11.786        9.736      157.861      138.916       94.785        0.132        0.020       47.157        3.023        0.004      334.490        4.497      866.709
12/08/2014  21:39:00      -34.210      -10.156       -4.462       12.195       12.824        7.611      148.725      164.453       57.920        0.083        0.019       35.686        6.342        0.032      334.482        4.485      866.709
12/08/2014  21:40:00      -61.660      -32.752       -7.944        9.859        9.726        7.903       97.199       94.587       62.450        0.260        0.013       69.819        2.607        0.001      334.359        4.279      866.704
12/08/2014  21:41:00      -70.373      -46.248      -16.113       18.837       12.359       11.615      354.851      152.738      134.902        0.400        0.032       84.210        5.624        0.004      334.267        4.128      866.712
12/08/2014  21:42:00      -76.778      -60.932      -23.202       22.523       22.088       12.474      507.304      487.874      155.612        0.565        0.058       98.018        6.963        0.005      334.147        3.929      866.707
12/08/2014  21:43:00      -39.832      -44.799        0.808       33.930       32.340       28.704     1151.255     1045.900      823.901        0.331        0.151       59.946       26.863        0.201      334.079        3.814      866.709
12/08/2014  21:44:00      -75.782      -27.342        0.688       24.932       34.123       17.920      621.605     1164.412      321.128        0.430        0.105       80.563       14.831        0.034      334.016        3.713      866.705
12/08/2014  21:45:00      -84.500      -15.673       -5.270       32.001       17.879       18.129     1024.042      319.663      328.655        0.454        0.084       85.942       18.079        0.044      334.027        3.729      866.707
12/08/2014  21:46:00      -66.853      -29.596       -5.646       25.878       26.294       19.265      669.664      691.386      371.154        0.355        0.087       73.111       13.792        0.036      334.041        3.753      866.718
12/08/2014  21:47:00      -36.724      -22.480       -6.691       30.653       21.029       20.221      939.606      442.205      408.873        0.184        0.090       43.058       17.936        0.174      334.134        3.907      866.723
12/08/2014  21:48:00      -67.120      -15.884       -9.892       25.827       22.574       18.577      667.034      509.602      345.087        0.319        0.076       68.974       11.902        0.030      334.187        3.995      866.728
12/08/2014  21:49:00      -63.902      -31.142       -5.504       23.378       19.869       16.550      546.550      394.770      273.911        0.315        0.061       71.087       15.446        0.047      334.163        3.954      866.727
12/08/2014  21:50:00      -86.067      -31.373      -19.357       28.825       19.564       15.914      830.884      382.735      253.246        0.512        0.073       91.607        6.713        0.005      334.153        3.939      866.723
12/08/2014  21:51:00      -74.380      -18.990       -5.588       47.358       29.237       22.769     2242.789      854.806      518.421        0.477        0.181       76.766       21.797        0.081      334.145        3.925      866.717
12/08/2014  21:52:00      -42.312      -18.839       -3.738       58.033       23.955       19.348     3367.882      573.858      374.344        0.324        0.216       46.316        4.653        0.010      334.175        3.975      866.719
12/08/2014  21:53:00      -82.701      -54.394       -2.570       32.840       27.794       18.152     1078.449      772.522      329.494        0.599        0.109       98.986       14.534        0.022      334.137        3.913      866.727
12/08/2014  21:54:00      -22.987      -20.593        8.097       24.127       17.928       16.645      582.132      321.421      277.041        0.110        0.059       30.862        9.588        0.097      334.112        3.869      866.725
12/08/2014  21:55:00        4.609      -36.258        4.793       18.766       17.691       12.798      352.154      312.976      163.782        0.109        0.041       36.550        4.976        0.019      334.219        4.049      866.732
12/08/2014  21:56:00        4.375      -18.447        3.663        8.478       14.747       15.534       71.873      217.476      241.303        0.045        0.027       18.959        2.017        0.011      334.227        4.061      866.744
12/08/2014  21:57:00        6.491      -20.764        7.557        9.787       15.797        8.461       95.785      249.553       71.583        0.047        0.021       21.755        4.464        0.042      334.298        4.180      866.752
12/08/2014  21:58:00      -19.176       -1.311       -0.727        8.086        5.729        6.279       65.381       32.823       39.428        0.025        0.007       19.221        5.810        0.091      334.229        4.064      866.753
12/08/2014  21:59:00      -56.775      -12.345       -5.286       21.546       17.742       10.130      464.216      314.766      102.610        0.214        0.044       58.102        5.498        0.009      334.177        3.976      866.760
12/08/2014  22:00:00      -47.559      -13.596       -7.546       23.465       11.230        9.114      550.590      126.103       83.059        0.163        0.038       49.464        4.535        0.008      334.025        3.726      866.771
12/08/2014  22:01:00      -70.713      -28.964      -10.434       13.939       11.943        7.041      194.306      142.627       49.576        0.317        0.019       76.415        5.207        0.005      334.127        3.894      866.774
12/08/2014  22:02:00      -87.236      -42.183      -14.547       25.754       19.792       12.606      663.272      391.707      158.904        0.541        0.061       96.900       11.327        0.014      334.119        3.881      866.774
12/08/2014  22:03:00      -78.781      -29.072       -6.950       26.884       18.990       13.807      722.737      360.610      190.631        0.419        0.064       83.974       11.643        0.019      334.053        3.773      866.774
12/08/2014  22:04:00      -56.802      -20.609       -5.230       13.882       12.535       10.217      192.697      157.130      104.379        0.207        0.023       60.425        7.622        0.016      334.072        3.801      866.776
12/08/2014  22:05:00      -41.640      -26.840       -3.484       19.104        8.388       12.266      364.961       70.365      150.461        0.153        0.029       49.541        9.941        0.040      334.109        3.863      866.788
12/08/2014  22:06:00      -90.994      -40.860       -7.136       17.692       10.657        8.676      312.990      113.578       75.269        0.525        0.025       99.747        7.392        0.005      334.128        3.896      866.793
12/08/2014  22:07:00      -78.367      -53.175        1.339       29.787       20.460       17.537      887.269      418.619      307.539        0.529        0.081       94.705       13.767        0.021      334.078        3.814      866.801
12/08/2014  22:08:00     -110.218      -46.151       -5.854       13.255       12.585       10.625      175.694      158.373      112.884        0.738        0.022      119.490        3.308        0.001      334.159        3.948      866.796
12/08/2014  22:09:00      -69.336      -42.721       -8.959       26.358       20.889       15.543      694.721      436.369      241.591        0.404        0.069       81.441       17.276        0.045      334.137        3.910      866.803
12/08/2014  22:10:00      -43.815      -59.528        2.849       27.855       17.742       22.900      775.922      314.791      524.421        0.354        0.081       73.914       14.890        0.041      334.217        4.043      866.823
12/08/2014  22:11:00      -52.013      -65.770       -6.677       39.507       49.930       25.104     1560.837     2492.989      630.221        0.588        0.234       83.851        8.697        0.011      334.196        4.008      866.828
12/08/2014  22:12:00      -86.981      -71.037       -8.581       57.912       46.398       36.402     3353.844     2152.752     1325.089        0.976        0.342      112.303       37.010        0.109      334.233        4.070      866.812
12/08/2014  22:13:00      -75.221      -46.308        1.658       43.425       35.847       17.415     1885.771     1284.984      303.287        0.564        0.174       88.332       20.085        0.052      334.239        4.080      866.791
12/08/2014  22:14:00     -104.354      -53.610       -0.023       34.085       27.385       20.148     1161.813      749.939      405.940        0.804        0.116      117.319       17.157        0.021      334.217        4.045      866.771
12/08/2014  22:15:00      -58.220      -38.124       11.303       47.919       31.307       22.343     2296.257      980.103      499.190        0.437        0.189       69.591       22.511        0.105      334.123        3.888      866.773
12/08/2014  22:16:00      -89.051      -72.753        2.029       49.497       39.328       24.305     2449.931     1546.679      590.740        0.891        0.229      114.992       26.307        0.052      334.188        3.996      866.771
12/08/2014  22:17:00     -104.825      -61.889      -14.270       14.544       18.793       14.153      211.515      353.196      200.301        0.789        0.038      121.731        6.667        0.003      334.242        4.084      866.761
12/08/2014  22:18:00      -86.277      -45.977       -6.094       16.783       12.483        9.993      281.682      155.835       99.865        0.507        0.027       97.764        5.424        0.003      334.236        4.076      866.761
12/08/2014  22:19:00     -105.804      -69.262       -7.444       40.540       28.175       14.675     1643.495      793.808      215.343        0.935        0.133      126.459        6.687        0.003      334.164        3.958      866.753
12/08/2014  22:20:00     -152.433      -52.971       -7.105       19.549       23.075       12.065      382.148      532.454      145.574        1.358        0.053      161.375       10.660        0.004      333.967        3.629      866.757
12/08/2014  22:21:00     -143.682      -38.574       -9.587       31.857       20.948       13.910     1014.876      438.816      193.488        1.194        0.082      148.770       14.154        0.009      333.928        3.566      866.753
12/08/2014  22:22:00     -117.868      -25.955       -4.105       28.086       18.479       16.038      788.836      341.460      257.211        0.799        0.069      120.692       17.316        0.021      333.892        3.506      866.750
12/08/2014  22:23:00     -105.307      -34.731       -2.495       31.267       19.571       16.196      977.641      383.034      262.297        0.696        0.081      110.887       15.717        0.020      333.869        3.467      866.756
12/08/2014  22:24:00      -95.548      -12.110        0.490       39.420       28.277       19.839     1553.973      799.605      393.569        0.601        0.137       96.312       22.218        0.053      333.736        3.245      866.773
12/08/2014  22:25:00      -99.768       -5.245       -2.459       29.197       18.160       20.027      852.458      329.787      401.073        0.578        0.079       99.906       21.224        0.045      333.764        3.293      866.782
12/08/2014  22:26:00      -82.375        2.567       -6.287       24.655       10.007       12.726      607.873      100.136      161.956        0.385        0.043       82.415       12.119        0.022      333.780        3.318      866.783
12/08/2014  22:27:00     -115.346      -11.697      -14.791       17.747       18.439       16.847      314.966      340.005      283.811        0.730        0.047      115.938       12.627        0.012      333.901        3.521      866.792
12/08/2014  22:28:00     -131.516      -36.714      -16.567       26.537       18.758       14.590      704.226      351.853      212.880        1.009        0.063      136.544       17.336        0.016      333.915        3.544      866.811
12/08/2014  22:29:00     -124.700      -55.231      -13.627       14.254       10.471       10.705      203.175      109.640      114.604        0.961        0.021      136.384        8.674        0.004      333.847        3.430      866.829
12/08/2014  22:30:00     -115.949      -48.099      -13.279       16.897       21.833       16.974      285.520      476.679      288.106        0.849        0.053      125.530       10.644        0.007      333.803        3.358      866.837
12/08/2014  22:31:00     -116.084      -57.274       -8.545       23.457       21.607       15.964      550.250      466.856      254.860        0.905        0.064      129.444        9.511        0.005      333.787        3.331      866.839
12/08/2014  22:32:00     -166.810      -55.890      -14.464       29.993       33.374       16.001      899.580     1113.816      256.033        1.671        0.113      175.924       13.262        0.006      333.825        3.394      866.848
12/08/2014  22:33:00     -158.494      -74.398       -6.933       31.984       42.876       19.735     1022.959     1838.392      389.488        1.698        0.163      175.087       13.087        0.006      333.813        3.371      866.846
12/08/2014  22:34:00     -139.793      -38.285      -13.305       37.008       54.522       27.017     1369.626     2972.615      729.920        1.313        0.254      144.941       26.140        0.033      333.795        3.344      866.844
12/08/2014  22:35:00     -125.440      -11.974      -13.026       24.462       34.605       18.062      598.367     1197.535      326.245        0.908        0.106      126.011        8.240        0.004      333.797        3.347      866.843
12/08/2014  22:36:00     -134.678      -86.399      -11.836       34.348       29.530       23.145     1179.757      872.033      535.714        1.416        0.129      160.009       16.052        0.010      333.775        3.310      866.844
12/08/2014  22:37:00      -78.813      -11.045        4.850       54.275       44.634       30.986     2945.732     1992.212      960.111        0.613        0.295       79.583       30.503        0.147      333.710        3.204      866.858
12/08/2014  22:38:00      -80.338      -15.429       -1.032       48.958       42.209       17.916     2396.910     1781.640      320.986        0.560        0.225       81.806        9.047        0.012      333.726        3.230      866.855
12/08/2014  22:39:00      -55.896        2.513      -12.909       23.765       32.075       17.091      564.761     1028.788      292.099        0.259        0.094       55.952       11.776        0.044      333.674        3.144      866.860
12/08/2014  22:40:00      -52.899      -15.502        1.102       26.538       22.398       18.619      704.285      501.673      346.670        0.230        0.078       55.123       15.387        0.078      333.719        3.216      866.866
12/08/2014  22:41:00      -52.890      -17.707       -5.722       21.108       17.905       18.856      445.564      320.605      355.543        0.213        0.056       55.775       14.111        0.064      333.832        3.405      866.877
12/08/2014  22:42:00      -58.414        0.996       -5.680       20.729       14.511       11.025      429.678      210.581      121.560        0.210        0.038       58.423        8.053        0.019      333.750        3.270      866.873
12/08/2014  22:43:00      -69.859      -16.565       -8.919       18.187       16.464       13.868      330.775      271.062      192.331        0.301        0.040       71.796        7.390        0.011      333.780        3.319      866.872
12/08/2014  22:44:00      -78.086      -28.042      -11.345       19.750       18.727       12.011      390.065      350.682      144.258        0.395        0.044       82.968        6.763        0.007      333.794        3.343      866.884
12/08/2014  22:45:00     -101.585       -7.058      -17.446       25.366       18.816       14.738      643.438      354.042      217.197        0.594        0.061      101.829       13.532        0.018      333.822        3.390      866.882
12/08/2014  22:46:00      -41.821       -3.123      -11.151       26.312       24.245       20.714      692.300      587.802      429.081        0.180        0.085       41.937       15.020        0.128      333.799        3.351      866.889
12/08/2014  22:47:00      -48.495      -19.272       -7.876       27.754       15.649       13.366      770.276      244.886      178.656        0.199        0.060       52.184       13.258        0.065      333.798        3.348      866.911
12/08/2014  22:48:00      -57.017      -39.540      -20.587       14.009       15.770       10.323      196.240      248.704      106.561        0.289        0.028       69.385        8.852        0.016      333.851        3.438      866.932
12/08/2014  22:49:00      -52.365      -35.131      -13.666       12.451       16.330       12.399      155.022      266.666      153.743        0.237        0.029       63.057        9.158        0.021      333.787        3.331      866.938
12/08/2014  22:50:00      -48.415      -23.375       -8.554       22.078       15.981       15.611      487.448      255.379      243.698        0.197        0.049       53.762       16.990        0.100      333.779        3.319      866.942
12/08/2014  22:51:00      -64.360      -18.121      -17.867       20.845       19.834       11.433      434.510      393.388      130.714        0.287        0.048       66.863       11.426        0.029      333.953        3.607      866.929
12/08/2014  22:52:00      -30.350      -15.878       -3.145       15.701       15.324        7.045      246.529      234.812       49.639        0.086        0.027       34.253        8.025        0.055      334.059        3.783      866.910
12/08/2014  22:53:00        2.679        5.856        5.843       21.477       11.413       11.362      461.269      130.257      129.094        0.040        0.036        6.439        5.824        0.818      334.248        4.095      866.880
12/08/2014  22:54:00       -9.292       70.350       -9.902       17.433       18.634       12.177      303.898      347.219      148.286        0.297        0.040       70.961       11.981        0.029      334.669        4.794      866.871
12/08/2014  22:55:00      -27.042       18.524       -2.959       13.978       31.682       15.148      195.398     1003.781      229.474        0.126        0.071       32.778       14.806        0.204      334.510        4.531      866.849
12/08/2014  22:56:00       14.972       69.533       -8.436       21.214       41.403       13.387      450.043     1714.204      179.203        0.374        0.117       71.127       19.768        0.077      334.668        4.792      866.845
12/08/2014  22:57:00       27.026       29.130       -1.335       13.087       22.478       13.852      171.282      505.262      191.882        0.122        0.043       39.736       14.249        0.129      334.580        4.646      866.838
12/08/2014  22:58:00       33.071       22.243        0.574        9.675       11.917        8.303       93.615      142.021       68.945        0.095        0.015       39.855        6.361        0.025      334.406        4.359      866.835
12/08/2014  22:59:00       32.534       11.465        4.283       10.735        8.206        7.449      115.237       67.347       55.491        0.072        0.012       34.495        1.454        0.002      334.294        4.172      866.820
12/08/2014  23:00:00       30.946        5.007        4.182       10.964       10.596        9.785      120.209      112.276       95.739        0.066        0.016       31.348        2.905        0.009      334.133        3.906      866.815
12/08/2014  23:01:00       22.966        8.062       -3.715       10.121        5.342        6.624      102.442       28.537       43.872        0.039        0.009       24.340        6.783        0.078      334.094        3.841      866.817
12/08/2014  23:02:00       15.138        5.768       -0.659        5.998        9.410        4.298       35.976       88.544       18.474        0.020        0.007       16.200        5.518        0.116      334.277        4.142      866.814
12/08/2014  23:03:00        9.809       39.000       -2.856        8.823        9.607        3.986       77.853       92.301       15.887        0.091        0.009       40.214        3.333        0.007      334.619        4.711      866.812
12/08/2014  23:04:00       15.179        9.962        7.131       12.875       10.868        7.457      165.774      118.113       55.603        0.036        0.017       18.156        6.819        0.141      334.446        4.424      866.813
12/08/2014  23:05:00      -19.862       -7.026        0.694       19.493       10.226       10.314      379.977      104.571      106.381        0.052        0.030       21.068        5.747        0.074      334.356        4.276      866.815
12/08/2014  23:06:00      -42.739      -18.952       -9.786       10.703        6.093        3.968      114.555       37.129       15.747        0.122        0.008       46.752        3.594        0.006      333.929        3.569      866.826
12/08/2014  23:07:00      -40.175      -11.668       -2.141       16.928        8.476        6.132      286.555       71.844       37.597        0.108        0.020       41.835        4.184        0.010      334.161        3.951      866.833
12/08/2014  23:08:00      -21.121      -12.580       -3.289       16.217       14.628       12.006      262.976      213.968      144.154        0.062        0.031       24.584        9.490        0.149      334.163        3.955      866.834
12/08/2014  23:09:00      -26.261        6.737       -1.633       11.276        7.971        6.763      127.143       63.545       45.744        0.049        0.012       27.112        6.267        0.053      334.361        4.283      866.831
12/08/2014  23:10:00       -6.819       13.937        3.368       21.639        9.702       11.416      468.236       94.133      130.321        0.047        0.035       15.516       13.755        0.786      334.276        4.143      866.839
12/08/2014  23:11:00       11.678       42.977       -4.723       16.856       11.761        7.939      284.132      138.332       63.035        0.125        0.024       44.535        8.953        0.040      334.421        4.382      866.844
12/08/2014  23:12:00        5.195       58.248       -9.081       12.634       15.567        7.476      159.629      242.318       55.887        0.198        0.023       58.479        8.153        0.019      334.449        4.429      866.840
12/08/2014  23:13:00       -9.466       30.281       -6.416       23.696       22.344       11.333      561.497      499.253      128.428        0.112        0.059       31.726       12.261        0.149      334.389        4.329      866.822
12/08/2014  23:14:00      -77.710        0.227       -9.219       15.303       14.482       14.405      234.168      209.740      207.509        0.339        0.033       77.710       10.422        0.018      333.768        3.298      866.791
12/08/2014  23:15:00      -70.561        2.823      -13.561       10.315        6.411        5.952      106.403       41.100       35.428        0.268        0.009       70.618        3.169        0.002      333.947        3.597      866.768
12/08/2014  23:16:00      -51.240       -4.171       -4.033        7.585        4.367        5.844       57.531       19.074       34.153        0.138        0.006       51.409        5.230        0.010      334.305        4.191      866.741
12/08/2014  23:17:00      -42.046      -10.974      -12.044       13.198        8.718        9.244      174.188       75.998       85.455        0.118        0.017       43.454        5.717        0.017      334.019        3.716      866.733
12/08/2014  23:18:00      -71.064      -18.711      -14.550       19.389       13.518        8.318      375.945      182.732       69.187        0.312        0.031       73.486        5.155        0.005      333.884        3.492      866.745
12/08/2014  23:19:00      -78.224       -8.135       -8.956       16.547       12.930       10.538      273.807      167.186      111.056        0.341        0.028       78.646        8.701        0.012      333.817        3.381      866.746
12/08/2014  23:20:00      -75.590       -0.651      -11.686       18.336       12.193       11.809      336.191      148.664      139.454        0.324        0.031       75.593        6.256        0.007      333.808        3.365      866.742
12/08/2014  23:21:00      -67.216      -10.634       -7.860       20.375       17.662        9.815      415.152      311.958       96.333        0.276        0.041       68.052        9.103        0.018      333.788        3.333      866.737
12/08/2014  23:22:00      -54.508      -20.981      -11.934        9.095       13.608       10.642       82.727      185.177      113.243        0.197        0.019       58.406        8.836        0.023      333.770        3.301      866.738
12/08/2014  23:23:00      -83.977      -24.323      -15.519       14.709       11.383        8.475      216.360      129.568       71.829        0.415        0.021       87.428        5.286        0.004      333.722        3.222      866.735
12/08/2014  23:24:00     -108.944      -37.409       -9.186       17.205       21.009       11.075      296.026      441.376      122.661        0.711        0.043      115.188        7.881        0.005      333.689        3.168      866.736
12/08/2014  23:25:00     -130.305      -54.570      -15.405       16.409       20.657       14.811      269.240      426.728      219.379        1.055        0.046      141.271        9.894        0.005      333.731        3.237      866.741
12/08/2014  23:26:00     -108.515      -51.348       -1.204       26.710       19.560       16.397      713.410      382.599      268.854        0.789        0.068      120.051       16.204        0.018      333.759        3.285      866.734
12/08/2014  23:27:00      -87.721      -41.715       -3.498       23.027       13.462       10.069      530.247      181.224      101.376        0.513        0.041       97.135        8.209        0.007      333.787        3.331      866.726
12/08/2014  23:28:00      -62.928      -36.278       -6.672       13.556        9.476        8.525      183.767       89.790       72.669        0.283        0.017       72.637        7.853        0.012      333.870        3.468      866.703
12/08/2014  23:29:00      -83.241      -38.109       -4.543       19.137       11.612        7.890      366.208      134.842       62.256        0.448        0.028       91.550        6.400        0.005      333.850        3.435      866.688
12/08/2014  23:30:00      -93.418      -53.139       -7.804       19.173       18.991       11.641      367.589      360.653      135.519        0.624        0.043      107.474        4.142        0.001      333.823        3.391      866.676
12/08/2014  23:31:00      -80.928      -82.109       -4.827       23.319       23.940       13.562      543.767      573.142      183.916        0.731        0.065      115.288       13.093        0.013      333.803        3.358      866.669
12/08/2014  23:32:00      -79.233      -55.396       -1.181       19.797       18.731       18.126      391.934      350.852      328.567        0.521        0.054       96.677       14.491        0.022      333.820        3.387      866.666
12/08/2014  23:33:00      -76.904      -41.788       -0.107       34.160       18.973       15.148     1166.933      359.976      229.456        0.471        0.088       87.524       15.454        0.031      333.784        3.327      866.661
12/08/2014  23:34:00      -82.201      -40.245       -0.469       24.958       18.500       15.142      622.912      342.253      229.283        0.479        0.060       91.524       13.815        0.023      333.715        3.212      866.664
12/08/2014  23:35:00      -68.051      -34.344       -2.401       16.000       12.744        8.527      256.003      162.403       72.703        0.315        0.025       76.226        6.100        0.006      333.650        3.102      866.665
12/08/2014  23:36:00      -35.020      -23.588        0.447       18.677       19.503       11.560      348.840      380.365      133.644        0.132        0.043       42.223       11.450        0.074      333.630        3.070      866.663
12/08/2014  23:37:00      -54.448      -47.377       -7.643       14.822       18.387        8.650      219.680      338.082       74.821        0.295        0.032       72.175        8.162        0.013      333.778        3.315      866.646
12/08/2014  23:38:00      -33.394      -34.452       -3.243       12.493        9.416       12.189      156.076       88.669      148.573        0.135        0.020       47.981        3.376        0.005      333.842        3.422      866.631
12/08/2014  23:39:00      -10.533      -25.345       -1.004       16.669       11.237        7.338      277.861      126.280       53.850        0.061        0.023       27.447        4.013        0.021      333.927        3.563      866.616
12/08/2014  23:40:00      -10.987      -13.746        3.557        8.350        9.010        9.850       69.717       81.180       97.032        0.029        0.012       17.598        2.881        0.027      333.954        3.608      866.594
12/08/2014  23:41:00       -1.676        6.298        1.281        7.907        7.490        8.364       62.513       56.096       69.956        0.012        0.009        6.517        4.815        0.546      333.804        3.360      866.571
12/08/2014  23:42:00       -1.716        9.293        2.111        6.497        7.653        7.435       42.206       58.562       55.277        0.012        0.008        9.450        5.580        0.349      333.839        3.417      866.549
12/08/2014  23:43:00       -7.388        2.981        2.370        3.791        5.336        5.747       14.373       28.472       33.027        0.007        0.004        7.967        3.069        0.148      333.810        3.368      866.527
12/08/2014  23:44:00      -16.859        1.044        6.383       15.934       15.859       10.071      253.895      251.519      101.425        0.047        0.030       16.892        6.140        0.132      333.889        3.502      866.513
12/08/2014  23:45:00      -11.362      -19.937       -0.382        7.535        5.337        4.913       56.782       28.486       24.137        0.032        0.005       22.947        3.244        0.020      334.216        4.041      866.506
12/08/2014  23:46:00       -7.642       -9.161       -3.173        7.633        7.279        7.774       58.265       52.983       60.433        0.016        0.009       11.930        5.744        0.232      334.270        4.133      866.510
12/08/2014  23:47:00       -8.240       -0.585        7.009        6.534        4.083        3.683       42.698       16.673       13.562        0.010        0.004        8.261        3.029        0.134      334.063        3.789      866.500
12/08/2014  23:48:00      -22.486        0.178       -0.704       11.427        7.025        3.527      130.585       49.355       12.438        0.035        0.010       22.486        3.352        0.022      334.145        3.924      866.480
12/08/2014  23:49:00      -20.030      -28.079       -3.947       10.940       10.844        7.243      119.674      117.590       52.455        0.075        0.014       34.491        5.086        0.022      333.904        3.523      866.463
12/08/2014  23:50:00      -44.423      -19.322       -5.274       12.976       11.749        6.893      168.383      138.040       47.512        0.136        0.018       48.443        6.558        0.018      333.761        3.288      866.437
12/08/2014  23:51:00      -47.954      -15.134       -5.882       12.052       13.569        7.679      145.251      184.113       58.969        0.148        0.019       50.285        5.317        0.011      333.660        3.121      866.407
12/08/2014  23:52:00      -56.537      -17.166       -3.724       10.663        9.036        6.011      113.694       81.645       36.138        0.187        0.012       59.085        4.838        0.007      333.746        3.264      866.381
12/08/2014  23:53:00      -73.395      -17.436       -6.758        8.086       10.553        6.313       65.383      111.364       39.858        0.298        0.011       75.437        4.528        0.004      333.791        3.339      866.369
12/08/2014  23:54:00      -76.382      -26.448       -0.806        6.750        8.327        5.536       45.565       69.337       30.651        0.334        0.007       80.831        2.383        0.001      333.697        3.182      866.394
12/08/2014  23:55:00      -52.575      -33.359        2.801       24.623       13.555       13.579      606.312      183.739      184.396        0.243        0.049       62.265       12.491        0.040      333.626        3.064      866.427
12/08/2014  23:56:00      -21.091      -15.962        6.200       23.940       17.536       12.014      573.144      307.529      144.339        0.088        0.051       26.450       10.020        0.143      333.631        3.073      866.442
12/08/2014  23:57:00       -2.800        1.503       -3.102       13.116        7.929        9.406      172.029       62.873       88.464        0.017        0.016        3.178        6.500        4.184      333.624        3.061      866.455
12/08/2014  23:58:00       -1.133        5.163       -5.093        6.962        6.038        4.880       48.476       36.456       23.812        0.008        0.005        5.285        3.186        0.363      333.680        3.153      866.450
12/08/2014  23:59:00        7.587       23.668        8.712       10.717        9.132        6.354      114.847       83.397       40.375        0.047        0.012       24.855        4.806        0.037      333.895        3.510      866.434
